Time,TemperatureF,DewpointF,PressureIn,WindDirection,WindDirectionDegrees,WindSpeedMPH,WindSpeedGustMPH,Humidity,HourlyPrecipIn,Conditions,Clouds,dailyrainin,SoftwareType,DateUTC
2013-05-06 00:00:00,47.8,24.1,29.25,SW,227,0.0,0.0,39,0.00,,FEW075,0.00,VWS V14.01,2013-05-06 07:00:00,
2013-05-06 00:01:00,47.7,24.5,29.25,WSW,240,0.0,0.0,40,0.00,,CLR,0.00,VWS V14.01,2013-05-06 07:01:00,
2013-05-06 00:02:00,47.7,23.9,29.25,SW,227,2.7,2.7,39,0.00,,FEW075,0.00,VWS V14.01,2013-05-06 07:02:00,
2013-05-06 00:03:00,47.5,23.8,29.25,WSW,247,3.1,3.1,39,0.00,,FEW075,0.00,VWS V14.01,2013-05-06 07:03:00,
2013-05-06 00:04:00,47.3,24.2,29.25,WSW,248,2.2,3.1,40,0.00,,FEW075,0.00,VWS V14.01,2013-05-06 07:04:00,
2013-05-06 00:05:00,47.1,24.1,29.25,WSW,247,0.0,2.7,40,0.00,,FEW075,0.00,VWS V14.01,2013-05-06 07:05:00,
2013-05-06 00:06:00,47.7,24.5,29.25,WSW,239,0.0,0.0,40,0.00,,CLR,0.00,VWS V14.01,2013-05-06 07:06:00,
2013-05-06 00:07:00,47.1,24.1,29.25,WSW,247,2.7,2.7,40,0.00,,FEW075,0.00,VWS V14.01,2013-05-06 07:07:00,
2013-05-06 00:08:00,47.1,24.1,29.25,WSW,247,2.7,2.7,40,0.00,,FEW075,0.00,VWS V14.01,2013-05-06 07:08:00,
2013-05-06 00:09:00,47.1,24.1,29.25,WSW,247,2.7,2.7,40,0.00,,FEW075,0.00,VWS V14.01,2013-05-06 07:09:00,
2013-05-06 00:10:00,47.1,24.1,29.25,WSW,240,3.1,3.1,40,0.00,,FEW075,0.00,VWS V14.01,2013-05-06 07:10:00,
2013-05-06 00:11:00,48.2,24.4,29.25,WSW,239,0.0,0.0,39,0.00,,CLR,0.00,VWS V14.01,2013-05-06 07:11:00,
2013-05-06 00:12:00,47.3,24.2,29.25,WSW,240,0.0,2.7,40,0.00,,FEW075,0.00,VWS V14.01,2013-05-06 07:12:00,
2013-05-06 00:13:00,47.5,24.4,29.25,WSW,240,0.0,2.2,40,0.00,,FEW075,0.00,VWS V14.01,2013-05-06 07:13:00,
2013-05-06 00:14:00,47.7,24.5,29.25,WSW,240,0.0,0.0,40,0.00,,FEW075,0.00,VWS V14.01,2013-05-06 07:14:00,
2013-05-06 00:15:00,47.7,24.5,29.25,WSW,239,0.0,2.2,40,0.00,,FEW075,0.00,VWS V14.01,2013-05-06 07:15:00,
2013-05-06 00:16:00,48.2,23.8,29.25,WSW,239,0.0,0.0,38,0.00,,CLR,0.00,VWS V14.01,2013-05-06 07:16:00,
2013-05-06 00:17:00,47.7,24.5,29.25,WSW,239,0.0,0.0,40,0.00,,FEW075,0.00,VWS V14.01,2013-05-06 07:17:00,
2013-05-06 00:18:00,47.7,24.5,29.25,WSW,239,0.0,0.0,40,0.00,,FEW075,0.00,VWS V14.01,2013-05-06 07:18:00,
2013-05-06 00:19:00,47.7,24.5,29.25,WSW,239,0.0,0.0,40,0.00,,FEW075,0.00,VWS V14.01,2013-05-06 07:19:00,
2013-05-06 00:20:00,47.8,24.1,29.25,WSW,239,0.0,0.0,39,0.00,,FEW075,0.00,VWS V14.01,2013-05-06 07:20:00,
2013-05-06 00:21:00,48.2,23.8,29.25,SW,228,0.0,0.0,38,0.00,,CLR,0.00,VWS V14.01,2013-05-06 07:21:00,
2013-05-06 00:22:00,48.0,24.3,29.25,WSW,239,0.0,0.0,39,0.00,,FEW075,0.00,VWS V14.01,2013-05-06 07:22:00,
2013-05-06 00:23:00,48.0,24.3,29.25,WSW,239,0.0,0.0,39,0.00,,FEW075,0.00,VWS V14.01,2013-05-06 07:23:00,
2013-05-06 00:24:00,48.0,24.3,29.25,WSW,239,0.0,0.0,39,0.00,,FEW075,0.00,VWS V14.01,2013-05-06 07:24:00,
2013-05-06 00:25:00,48.2,24.4,29.25,WSW,239,0.0,0.0,39,0.00,,FEW075,0.00,VWS V14.01,2013-05-06 07:25:00,
2013-05-06 00:26:00,48.0,24.3,29.25,SW,228,2.2,2.7,39,0.00,,CLR,0.00,VWS V14.01,2013-05-06 07:26:00,
2013-05-06 00:27:00,48.2,23.8,29.25,WSW,239,0.0,0.0,38,0.00,,FEW075,0.00,VWS V14.01,2013-05-06 07:27:00,
2013-05-06 00:28:00,48.2,23.8,29.25,WSW,239,0.0,0.0,38,0.00,,FEW075,0.00,VWS V14.01,2013-05-06 07:28:00,
2013-05-06 00:29:00,48.2,23.8,29.25,WSW,239,0.0,0.0,38,0.00,,FEW075,0.00,VWS V14.01,2013-05-06 07:29:00,
2013-05-06 00:30:00,48.2,23.8,29.25,SW,228,0.0,0.0,38,0.00,,FEW075,0.00,VWS V14.01,2013-05-06 07:30:00,
2013-05-06 00:31:00,47.5,23.2,29.25,SW,228,0.0,0.0,38,0.00,,CLR,0.00,VWS V14.01,2013-05-06 07:31:00,
2013-05-06 00:32:00,48.2,23.8,29.25,SW,228,0.0,2.2,38,0.00,,FEW075,0.00,VWS V14.01,2013-05-06 07:32:00,
2013-05-06 00:33:00,48.2,23.8,29.25,SW,228,0.0,0.0,38,0.00,,FEW075,0.00,VWS V14.01,2013-05-06 07:33:00,
2013-05-06 00:34:00,48.2,23.8,29.25,SW,228,0.0,0.0,38,0.00,,FEW075,0.00,VWS V14.01,2013-05-06 07:34:00,
2013-05-06 00:35:00,48.2,23.8,29.25,SW,228,0.0,0.0,38,0.00,,FEW075,0.00,VWS V14.01,2013-05-06 07:35:00,
2013-05-06 00:36:00,47.5,23.2,29.25,SW,228,0.0,0.0,38,0.00,,CLR,0.00,VWS V14.01,2013-05-06 07:36:00,
2013-05-06 00:37:00,48.2,23.8,29.25,SW,228,0.0,0.0,38,0.00,,FEW075,0.00,VWS V14.01,2013-05-06 07:37:00,
2013-05-06 00:38:00,48.0,23.6,29.25,SW,228,2.7,2.7,38,0.00,,FEW075,0.00,VWS V14.01,2013-05-06 07:38:00,
2013-05-06 00:39:00,48.0,24.3,29.25,SW,228,2.2,2.7,39,0.00,,FEW075,0.00,VWS V14.01,2013-05-06 07:39:00,
2013-05-06 00:40:00,47.8,23.5,29.25,SW,228,2.2,2.2,38,0.00,,FEW075,0.00,VWS V14.01,2013-05-06 07:40:00,
2013-05-06 00:41:00,47.3,23.0,29.25,SW,228,0.0,0.0,38,0.00,,CLR,0.00,VWS V14.01,2013-05-06 07:41:00,
2013-05-06 00:42:00,47.7,23.3,29.25,SW,228,0.0,2.2,38,0.00,,FEW075,0.00,VWS V14.01,2013-05-06 07:42:00,
2013-05-06 00:43:00,47.7,23.3,29.25,SW,228,0.0,0.0,38,0.00,,FEW075,0.00,VWS V14.01,2013-05-06 07:43:00,
2013-05-06 00:44:00,47.5,23.2,29.25,SW,228,0.0,0.0,38,0.00,,FEW075,0.00,VWS V14.01,2013-05-06 07:44:00,
2013-05-06 00:45:00,47.5,23.2,29.25,SW,228,0.0,0.0,38,0.00,,FEW075,0.00,VWS V14.01,2013-05-06 07:45:00,
2013-05-06 00:46:00,46.6,22.4,29.25,SW,228,0.0,0.0,38,0.00,,CLR,0.00,VWS V14.01,2013-05-06 07:46:00,
2013-05-06 00:47:00,47.5,23.2,29.25,SW,228,0.0,0.0,38,0.00,,FEW075,0.00,VWS V14.01,2013-05-06 07:47:00,
2013-05-06 00:48:00,47.5,23.8,29.25,SW,228,0.0,0.0,39,0.00,,FEW075,0.00,VWS V14.01,2013-05-06 07:48:00,
2013-05-06 00:49:00,47.5,23.2,29.25,SW,228,0.0,0.0,38,0.00,,FEW075,0.00,VWS V14.01,2013-05-06 07:49:00,
2013-05-06 00:50:00,47.7,23.3,29.25,SW,228,0.0,0.0,38,0.00,,FEW075,0.00,VWS V14.01,2013-05-06 07:50:00,
2013-05-06 00:51:00,46.0,22.5,29.25,SW,228,0.0,0.0,39,0.00,,CLR,0.00,VWS V14.01,2013-05-06 07:51:00,
2013-05-06 00:52:00,47.7,23.3,29.25,SW,228,0.0,0.0,38,0.00,,FEW075,0.00,VWS V14.01,2013-05-06 07:52:00,
2013-05-06 00:53:00,47.5,23.2,29.25,SW,228,0.0,0.0,38,0.00,,FEW075,0.00,VWS V14.01,2013-05-06 07:53:00,
2013-05-06 00:54:00,47.3,23.0,29.25,SW,228,0.0,0.0,38,0.00,,FEW075,0.00,VWS V14.01,2013-05-06 07:54:00,
2013-05-06 00:55:00,47.1,22.8,29.25,SW,228,0.0,0.0,38,0.00,,FEW075,0.00,VWS V14.01,2013-05-06 07:55:00,
2013-05-06 00:56:00,46.4,23.4,29.25,SW,228,0.0,0.0,40,0.00,,CLR,0.00,VWS V14.01,2013-05-06 07:56:00,
2013-05-06 00:57:00,46.8,22.5,29.25,SW,228,0.0,0.0,38,0.00,,FEW075,0.00,VWS V14.01,2013-05-06 07:57:00,
2013-05-06 00:58:00,46.8,22.5,29.25,SW,228,0.0,0.0,38,0.00,,FEW075,0.00,VWS V14.01,2013-05-06 07:58:00,
2013-05-06 00:59:00,46.6,22.4,29.25,SW,228,0.0,0.0,38,0.00,,FEW075,0.00,VWS V14.01,2013-05-06 07:59:00,
2013-05-06 01:00:00,46.4,22.8,29.25,SW,228,0.0,0.0,39,0.00,,FEW075,0.00,VWS V14.01,2013-05-06 08:00:00,
2013-05-06 01:01:00,46.4,23.4,29.25,SW,228,0.0,0.0,40,0.00,,CLR,0.00,VWS V14.01,2013-05-06 08:01:00,
2013-05-06 01:02:00,46.2,22.6,29.25,SW,228,0.0,0.0,39,0.00,,FEW075,0.00,VWS V14.01,2013-05-06 08:02:00,
2013-05-06 01:03:00,46.2,22.6,29.25,SW,228,0.0,0.0,39,0.00,,FEW075,0.00,VWS V14.01,2013-05-06 08:03:00,
2013-05-06 01:04:00,46.0,22.5,29.25,SW,228,0.0,0.0,39,0.00,,FEW075,0.00,VWS V14.01,2013-05-06 08:04:00,
2013-05-06 01:05:00,46.0,23.1,29.25,SW,228,0.0,0.0,40,0.00,,FEW075,0.00,VWS V14.01,2013-05-06 08:05:00,
2013-05-06 01:06:00,46.4,23.4,29.25,SW,228,0.0,0.0,40,0.00,,CLR,0.00,VWS V14.01,2013-05-06 08:06:00,
2013-05-06 01:07:00,46.0,23.1,29.25,SW,228,0.0,0.0,40,0.00,,FEW075,0.00,VWS V14.01,2013-05-06 08:07:00,
2013-05-06 01:08:00,46.2,23.2,29.25,SW,228,0.0,0.0,40,0.00,,FEW075,0.00,VWS V14.01,2013-05-06 08:08:00,
2013-05-06 01:09:00,46.4,23.4,29.25,SW,228,0.0,0.0,40,0.00,,FEW075,0.00,VWS V14.01,2013-05-06 08:09:00,
2013-05-06 01:10:00,46.8,23.7,29.25,SW,228,0.0,0.0,40,0.00,,CLR,0.00,VWS V14.01,2013-05-06 08:10:00,
2013-05-06 01:11:00,46.6,23.6,29.25,SW,228,0.0,0.0,40,0.00,,FEW075,0.00,VWS V14.01,2013-05-06 08:11:00,
2013-05-06 01:12:00,46.6,23.6,29.25,SW,228,0.0,0.0,40,0.00,,FEW075,0.00,VWS V14.01,2013-05-06 08:12:00,
2013-05-06 01:13:00,46.4,23.4,29.25,SW,228,0.0,0.0,40,0.00,,FEW075,0.00,VWS V14.01,2013-05-06 08:13:00,
2013-05-06 01:14:00,46.4,23.4,29.25,SW,228,0.0,0.0,40,0.00,,FEW075,0.00,VWS V14.01,2013-05-06 08:14:00,
2013-05-06 01:15:00,47.5,23.8,29.25,SW,228,0.0,0.0,39,0.00,,CLR,0.00,VWS V14.01,2013-05-06 08:15:00,
2013-05-06 01:16:00,46.4,22.8,29.25,SW,228,0.0,0.0,39,0.00,,FEW075,0.00,VWS V14.01,2013-05-06 08:16:00,
2013-05-06 01:17:00,46.2,23.2,29.25,SW,228,0.0,0.0,40,0.00,,FEW075,0.00,VWS V14.01,2013-05-06 08:17:00,
2013-05-06 01:18:00,46.4,22.8,29.25,SW,228,0.0,0.0,39,0.00,,FEW075,0.00,VWS V14.01,2013-05-06 08:18:00,
2013-05-06 01:19:00,46.4,23.4,29.25,SW,228,0.0,0.0,40,0.00,,FEW075,0.00,VWS V14.01,2013-05-06 08:19:00,
2013-05-06 01:20:00,47.7,23.9,29.25,SW,228,0.0,0.0,39,0.00,,CLR,0.00,VWS V14.01,2013-05-06 08:20:00,
2013-05-06 01:21:00,46.4,23.4,29.25,SW,228,0.0,0.0,40,0.00,,FEW075,0.00,VWS V14.01,2013-05-06 08:21:00,
2013-05-06 01:22:00,46.6,23.6,29.25,SW,228,0.0,0.0,40,0.00,,FEW075,0.00,VWS V14.01,2013-05-06 08:22:00,
2013-05-06 01:23:00,46.6,23.6,29.25,SW,228,0.0,0.0,40,0.00,,FEW075,0.00,VWS V14.01,2013-05-06 08:23:00,
2013-05-06 01:24:00,46.8,23.7,29.25,SW,228,0.0,0.0,40,0.00,,FEW075,0.00,VWS V14.01,2013-05-06 08:24:00,
2013-05-06 01:25:00,47.7,23.9,29.25,SW,228,0.0,0.0,39,0.00,,CLR,0.00,VWS V14.01,2013-05-06 08:25:00,
2013-05-06 01:26:00,47.1,23.5,29.25,SW,228,0.0,0.0,39,0.00,,FEW075,0.00,VWS V14.01,2013-05-06 08:26:00,
2013-05-06 01:27:00,47.3,23.6,29.25,SW,228,0.0,0.0,39,0.00,,FEW075,0.00,VWS V14.01,2013-05-06 08:27:00,
2013-05-06 01:28:00,47.3,23.6,29.25,SW,228,0.0,0.0,39,0.00,,FEW075,0.00,VWS V14.01,2013-05-06 08:28:00,
2013-05-06 01:29:00,47.5,23.8,29.25,SW,228,0.0,0.0,39,0.00,,FEW075,0.00,VWS V14.01,2013-05-06 08:29:00,
2013-05-06 01:30:00,47.8,24.1,29.25,SW,228,0.0,0.0,39,0.00,,CLR,0.00,VWS V14.01,2013-05-06 08:30:00,
2013-05-06 01:31:00,47.5,23.8,29.25,SW,228,0.0,0.0,39,0.00,,FEW075,0.00,VWS V14.01,2013-05-06 08:31:00,
2013-05-06 01:32:00,47.5,23.8,29.25,SW,228,0.0,0.0,39,0.00,,FEW075,0.00,VWS V14.01,2013-05-06 08:32:00,
2013-05-06 01:33:00,47.5,23.8,29.25,SW,228,0.0,0.0,39,0.00,,FEW075,0.00,VWS V14.01,2013-05-06 08:33:00,
2013-05-06 01:34:00,47.7,23.9,29.25,SW,228,0.0,0.0,39,0.00,,FEW075,0.00,VWS V14.01,2013-05-06 08:34:00,
2013-05-06 01:35:00,47.3,23.6,29.25,SW,228,0.0,0.0,39,0.00,,CLR,0.00,VWS V14.01,2013-05-06 08:35:00,
2013-05-06 01:36:00,47.7,23.9,29.25,SW,228,0.0,2.2,39,0.00,,FEW075,0.00,VWS V14.01,2013-05-06 08:36:00,
2013-05-06 01:37:00,47.7,23.9,29.25,SW,228,0.0,0.0,39,0.00,,FEW075,0.00,VWS V14.01,2013-05-06 08:37:00,
2013-05-06 01:38:00,47.7,24.5,29.25,SW,228,0.0,0.0,40,0.00,,FEW075,0.00,VWS V14.01,2013-05-06 08:38:00,
2013-05-06 01:39:00,47.7,23.9,29.25,SW,228,0.0,0.0,39,0.00,,FEW075,0.00,VWS V14.01,2013-05-06 08:39:00,
2013-05-06 01:40:00,46.9,23.9,29.25,SW,228,0.0,0.0,40,0.00,,CLR,0.00,VWS V14.01,2013-05-06 08:40:00,
2013-05-06 01:41:00,47.8,24.1,29.25,SW,228,0.0,0.0,39,0.00,,FEW075,0.00,VWS V14.01,2013-05-06 08:41:00,
2013-05-06 01:42:00,47.8,24.1,29.25,SW,228,0.0,0.0,39,0.00,,FEW075,0.00,VWS V14.01,2013-05-06 08:42:00,
2013-05-06 01:43:00,47.8,24.1,29.25,SW,228,0.0,0.0,39,0.00,,FEW075,0.00,VWS V14.01,2013-05-06 08:43:00,
2013-05-06 01:44:00,47.8,24.1,29.25,SW,228,0.0,0.0,39,0.00,,FEW075,0.00,VWS V14.01,2013-05-06 08:44:00,
2013-05-06 01:45:00,46.9,23.9,29.25,SW,228,0.0,0.0,40,0.00,,CLR,0.00,VWS V14.01,2013-05-06 08:45:00,
2013-05-06 01:46:00,47.7,23.9,29.25,SW,228,0.0,0.0,39,0.00,,FEW075,0.00,VWS V14.01,2013-05-06 08:46:00,
2013-05-06 01:47:00,47.5,23.8,29.25,SW,228,0.0,0.0,39,0.00,,FEW075,0.00,VWS V14.01,2013-05-06 08:47:00,
2013-05-06 01:48:00,47.5,23.8,29.25,SW,228,0.0,0.0,39,0.00,,FEW075,0.00,VWS V14.01,2013-05-06 08:48:00,
2013-05-06 01:49:00,47.3,23.6,29.25,SW,228,0.0,0.0,39,0.00,,FEW075,0.00,VWS V14.01,2013-05-06 08:49:00,
2013-05-06 01:50:00,47.1,24.1,29.25,SW,228,0.0,0.0,40,0.00,,CLR,0.00,VWS V14.01,2013-05-06 08:50:00,
2013-05-06 01:51:00,47.1,23.5,29.25,SW,228,0.0,0.0,39,0.00,,FEW075,0.00,VWS V14.01,2013-05-06 08:51:00,
2013-05-06 01:52:00,46.9,23.3,29.25,SW,228,0.0,0.0,39,0.00,,FEW075,0.00,VWS V14.01,2013-05-06 08:52:00,
2013-05-06 01:53:00,46.9,23.9,29.25,SW,228,0.0,0.0,40,0.00,,FEW075,0.00,VWS V14.01,2013-05-06 08:53:00,
2013-05-06 01:54:00,46.9,23.9,29.25,SW,228,0.0,0.0,40,0.00,,FEW075,0.00,VWS V14.01,2013-05-06 08:54:00,
2013-05-06 01:55:00,47.5,24.4,29.25,SSW,192,0.0,0.0,40,0.00,,CLR,0.00,VWS V14.01,2013-05-06 08:55:00,
2013-05-06 01:56:00,46.9,23.9,29.25,SW,228,0.0,0.0,40,0.00,,FEW075,0.00,VWS V14.01,2013-05-06 08:56:00,
2013-05-06 01:57:00,46.9,23.9,29.25,SW,228,0.0,0.0,40,0.00,,FEW075,0.00,VWS V14.01,2013-05-06 08:57:00,
2013-05-06 01:58:00,46.9,23.9,29.25,SW,228,0.0,0.0,40,0.00,,FEW075,0.00,VWS V14.01,2013-05-06 08:58:00,
2013-05-06 01:59:00,46.8,23.7,29.25,SW,228,0.0,0.0,40,0.00,,FEW075,0.00,VWS V14.01,2013-05-06 08:59:00,
2013-05-06 02:00:00,47.7,23.9,29.25,South,191,0.0,0.0,39,0.00,,CLR,0.00,VWS V14.01,2013-05-06 09:00:00,
2013-05-06 02:01:00,46.9,24.5,29.25,SW,228,0.0,0.0,41,0.00,,FEW075,0.00,VWS V14.01,2013-05-06 09:01:00,
2013-05-06 02:02:00,47.1,24.1,29.25,SW,228,0.0,0.0,40,0.00,,FEW075,0.00,VWS V14.01,2013-05-06 09:02:00,
2013-05-06 02:03:00,47.1,24.1,29.25,SW,228,0.0,0.0,40,0.00,,FEW075,0.00,VWS V14.01,2013-05-06 09:03:00,
2013-05-06 02:04:00,47.1,24.1,29.25,SW,228,0.0,0.0,40,0.00,,FEW075,0.00,VWS V14.01,2013-05-06 09:04:00,
2013-05-06 02:05:00,47.8,24.1,29.25,SSW,193,2.2,2.2,39,0.00,,CLR,0.00,VWS V14.01,2013-05-06 09:05:00,
2013-05-06 02:06:00,47.3,24.2,29.25,SSW,192,0.0,2.7,40,0.00,,FEW075,0.00,VWS V14.01,2013-05-06 09:06:00,
2013-05-06 02:07:00,47.5,24.4,29.25,SSW,192,0.0,0.0,40,0.00,,FEW075,0.00,VWS V14.01,2013-05-06 09:07:00,
2013-05-06 02:08:00,47.5,24.4,29.25,SSW,192,0.0,0.0,40,0.00,,FEW075,0.00,VWS V14.01,2013-05-06 09:08:00,
2013-05-06 02:09:00,47.5,24.4,29.25,South,191,0.0,0.0,40,0.00,,FEW075,0.00,VWS V14.01,2013-05-06 09:09:00,
2013-05-06 02:10:00,48.0,24.3,29.25,SSW,192,0.0,0.0,39,0.00,,CLR,0.00,VWS V14.01,2013-05-06 09:10:00,
2013-05-06 02:11:00,47.7,23.9,29.25,South,191,0.0,0.0,39,0.00,,FEW075,0.00,VWS V14.01,2013-05-06 09:11:00,
2013-05-06 02:12:00,47.7,24.5,29.25,South,191,0.0,0.0,40,0.00,,FEW075,0.00,VWS V14.01,2013-05-06 09:12:00,
2013-05-06 02:13:00,47.7,24.5,29.25,South,191,0.0,0.0,40,0.00,,FEW075,0.00,VWS V14.01,2013-05-06 09:13:00,
2013-05-06 02:14:00,47.7,23.9,29.25,South,191,0.0,0.0,39,0.00,,FEW075,0.00,VWS V14.01,2013-05-06 09:14:00,
2013-05-06 02:15:00,47.7,23.9,29.25,SW,224,4.0,4.0,39,0.00,,CLR,0.00,VWS V14.01,2013-05-06 09:15:00,
2013-05-06 02:16:00,47.8,24.1,29.25,SSW,192,0.0,0.0,39,0.00,,FEW075,0.00,VWS V14.01,2013-05-06 09:16:00,
2013-05-06 02:17:00,47.8,24.1,29.25,SSW,192,0.0,0.0,39,0.00,,FEW075,0.00,VWS V14.01,2013-05-06 09:17:00,
2013-05-06 02:18:00,47.8,24.1,29.25,SSW,192,0.0,0.0,39,0.00,,FEW075,0.00,VWS V14.01,2013-05-06 09:18:00,
2013-05-06 02:19:00,47.8,24.1,29.25,SSW,192,2.7,2.7,39,0.00,,FEW075,0.00,VWS V14.01,2013-05-06 09:19:00,
2013-05-06 02:20:00,47.1,23.5,29.25,SW,225,3.1,3.6,39,0.00,,CLR,0.00,VWS V14.01,2013-05-06 09:20:00,
2013-05-06 02:21:00,47.8,24.1,29.25,SSW,192,0.0,0.0,39,0.00,,FEW075,0.00,VWS V14.01,2013-05-06 09:21:00,
2013-05-06 02:22:00,47.8,24.1,29.25,SSW,192,0.0,0.0,39,0.00,,FEW075,0.00,VWS V14.01,2013-05-06 09:22:00,
2013-05-06 02:23:00,48.0,24.3,29.25,SSW,192,0.0,0.0,39,0.00,,FEW075,0.00,VWS V14.01,2013-05-06 09:23:00,
2013-05-06 02:24:00,48.0,24.3,29.25,SSW,192,0.0,0.0,39,0.00,,FEW075,0.00,VWS V14.01,2013-05-06 09:24:00,
2013-05-06 02:25:00,46.8,23.1,29.25,SW,225,0.0,0.0,39,0.00,,CLR,0.00,VWS V14.01,2013-05-06 09:25:00,
2013-05-06 02:26:00,48.0,24.3,29.25,SSW,192,0.0,0.0,39,0.00,,FEW075,0.00,VWS V14.01,2013-05-06 09:26:00,
2013-05-06 02:27:00,47.8,24.1,29.25,SSW,202,3.1,3.1,39,0.00,,FEW075,0.00,VWS V14.01,2013-05-06 09:27:00,
2013-05-06 02:28:00,47.7,23.9,29.25,SSW,209,2.7,3.1,39,0.00,,FEW075,0.00,VWS V14.01,2013-05-06 09:28:00,
2013-05-06 02:29:00,47.7,23.9,29.25,SW,225,4.0,4.0,39,0.00,,FEW075,0.00,VWS V14.01,2013-05-06 09:29:00,
2013-05-06 02:30:00,46.6,23.0,29.25,SW,225,0.0,0.0,39,0.00,,CLR,0.00,VWS V14.01,2013-05-06 09:30:00,
2013-05-06 02:31:00,47.3,23.6,29.25,SW,229,3.6,3.6,39,0.00,,FEW075,0.00,VWS V14.01,2013-05-06 09:31:00,
2013-05-06 02:32:00,47.3,23.6,29.25,SW,232,3.1,3.6,39,0.00,,FEW075,0.00,VWS V14.01,2013-05-06 09:32:00,
2013-05-06 02:33:00,47.1,23.5,29.25,SW,229,3.1,3.6,39,0.00,,FEW075,0.00,VWS V14.01,2013-05-06 09:33:00,
2013-05-06 02:34:00,47.1,23.5,29.25,SW,225,2.7,3.6,39,0.00,,FEW075,0.00,VWS V14.01,2013-05-06 09:34:00,
2013-05-06 02:35:00,46.9,23.3,29.25,SW,225,0.0,0.0,39,0.00,,CLR,0.00,VWS V14.01,2013-05-06 09:35:00,
2013-05-06 02:36:00,46.9,23.3,29.25,SW,225,2.2,2.7,39,0.00,,FEW075,0.00,VWS V14.01,2013-05-06 09:36:00,
2013-05-06 02:37:00,46.9,23.3,29.25,SW,225,0.0,2.2,39,0.00,,FEW075,0.00,VWS V14.01,2013-05-06 09:37:00,
2013-05-06 02:38:00,46.8,23.7,29.25,SW,225,0.0,0.0,40,0.00,,FEW075,0.00,VWS V14.01,2013-05-06 09:38:00,
2013-05-06 02:39:00,46.8,23.1,29.25,SW,225,0.0,0.0,39,0.00,,FEW075,0.00,VWS V14.01,2013-05-06 09:39:00,
2013-05-06 02:40:00,46.9,23.3,29.25,SW,225,0.0,0.0,39,0.00,,CLR,0.00,VWS V14.01,2013-05-06 09:40:00,
2013-05-06 02:41:00,46.6,23.0,29.25,SW,225,0.0,0.0,39,0.00,,FEW075,0.00,VWS V14.01,2013-05-06 09:41:00,
2013-05-06 02:42:00,46.4,22.8,29.25,SW,225,0.0,0.0,39,0.00,,FEW075,0.00,VWS V14.01,2013-05-06 09:42:00,
2013-05-06 02:43:00,46.4,22.8,29.25,SW,225,0.0,0.0,39,0.00,,FEW075,0.00,VWS V14.01,2013-05-06 09:43:00,
2013-05-06 02:44:00,46.6,23.0,29.25,SW,225,0.0,0.0,39,0.00,,FEW075,0.00,VWS V14.01,2013-05-06 09:44:00,
2013-05-06 02:45:00,46.4,22.8,29.25,SW,225,2.7,2.7,39,0.00,,CLR,0.00,VWS V14.01,2013-05-06 09:45:00,
2013-05-06 02:46:00,46.8,23.1,29.25,SW,225,0.0,0.0,39,0.00,,FEW075,0.00,VWS V14.01,2013-05-06 09:46:00,
2013-05-06 02:47:00,46.8,23.1,29.25,SW,225,0.0,0.0,39,0.00,,FEW075,0.00,VWS V14.01,2013-05-06 09:47:00,
2013-05-06 02:48:00,46.9,23.3,29.25,SW,225,0.0,0.0,39,0.00,,FEW075,0.00,VWS V14.01,2013-05-06 09:48:00,
2013-05-06 02:49:00,46.9,23.3,29.25,SW,225,0.0,0.0,39,0.00,,FEW075,0.00,VWS V14.01,2013-05-06 09:49:00,
2013-05-06 02:50:00,46.2,23.2,29.25,SW,225,2.7,3.1,40,0.00,,CLR,0.00,VWS V14.01,2013-05-06 09:50:00,
2013-05-06 02:51:00,46.9,23.3,29.25,SW,225,0.0,0.0,39,0.00,,FEW075,0.00,VWS V14.01,2013-05-06 09:51:00,
2013-05-06 02:52:00,46.9,23.3,29.25,SW,225,0.0,0.0,39,0.00,,FEW075,0.00,VWS V14.01,2013-05-06 09:52:00,
2013-05-06 02:53:00,46.9,23.3,29.25,SW,225,0.0,0.0,39,0.00,,FEW075,0.00,VWS V14.01,2013-05-06 09:53:00,
2013-05-06 02:54:00,46.9,23.3,29.25,SW,225,0.0,0.0,39,0.00,,FEW075,0.00,VWS V14.01,2013-05-06 09:54:00,
2013-05-06 02:55:00,46.0,22.5,29.25,SW,225,2.2,2.7,39,0.00,,CLR,0.00,VWS V14.01,2013-05-06 09:55:00,
2013-05-06 02:56:00,46.8,23.1,29.25,SW,225,0.0,0.0,39,0.00,,FEW075,0.00,VWS V14.01,2013-05-06 09:56:00,
2013-05-06 02:57:00,46.6,23.0,29.25,SW,225,0.0,0.0,39,0.00,,FEW075,0.00,VWS V14.01,2013-05-06 09:57:00,
2013-05-06 02:58:00,46.6,23.0,29.25,SW,225,2.7,2.7,39,0.00,,FEW075,0.00,VWS V14.01,2013-05-06 09:58:00,
2013-05-06 02:59:00,46.4,22.8,29.25,SW,225,2.7,2.7,39,0.00,,FEW075,0.00,VWS V14.01,2013-05-06 09:59:00,
2013-05-06 03:00:00,45.9,22.3,29.25,SW,225,0.0,0.0,39,0.00,,CLR,0.00,VWS V14.01,2013-05-06 10:00:00,
2013-05-06 03:01:00,46.4,22.8,29.25,SW,225,2.7,3.1,39,0.00,,FEW075,0.00,VWS V14.01,2013-05-06 10:01:00,
2013-05-06 03:02:00,46.4,22.8,29.25,SW,225,2.2,3.1,39,0.00,,FEW075,0.00,VWS V14.01,2013-05-06 10:02:00,
2013-05-06 03:03:00,46.2,22.6,29.25,SW,225,2.7,2.7,39,0.00,,FEW075,0.00,VWS V14.01,2013-05-06 10:03:00,
2013-05-06 03:04:00,46.2,23.2,29.25,SW,225,2.2,3.1,40,0.00,,FEW075,0.00,VWS V14.01,2013-05-06 10:04:00,
2013-05-06 03:05:00,45.3,22.4,29.25,SW,225,2.7,2.7,40,0.00,,CLR,0.00,VWS V14.01,2013-05-06 10:05:00,
2013-05-06 03:06:00,46.2,22.6,29.25,SW,225,0.0,0.0,39,0.00,,FEW075,0.00,VWS V14.01,2013-05-06 10:06:00,
2013-05-06 03:07:00,46.0,22.5,29.25,SW,225,0.0,0.0,39,0.00,,FEW075,0.00,VWS V14.01,2013-05-06 10:07:00,
2013-05-06 03:08:00,46.0,22.5,29.25,SW,225,2.7,2.7,39,0.00,,FEW075,0.00,VWS V14.01,2013-05-06 10:08:00,
2013-05-06 03:09:00,46.0,22.5,29.25,SW,225,0.0,2.7,39,0.00,,FEW075,0.00,VWS V14.01,2013-05-06 10:09:00,
2013-05-06 03:10:00,44.4,22.2,29.25,SW,225,2.7,2.7,41,0.00,,CLR,0.00,VWS V14.01,2013-05-06 10:10:00,
2013-05-06 03:11:00,46.0,22.5,29.25,SW,225,0.0,0.0,39,0.00,,FEW075,0.00,VWS V14.01,2013-05-06 10:11:00,
2013-05-06 03:12:00,46.0,22.5,29.25,SW,225,0.0,0.0,39,0.00,,FEW075,0.00,VWS V14.01,2013-05-06 10:12:00,
2013-05-06 03:13:00,45.9,22.3,29.25,SW,225,0.0,0.0,39,0.00,,FEW075,0.00,VWS V14.01,2013-05-06 10:13:00,
2013-05-06 03:14:00,45.9,22.3,29.25,SW,225,0.0,0.0,39,0.00,,FEW075,0.00,VWS V14.01,2013-05-06 10:14:00,
2013-05-06 03:15:00,43.9,21.7,29.25,SW,225,0.0,0.0,41,0.00,,CLR,0.00,VWS V14.01,2013-05-06 10:15:00,
2013-05-06 03:16:00,45.5,22.6,29.25,SW,225,0.0,0.0,40,0.00,,FEW075,0.00,VWS V14.01,2013-05-06 10:16:00,
2013-05-06 03:17:00,45.3,22.4,29.25,SW,225,0.0,0.0,40,0.00,,FEW075,0.00,VWS V14.01,2013-05-06 10:17:00,
2013-05-06 03:18:00,45.3,22.4,29.25,SW,225,0.0,0.0,40,0.00,,FEW075,0.00,VWS V14.01,2013-05-06 10:18:00,
2013-05-06 03:19:00,45.1,22.3,29.25,SW,225,3.1,3.1,40,0.00,,FEW075,0.00,VWS V14.01,2013-05-06 10:19:00,
2013-05-06 03:20:00,43.7,22.1,29.25,SW,225,0.0,0.0,42,0.00,,CLR,0.00,VWS V14.01,2013-05-06 10:20:00,
2013-05-06 03:21:00,44.8,22.0,29.25,SW,225,0.0,2.2,40,0.00,,FEW075,0.00,VWS V14.01,2013-05-06 10:21:00,
2013-05-06 03:22:00,44.6,21.8,29.25,SW,225,2.2,2.7,40,0.00,,FEW075,0.00,VWS V14.01,2013-05-06 10:22:00,
2013-05-06 03:23:00,44.6,21.8,29.25,SW,225,2.7,2.7,40,0.00,,FEW075,0.00,VWS V14.01,2013-05-06 10:23:00,
2013-05-06 03:24:00,44.2,22.0,29.25,SW,225,2.2,2.7,41,0.00,,FEW075,0.00,VWS V14.01,2013-05-06 10:24:00,
2013-05-06 03:25:00,43.5,22.5,29.25,SW,225,0.0,0.0,43,0.00,,CLR,0.00,VWS V14.01,2013-05-06 10:25:00,
2013-05-06 03:26:00,44.1,21.9,29.25,SW,225,0.0,2.2,41,0.00,,FEW075,0.00,VWS V14.01,2013-05-06 10:26:00,
2013-05-06 03:27:00,44.1,21.9,29.25,SW,225,0.0,0.0,41,0.00,,FEW075,0.00,VWS V14.01,2013-05-06 10:27:00,
2013-05-06 03:28:00,43.9,21.7,29.25,SW,225,0.0,0.0,41,0.00,,FEW075,0.00,VWS V14.01,2013-05-06 10:28:00,
2013-05-06 03:29:00,43.7,21.6,29.25,SW,225,0.0,0.0,41,0.00,,FEW075,0.00,VWS V14.01,2013-05-06 10:29:00,
2013-05-06 03:30:00,43.3,22.4,29.25,SW,225,2.2,2.7,43,0.00,,CLR,0.00,VWS V14.01,2013-05-06 10:30:00,
2013-05-06 03:31:00,43.7,22.1,29.25,SW,225,0.0,0.0,42,0.00,,FEW075,0.00,VWS V14.01,2013-05-06 10:31:00,
2013-05-06 03:32:00,43.7,22.1,29.25,SW,225,0.0,0.0,42,0.00,,FEW075,0.00,VWS V14.01,2013-05-06 10:32:00,
2013-05-06 03:33:00,43.7,22.1,29.25,SW,225,0.0,0.0,42,0.00,,FEW075,0.00,VWS V14.01,2013-05-06 10:33:00,
2013-05-06 03:34:00,43.5,22.0,29.25,SW,225,0.0,0.0,42,0.00,,FEW075,0.00,VWS V14.01,2013-05-06 10:34:00,
2013-05-06 03:35:00,43.0,22.0,29.25,SW,225,2.2,2.2,43,0.00,,CLR,0.00,VWS V14.01,2013-05-06 10:35:00,
2013-05-06 03:36:00,43.5,22.0,29.25,SW,225,0.0,0.0,42,0.00,,FEW075,0.00,VWS V14.01,2013-05-06 10:36:00,
2013-05-06 03:37:00,43.5,22.5,29.25,SW,225,0.0,0.0,43,0.00,,FEW075,0.00,VWS V14.01,2013-05-06 10:37:00,
2013-05-06 03:38:00,43.5,22.5,29.25,SW,225,0.0,0.0,43,0.00,,FEW075,0.00,VWS V14.01,2013-05-06 10:38:00,
2013-05-06 03:39:00,43.5,22.5,29.25,SW,225,0.0,0.0,43,0.00,,FEW075,0.00,VWS V14.01,2013-05-06 10:39:00,
2013-05-06 03:40:00,42.6,22.2,29.25,SW,225,0.0,0.0,44,0.00,,CLR,0.00,VWS V14.01,2013-05-06 10:40:00,
2013-05-06 03:41:00,43.5,22.5,29.25,SW,225,2.2,2.7,43,0.00,,FEW075,0.00,VWS V14.01,2013-05-06 10:41:00,
2013-05-06 03:42:00,43.3,22.4,29.25,SW,225,2.7,2.7,43,0.00,,FEW075,0.00,VWS V14.01,2013-05-06 10:42:00,
2013-05-06 03:43:00,43.3,22.4,29.25,SW,225,2.7,3.1,43,0.00,,FEW075,0.00,VWS V14.01,2013-05-06 10:43:00,
2013-05-06 03:44:00,43.3,22.4,29.25,SW,225,2.2,2.7,43,0.00,,FEW075,0.00,VWS V14.01,2013-05-06 10:44:00,
2013-05-06 03:45:00,42.4,23.1,29.25,SW,225,0.0,0.0,46,0.00,,CLR,0.00,VWS V14.01,2013-05-06 10:45:00,
2013-05-06 03:46:00,43.2,22.2,29.25,SW,225,0.0,2.2,43,0.00,,FEW075,0.00,VWS V14.01,2013-05-06 10:46:00,
2013-05-06 03:47:00,43.2,22.7,29.25,SW,225,2.2,2.2,44,0.00,,FEW075,0.00,VWS V14.01,2013-05-06 10:47:00,
2013-05-06 03:48:00,43.0,22.0,29.25,SW,225,2.2,2.2,43,0.00,,FEW075,0.00,VWS V14.01,2013-05-06 10:48:00,
2013-05-06 03:49:00,42.8,21.9,29.25,SW,225,2.2,2.2,43,0.00,,FEW075,0.00,VWS V14.01,2013-05-06 10:49:00,
2013-05-06 03:50:00,42.4,23.1,29.25,SW,225,0.0,0.0,46,0.00,,CLR,0.00,VWS V14.01,2013-05-06 10:50:00,
2013-05-06 03:51:00,42.8,23.0,29.25,SW,225,0.0,2.2,45,0.00,,FEW075,0.00,VWS V14.01,2013-05-06 10:51:00,
2013-05-06 03:52:00,42.8,23.0,29.25,SW,225,0.0,0.0,45,0.00,,FEW075,0.00,VWS V14.01,2013-05-06 10:52:00,
2013-05-06 03:53:00,42.8,22.4,29.25,SW,225,0.0,0.0,44,0.00,,FEW075,0.00,VWS V14.01,2013-05-06 10:53:00,
2013-05-06 03:54:00,42.6,22.2,29.25,SW,225,0.0,0.0,44,0.00,,FEW075,0.00,VWS V14.01,2013-05-06 10:54:00,
2013-05-06 03:55:00,42.1,22.8,29.25,SW,225,0.0,0.0,46,0.00,,CLR,0.00,VWS V14.01,2013-05-06 10:55:00,
2013-05-06 03:56:00,42.4,22.1,29.25,SW,225,0.0,0.0,44,0.00,,FEW075,0.00,VWS V14.01,2013-05-06 10:56:00,
2013-05-06 03:57:00,42.4,22.1,29.25,SW,225,0.0,0.0,44,0.00,,FEW075,0.00,VWS V14.01,2013-05-06 10:57:00,
2013-05-06 03:58:00,42.3,22.5,29.25,SW,225,0.0,0.0,45,0.00,,FEW075,0.00,VWS V14.01,2013-05-06 10:58:00,
2013-05-06 03:59:00,42.4,23.1,29.25,SW,225,0.0,0.0,46,0.00,,FEW075,0.00,VWS V14.01,2013-05-06 10:59:00,
2013-05-06 04:00:00,42.1,23.3,29.25,SW,225,0.0,0.0,47,0.00,,CLR,0.00,VWS V14.01,2013-05-06 11:00:00,
2013-05-06 04:01:00,42.6,23.8,29.25,SW,225,0.0,0.0,47,0.00,,FEW075,0.00,VWS V14.01,2013-05-06 11:01:00,
2013-05-06 04:02:00,42.6,23.3,29.25,SW,225,0.0,0.0,46,0.00,,FEW075,0.00,VWS V14.01,2013-05-06 11:02:00,
2013-05-06 04:03:00,42.4,23.1,29.25,SW,225,0.0,0.0,46,0.00,,FEW075,0.00,VWS V14.01,2013-05-06 11:03:00,
2013-05-06 04:04:00,42.4,23.1,29.25,SW,225,0.0,0.0,46,0.00,,FEW075,0.00,VWS V14.01,2013-05-06 11:04:00,
2013-05-06 04:05:00,41.7,23.5,29.25,SW,225,0.0,0.0,48,0.00,,CLR,0.00,VWS V14.01,2013-05-06 11:05:00,
2013-05-06 04:06:00,42.3,22.5,29.25,SW,225,0.0,0.0,45,0.00,,FEW075,0.00,VWS V14.01,2013-05-06 11:06:00,
2013-05-06 04:07:00,42.3,23.0,29.25,SW,225,0.0,0.0,46,0.00,,FEW075,0.00,VWS V14.01,2013-05-06 11:07:00,
2013-05-06 04:08:00,42.3,23.5,29.25,SW,225,0.0,0.0,47,0.00,,FEW075,0.00,VWS V14.01,2013-05-06 11:08:00,
2013-05-06 04:09:00,42.1,22.8,29.25,SW,225,0.0,0.0,46,0.00,,FEW075,0.00,VWS V14.01,2013-05-06 11:09:00,
2013-05-06 04:10:00,41.5,23.3,29.25,SW,225,0.0,0.0,48,0.00,,CLR,0.00,VWS V14.01,2013-05-06 11:10:00,
2013-05-06 04:11:00,42.1,22.8,29.25,SW,225,0.0,0.0,46,0.00,,FEW075,0.00,VWS V14.01,2013-05-06 11:11:00,
2013-05-06 04:12:00,42.1,22.8,29.25,SW,225,2.7,2.7,46,0.00,,FEW075,0.00,VWS V14.01,2013-05-06 11:12:00,
2013-05-06 04:13:00,41.9,23.2,29.25,SW,225,0.0,2.7,47,0.00,,FEW075,0.00,VWS V14.01,2013-05-06 11:13:00,
2013-05-06 04:14:00,41.9,22.6,29.25,SW,225,2.7,2.7,46,0.00,,FEW075,0.00,VWS V14.01,2013-05-06 11:14:00,
2013-05-06 04:15:00,41.4,23.2,29.25,SW,225,0.0,0.0,48,0.00,,CLR,0.00,VWS V14.01,2013-05-06 11:15:00,
2013-05-06 04:16:00,41.9,22.6,29.25,SW,225,0.0,2.2,46,0.00,,FEW075,0.00,VWS V14.01,2013-05-06 11:16:00,
2013-05-06 04:17:00,41.7,22.5,29.25,SW,225,0.0,0.0,46,0.00,,FEW075,0.00,VWS V14.01,2013-05-06 11:17:00,
2013-05-06 04:18:00,41.5,23.3,29.25,SW,225,0.0,0.0,48,0.00,,FEW075,0.00,VWS V14.01,2013-05-06 11:18:00,
2013-05-06 04:19:00,41.7,23.5,29.25,SW,225,0.0,0.0,48,0.00,,FEW075,0.00,VWS V14.01,2013-05-06 11:19:00,
2013-05-06 04:20:00,41.7,24.0,29.25,SW,225,0.0,0.0,49,0.00,,CLR,0.00,VWS V14.01,2013-05-06 11:20:00,
2013-05-06 04:21:00,41.5,23.3,29.25,SW,225,0.0,0.0,48,0.00,,FEW075,0.00,VWS V14.01,2013-05-06 11:21:00,
2013-05-06 04:22:00,41.5,23.3,29.25,SW,225,0.0,0.0,48,0.00,,FEW075,0.00,VWS V14.01,2013-05-06 11:22:00,
2013-05-06 04:23:00,41.5,23.3,29.25,SW,225,0.0,0.0,48,0.00,,FEW075,0.00,VWS V14.01,2013-05-06 11:23:00,
2013-05-06 04:24:00,41.5,23.3,29.25,SW,225,0.0,0.0,48,0.00,,FEW075,0.00,VWS V14.01,2013-05-06 11:24:00,
2013-05-06 04:25:00,41.7,23.5,29.25,SW,225,0.0,0.0,48,0.00,,CLR,0.00,VWS V14.01,2013-05-06 11:25:00,
2013-05-06 04:26:00,41.5,23.3,29.25,SW,225,0.0,2.2,48,0.00,,FEW075,0.00,VWS V14.01,2013-05-06 11:26:00,
2013-05-06 04:27:00,41.5,23.3,29.25,SW,225,0.0,0.0,48,0.00,,FEW075,0.00,VWS V14.01,2013-05-06 11:27:00,
2013-05-06 04:28:00,41.4,23.2,29.25,SW,225,0.0,0.0,48,0.00,,FEW075,0.00,VWS V14.01,2013-05-06 11:28:00,
2013-05-06 04:29:00,41.5,23.3,29.25,SW,225,0.0,0.0,48,0.00,,FEW075,0.00,VWS V14.01,2013-05-06 11:29:00,
2013-05-06 04:30:00,41.2,22.5,29.25,SW,225,0.0,0.0,47,0.00,,CLR,0.00,VWS V14.01,2013-05-06 11:30:00,
2013-05-06 04:31:00,41.5,23.8,29.25,SW,225,0.0,0.0,49,0.00,,FEW075,0.00,VWS V14.01,2013-05-06 11:31:00,
2013-05-06 04:32:00,41.7,24.0,29.25,SW,225,0.0,0.0,49,0.00,,FEW075,0.00,VWS V14.01,2013-05-06 11:32:00,
2013-05-06 04:33:00,41.7,24.0,29.25,SW,225,0.0,0.0,49,0.00,,FEW075,0.00,VWS V14.01,2013-05-06 11:33:00,
2013-05-06 04:34:00,41.7,24.0,29.25,SW,225,0.0,0.0,49,0.00,,FEW075,0.00,VWS V14.01,2013-05-06 11:34:00,
2013-05-06 04:35:00,41.0,22.8,29.25,SW,225,0.0,0.0,48,0.00,,CLR,0.00,VWS V14.01,2013-05-06 11:35:00,
2013-05-06 04:36:00,41.7,24.0,29.25,SW,225,2.7,2.7,49,0.00,,FEW075,0.00,VWS V14.01,2013-05-06 11:36:00,
2013-05-06 04:37:00,41.7,24.0,29.25,SW,225,2.7,2.7,49,0.00,,FEW075,0.00,VWS V14.01,2013-05-06 11:37:00,
2013-05-06 04:38:00,41.7,23.5,29.25,SW,225,0.0,2.7,48,0.00,,FEW075,0.00,VWS V14.01,2013-05-06 11:38:00,
2013-05-06 04:39:00,41.7,23.5,29.25,SW,225,0.0,0.0,48,0.00,,FEW075,0.00,VWS V14.01,2013-05-06 11:39:00,
2013-05-06 04:40:00,41.0,22.8,29.25,SW,225,0.0,0.0,48,0.00,,CLR,0.00,VWS V14.01,2013-05-06 11:40:00,
2013-05-06 04:41:00,41.2,22.5,29.25,SW,225,0.0,0.0,47,0.00,,FEW075,0.00,VWS V14.01,2013-05-06 11:41:00,
2013-05-06 04:42:00,41.2,22.5,29.25,SW,225,0.0,0.0,47,0.00,,FEW075,0.00,VWS V14.01,2013-05-06 11:42:00,
2013-05-06 04:43:00,41.2,22.5,29.25,SW,225,0.0,0.0,47,0.00,,FEW075,0.00,VWS V14.01,2013-05-06 11:43:00,
2013-05-06 04:44:00,41.0,22.3,29.25,SW,225,0.0,0.0,47,0.00,,FEW075,0.00,VWS V14.01,2013-05-06 11:44:00,
2013-05-06 04:45:00,40.6,23.0,29.25,SW,225,0.0,0.0,49,0.00,,CLR,0.00,VWS V14.01,2013-05-06 11:45:00,
2013-05-06 04:46:00,41.0,22.3,29.25,SW,225,0.0,0.0,47,0.00,,FEW075,0.00,VWS V14.01,2013-05-06 11:46:00,
2013-05-06 04:47:00,41.0,22.3,29.25,SW,225,0.0,0.0,47,0.00,,FEW075,0.00,VWS V14.01,2013-05-06 11:47:00,
2013-05-06 04:48:00,41.0,22.8,29.25,SW,225,0.0,0.0,48,0.00,,FEW075,0.00,VWS V14.01,2013-05-06 11:48:00,
2013-05-06 04:49:00,41.0,22.8,29.25,SW,225,0.0,0.0,48,0.00,,FEW075,0.00,VWS V14.01,2013-05-06 11:49:00,
2013-05-06 04:50:00,40.5,23.8,29.25,SW,225,0.0,0.0,51,0.00,,CLR,0.00,VWS V14.01,2013-05-06 11:50:00,
2013-05-06 04:51:00,41.0,22.8,29.25,SW,225,0.0,0.0,48,0.00,,FEW075,0.00,VWS V14.01,2013-05-06 11:51:00,
2013-05-06 04:52:00,41.0,22.8,29.25,SW,225,0.0,0.0,48,0.00,,FEW075,0.00,VWS V14.01,2013-05-06 11:52:00,
2013-05-06 04:53:00,41.0,22.8,29.25,SW,225,0.0,0.0,48,0.00,,FEW075,0.00,VWS V14.01,2013-05-06 11:53:00,
2013-05-06 04:54:00,41.0,22.8,29.25,SW,225,0.0,0.0,48,0.00,,FEW075,0.00,VWS V14.01,2013-05-06 11:54:00,
2013-05-06 04:55:00,40.5,23.8,29.25,SW,225,0.0,0.0,51,0.00,,CLR,0.00,VWS V14.01,2013-05-06 11:55:00,
2013-05-06 04:56:00,40.8,23.1,29.25,SW,225,0.0,0.0,49,0.00,,FEW075,0.00,VWS V14.01,2013-05-06 11:56:00,
2013-05-06 04:57:00,40.6,23.0,29.25,SW,225,0.0,0.0,49,0.00,,FEW075,0.00,VWS V14.01,2013-05-06 11:57:00,
2013-05-06 04:58:00,40.6,23.0,29.25,SW,225,0.0,0.0,49,0.00,,FEW075,0.00,VWS V14.01,2013-05-06 11:58:00,
2013-05-06 04:59:00,40.6,23.0,29.25,SW,225,0.0,0.0,49,0.00,,FEW075,0.00,VWS V14.01,2013-05-06 11:59:00,
2013-05-06 05:00:00,40.3,23.1,29.25,SW,225,0.0,0.0,50,0.00,,CLR,0.00,VWS V14.01,2013-05-06 12:00:00,
2013-05-06 05:01:00,40.5,22.8,29.25,SW,225,0.0,0.0,49,0.00,,FEW075,0.00,VWS V14.01,2013-05-06 12:01:00,
2013-05-06 05:02:00,40.5,22.8,29.25,SW,225,0.0,0.0,49,0.00,,FEW075,0.00,VWS V14.01,2013-05-06 12:02:00,
2013-05-06 05:03:00,40.5,23.3,29.25,SW,225,0.0,0.0,50,0.00,,FEW075,0.00,VWS V14.01,2013-05-06 12:03:00,
2013-05-06 05:04:00,40.5,23.8,29.25,SW,225,0.0,0.0,51,0.00,,FEW075,0.00,VWS V14.01,2013-05-06 12:04:00,
2013-05-06 05:05:00,39.7,22.6,29.25,SW,225,2.2,2.2,50,0.00,,CLR,0.00,VWS V14.01,2013-05-06 12:05:00,
2013-05-06 05:06:00,40.5,23.8,29.25,SW,225,0.0,0.0,51,0.00,,FEW075,0.00,VWS V14.01,2013-05-06 12:06:00,
2013-05-06 05:07:00,40.5,23.8,29.25,SW,225,0.0,0.0,51,0.00,,FEW075,0.00,VWS V14.01,2013-05-06 12:07:00,
2013-05-06 05:08:00,40.5,23.8,29.25,SW,225,0.0,0.0,51,0.00,,FEW075,0.00,VWS V14.01,2013-05-06 12:08:00,
2013-05-06 05:09:00,40.5,23.8,29.25,SW,225,0.0,0.0,51,0.00,,FEW075,0.00,VWS V14.01,2013-05-06 12:09:00,
2013-05-06 05:10:00,39.7,23.1,29.25,SW,225,0.0,0.0,51,0.00,,CLR,0.00,VWS V14.01,2013-05-06 12:10:00,
2013-05-06 05:11:00,40.5,23.8,29.25,SW,225,0.0,0.0,51,0.00,,FEW075,0.00,VWS V14.01,2013-05-06 12:11:00,
2013-05-06 05:12:00,40.5,23.8,29.25,SW,225,0.0,0.0,51,0.00,,FEW075,0.00,VWS V14.01,2013-05-06 12:12:00,
2013-05-06 05:13:00,40.3,23.1,29.25,SW,225,0.0,0.0,50,0.00,,FEW075,0.00,VWS V14.01,2013-05-06 12:13:00,
2013-05-06 05:14:00,40.1,23.0,29.25,SW,225,0.0,0.0,50,0.00,,FEW075,0.00,VWS V14.01,2013-05-06 12:14:00,
2013-05-06 05:15:00,39.9,23.3,29.25,SW,225,0.0,0.0,51,0.00,,CLR,0.00,VWS V14.01,2013-05-06 12:15:00,
2013-05-06 05:16:00,39.7,22.2,29.25,SW,225,2.2,2.2,49,0.00,,FEW075,0.00,VWS V14.01,2013-05-06 12:16:00,
2013-05-06 05:17:00,39.7,22.6,29.25,SW,225,2.7,2.7,50,0.00,,FEW075,0.00,VWS V14.01,2013-05-06 12:17:00,
2013-05-06 05:18:00,39.7,22.6,29.25,SW,225,2.2,2.7,50,0.00,,FEW075,0.00,VWS V14.01,2013-05-06 12:18:00,
2013-05-06 05:19:00,39.7,22.6,29.25,SW,225,2.2,2.2,50,0.00,,FEW075,0.00,VWS V14.01,2013-05-06 12:19:00,
2013-05-06 05:20:00,39.9,23.3,29.25,SW,225,3.1,3.1,51,0.00,,CLR,0.00,VWS V14.01,2013-05-06 12:20:00,
2013-05-06 05:21:00,39.6,22.9,29.25,SW,225,2.7,2.7,51,0.00,,FEW075,0.00,VWS V14.01,2013-05-06 12:21:00,
2013-05-06 05:22:00,39.7,23.1,29.25,SW,225,2.2,2.7,51,0.00,,FEW075,0.00,VWS V14.01,2013-05-06 12:22:00,
2013-05-06 05:23:00,39.7,23.1,29.25,SW,225,0.0,2.2,51,0.00,,FEW075,0.00,VWS V14.01,2013-05-06 12:23:00,
2013-05-06 05:24:00,39.7,23.1,29.25,SW,225,0.0,2.2,51,0.00,,FEW075,0.00,VWS V14.01,2013-05-06 12:24:00,
2013-05-06 05:25:00,40.3,24.1,29.25,SW,225,2.7,3.1,52,0.00,,CLR,0.00,VWS V14.01,2013-05-06 12:25:00,
2013-05-06 05:26:00,39.9,23.3,29.25,SW,225,0.0,0.0,51,0.00,,FEW075,0.00,VWS V14.01,2013-05-06 12:26:00,
2013-05-06 05:27:00,39.9,23.3,29.25,SW,225,0.0,0.0,51,0.00,,FEW075,0.00,VWS V14.01,2013-05-06 12:27:00,
2013-05-06 05:28:00,39.9,23.3,29.25,SW,225,0.0,0.0,51,0.00,,FEW075,0.00,VWS V14.01,2013-05-06 12:28:00,
2013-05-06 05:29:00,39.9,23.3,29.25,SW,225,0.0,0.0,51,0.00,,FEW075,0.00,VWS V14.01,2013-05-06 12:29:00,
2013-05-06 05:30:00,40.3,24.1,29.25,SW,225,0.0,0.0,52,0.00,,CLR,0.00,VWS V14.01,2013-05-06 12:30:00,
2013-05-06 05:31:00,39.9,23.3,29.25,SW,225,0.0,0.0,51,0.00,,FEW075,0.00,VWS V14.01,2013-05-06 12:31:00,
2013-05-06 05:32:00,39.9,23.3,29.25,SW,225,2.2,2.2,51,0.00,,FEW075,0.00,VWS V14.01,2013-05-06 12:32:00,
2013-05-06 05:33:00,39.9,23.3,29.25,SW,225,3.1,3.1,51,0.00,,FEW075,0.00,VWS V14.01,2013-05-06 12:33:00,
2013-05-06 05:34:00,40.1,23.9,29.25,SW,225,3.1,3.1,52,0.00,,FEW075,0.00,VWS V14.01,2013-05-06 12:34:00,
2013-05-06 05:35:00,40.5,24.7,29.25,SW,225,3.1,3.1,53,0.00,,CLR,0.00,VWS V14.01,2013-05-06 12:35:00,
2013-05-06 05:36:00,40.1,23.9,29.25,SW,225,2.7,2.7,52,0.00,,FEW075,0.00,VWS V14.01,2013-05-06 12:36:00,
2013-05-06 05:37:00,40.1,23.9,29.25,SW,225,3.1,3.6,52,0.00,,FEW075,0.00,VWS V14.01,2013-05-06 12:37:00,
2013-05-06 05:38:00,40.3,24.1,29.25,SW,225,2.7,3.1,52,0.00,,FEW075,0.00,VWS V14.01,2013-05-06 12:38:00,
2013-05-06 05:39:00,40.3,24.1,29.25,SW,225,3.1,3.6,52,0.00,,FEW075,0.00,VWS V14.01,2013-05-06 12:39:00,
2013-05-06 05:40:00,40.6,24.9,29.25,SW,225,0.0,0.0,53,0.00,,CLR,0.00,VWS V14.01,2013-05-06 12:40:00,
2013-05-06 05:41:00,40.3,24.1,29.25,SW,225,2.7,3.1,52,0.00,,FEW075,0.00,VWS V14.01,2013-05-06 12:41:00,
2013-05-06 05:42:00,40.3,24.1,29.25,SW,225,2.7,3.1,52,0.00,,FEW075,0.00,VWS V14.01,2013-05-06 12:42:00,
2013-05-06 05:43:00,40.3,24.1,29.25,SW,225,0.0,2.7,52,0.00,,FEW075,0.00,VWS V14.01,2013-05-06 12:43:00,
2013-05-06 05:44:00,40.3,24.1,29.25,SW,225,2.2,2.2,52,0.00,,FEW075,0.00,VWS V14.01,2013-05-06 12:44:00,
2013-05-06 05:45:00,41.0,24.7,29.25,SW,225,3.1,3.1,52,0.00,,CLR,0.00,VWS V14.01,2013-05-06 12:45:00,
2013-05-06 05:46:00,40.3,24.1,29.25,SW,225,0.0,2.7,52,0.00,,FEW075,0.00,VWS V14.01,2013-05-06 12:46:00,
2013-05-06 05:47:00,40.3,24.1,29.25,SW,225,2.7,2.7,52,0.00,,FEW075,0.00,VWS V14.01,2013-05-06 12:47:00,
2013-05-06 05:48:00,40.3,24.1,29.25,SW,225,2.7,3.1,52,0.00,,FEW075,0.00,VWS V14.01,2013-05-06 12:48:00,
2013-05-06 05:49:00,40.5,24.7,29.25,SW,225,2.2,3.1,53,0.00,,FEW075,0.00,VWS V14.01,2013-05-06 12:49:00,
2013-05-06 05:50:00,41.0,24.7,29.25,SW,225,2.7,4.0,52,0.00,,CLR,0.00,VWS V14.01,2013-05-06 12:50:00,
2013-05-06 05:51:00,40.6,24.9,29.25,SW,225,0.0,2.2,53,0.00,,FEW075,0.00,VWS V14.01,2013-05-06 12:51:00,
2013-05-06 05:52:00,40.6,24.9,29.25,SW,225,0.0,0.0,53,0.00,,FEW075,0.00,VWS V14.01,2013-05-06 12:52:00,
2013-05-06 05:53:00,40.6,24.9,29.25,SW,225,0.0,0.0,53,0.00,,FEW075,0.00,VWS V14.01,2013-05-06 12:53:00,
2013-05-06 05:54:00,40.6,24.9,29.25,SW,225,0.0,0.0,53,0.00,,FEW075,0.00,VWS V14.01,2013-05-06 12:54:00,
2013-05-06 05:55:00,41.5,25.2,29.25,SW,231,2.2,2.7,52,0.00,,CLR,0.00,VWS V14.01,2013-05-06 12:55:00,
2013-05-06 05:56:00,40.8,24.6,29.25,SW,225,0.0,0.0,52,0.00,,FEW075,0.00,VWS V14.01,2013-05-06 12:56:00,
2013-05-06 05:57:00,40.8,24.6,29.25,SW,225,0.0,0.0,52,0.00,,FEW075,0.00,VWS V14.01,2013-05-06 12:57:00,
2013-05-06 05:58:00,40.8,24.6,29.25,SW,225,0.0,0.0,52,0.00,,FEW075,0.00,VWS V14.01,2013-05-06 12:58:00,
2013-05-06 05:59:00,41.0,24.7,29.25,SW,225,3.1,4.0,52,0.00,,FEW075,0.00,VWS V14.01,2013-05-06 12:59:00,
2013-05-06 06:00:00,41.7,24.9,29.25,SW,231,0.0,0.0,51,0.00,,FEW200,0.00,VWS V14.01,2013-05-06 13:00:00,
2013-05-06 06:01:00,41.0,24.7,29.25,SW,225,2.7,2.7,52,0.00,,FEW075,0.00,VWS V14.01,2013-05-06 13:01:00,
2013-05-06 06:02:00,41.0,24.7,29.25,SW,225,3.6,3.6,52,0.00,,FEW075,0.00,VWS V14.01,2013-05-06 13:02:00,
2013-05-06 06:03:00,41.0,24.7,29.25,SW,225,4.0,4.0,52,0.00,,FEW075,0.00,VWS V14.01,2013-05-06 13:03:00,
2013-05-06 06:04:00,41.2,24.9,29.25,SW,225,3.1,4.0,52,0.00,,FEW075,0.00,VWS V14.01,2013-05-06 13:04:00,
2013-05-06 06:05:00,41.9,25.1,29.25,SW,231,0.0,0.0,51,0.00,,FEW200,0.00,VWS V14.01,2013-05-06 13:05:00,
2013-05-06 06:06:00,41.4,25.1,29.25,SW,231,0.0,2.7,52,0.00,,FEW075,0.00,VWS V14.01,2013-05-06 13:06:00,
2013-05-06 06:07:00,41.4,25.1,29.25,SW,231,0.0,2.2,52,0.00,,FEW075,0.00,VWS V14.01,2013-05-06 13:07:00,
2013-05-06 06:08:00,41.5,25.2,29.25,SW,231,2.2,2.7,52,0.00,,FEW075,0.00,VWS V14.01,2013-05-06 13:08:00,
2013-05-06 06:09:00,41.5,25.2,29.25,SW,231,0.0,2.2,52,0.00,,FEW075,0.00,VWS V14.01,2013-05-06 13:09:00,
2013-05-06 06:10:00,42.3,25.4,29.25,SW,231,0.0,0.0,51,0.00,,FEW200,0.00,VWS V14.01,2013-05-06 13:10:00,
2013-05-06 06:11:00,41.7,24.9,29.25,SW,231,0.0,0.0,51,0.00,,FEW075,0.00,VWS V14.01,2013-05-06 13:11:00,
2013-05-06 06:12:00,41.7,24.9,29.25,SW,231,0.0,0.0,51,0.00,,FEW075,0.00,VWS V14.01,2013-05-06 13:12:00,
2013-05-06 06:13:00,41.7,24.9,29.25,SW,231,0.0,0.0,51,0.00,,FEW075,0.00,VWS V14.01,2013-05-06 13:13:00,
2013-05-06 06:14:00,41.7,24.9,29.25,SW,231,0.0,0.0,51,0.00,,FEW075,0.00,VWS V14.01,2013-05-06 13:14:00,
2013-05-06 06:15:00,42.4,25.6,29.25,SW,231,0.0,0.0,51,0.00,,FEW200,0.00,VWS V14.01,2013-05-06 13:15:00,
2013-05-06 06:16:00,41.9,25.1,29.25,SW,231,0.0,2.7,51,0.00,,FEW075,0.00,VWS V14.01,2013-05-06 13:16:00,
2013-05-06 06:17:00,41.9,25.1,29.25,SW,231,0.0,0.0,51,0.00,,FEW075,0.00,VWS V14.01,2013-05-06 13:17:00,
2013-05-06 06:18:00,41.9,25.1,29.25,SW,231,0.0,0.0,51,0.00,,FEW075,0.00,VWS V14.01,2013-05-06 13:18:00,
2013-05-06 06:19:00,42.1,25.3,29.25,SW,231,0.0,0.0,51,0.00,,FEW075,0.00,VWS V14.01,2013-05-06 13:19:00,
2013-05-06 06:20:00,42.8,25.5,29.25,SW,231,0.0,0.0,50,0.00,,FEW200,0.00,VWS V14.01,2013-05-06 13:20:00,
2013-05-06 06:21:00,42.3,25.4,29.25,SW,231,0.0,0.0,51,0.00,,FEW075,0.00,VWS V14.01,2013-05-06 13:21:00,
2013-05-06 06:22:00,42.3,25.4,29.25,SW,231,0.0,0.0,51,0.00,,FEW075,0.00,VWS V14.01,2013-05-06 13:22:00,
2013-05-06 06:23:00,42.3,25.4,29.25,SW,231,0.0,0.0,51,0.00,,FEW075,0.00,VWS V14.01,2013-05-06 13:23:00,
2013-05-06 06:24:00,42.3,25.4,29.25,SW,231,0.0,0.0,51,0.00,,FEW075,0.00,VWS V14.01,2013-05-06 13:24:00,
2013-05-06 06:25:00,43.3,26.0,29.25,SW,231,0.0,0.0,50,0.00,,FEW200,0.00,VWS V14.01,2013-05-06 13:25:00,
2013-05-06 06:26:00,42.4,25.6,29.25,SW,231,0.0,0.0,51,0.00,,FEW075,0.00,VWS V14.01,2013-05-06 13:26:00,
2013-05-06 06:27:00,42.4,25.6,29.25,SW,231,0.0,0.0,51,0.00,,FEW075,0.00,VWS V14.01,2013-05-06 13:27:00,
2013-05-06 06:28:00,42.4,25.6,29.25,SW,231,0.0,0.0,51,0.00,,FEW075,0.00,VWS V14.01,2013-05-06 13:28:00,
2013-05-06 06:29:00,42.4,25.6,29.25,SW,231,0.0,0.0,51,0.00,,FEW075,0.00,VWS V14.01,2013-05-06 13:29:00,
2013-05-06 06:30:00,43.9,26.5,29.25,SW,231,0.0,0.0,50,0.00,,FEW200,0.00,VWS V14.01,2013-05-06 13:30:00,
2013-05-06 06:31:00,42.6,25.8,29.25,SW,231,0.0,0.0,51,0.00,,FEW075,0.00,VWS V14.01,2013-05-06 13:31:00,
2013-05-06 06:32:00,42.6,25.3,29.25,SW,231,0.0,0.0,50,0.00,,FEW075,0.00,VWS V14.01,2013-05-06 13:32:00,
2013-05-06 06:33:00,42.6,25.8,29.25,SW,231,0.0,0.0,51,0.00,,FEW075,0.00,VWS V14.01,2013-05-06 13:33:00,
2013-05-06 06:34:00,42.8,25.5,29.25,SW,231,0.0,0.0,50,0.00,,FEW075,0.00,VWS V14.01,2013-05-06 13:34:00,
2013-05-06 06:35:00,44.6,26.6,29.25,SW,231,0.0,0.0,49,0.00,,FEW200,0.00,VWS V14.01,2013-05-06 13:35:00,
2013-05-06 06:36:00,43.0,25.6,29.25,SW,231,0.0,0.0,50,0.00,,FEW075,0.00,VWS V14.01,2013-05-06 13:36:00,
2013-05-06 06:37:00,43.2,25.8,29.25,SW,231,0.0,0.0,50,0.00,,FEW075,0.00,VWS V14.01,2013-05-06 13:37:00,
2013-05-06 06:38:00,43.3,26.0,29.25,SW,231,0.0,0.0,50,0.00,,FEW075,0.00,VWS V14.01,2013-05-06 13:38:00,
2013-05-06 06:39:00,43.3,26.0,29.25,SW,231,0.0,0.0,50,0.00,,FEW075,0.00,VWS V14.01,2013-05-06 13:39:00,
2013-05-06 06:40:00,45.1,27.1,29.25,SW,231,2.2,2.2,49,0.00,,FEW200,0.00,VWS V14.01,2013-05-06 13:40:00,
2013-05-06 06:41:00,43.5,26.1,29.25,SW,231,0.0,0.0,50,0.00,,FEW075,0.00,VWS V14.01,2013-05-06 13:41:00,
2013-05-06 06:42:00,43.7,26.3,29.25,SW,231,0.0,0.0,50,0.00,,FEW075,0.00,VWS V14.01,2013-05-06 13:42:00,
2013-05-06 06:43:00,43.9,26.5,29.25,SW,231,0.0,0.0,50,0.00,,FEW075,0.00,VWS V14.01,2013-05-06 13:43:00,
2013-05-06 06:44:00,43.9,26.5,29.25,SW,231,0.0,0.0,50,0.00,,FEW075,0.00,VWS V14.01,2013-05-06 13:44:00,
2013-05-06 06:45:00,45.7,27.6,29.25,SW,231,0.0,0.0,49,0.00,,FEW200,0.00,VWS V14.01,2013-05-06 13:45:00,
2013-05-06 06:46:00,44.2,26.8,29.25,SW,231,0.0,0.0,50,0.00,,FEW075,0.00,VWS V14.01,2013-05-06 13:46:00,
2013-05-06 06:47:00,44.2,26.8,29.25,SW,231,0.0,0.0,50,0.00,,FEW075,0.00,VWS V14.01,2013-05-06 13:47:00,
2013-05-06 06:48:00,44.6,26.6,29.25,SW,231,2.7,2.7,49,0.00,,FEW075,0.00,VWS V14.01,2013-05-06 13:48:00,
2013-05-06 06:49:00,44.6,26.6,29.25,SW,231,2.2,2.7,49,0.00,,FEW075,0.00,VWS V14.01,2013-05-06 13:49:00,
2013-05-06 06:50:00,46.2,28.1,29.25,SW,231,0.0,0.0,49,0.00,,FEW200,0.00,VWS V14.01,2013-05-06 13:50:00,
2013-05-06 06:51:00,45.0,27.0,29.25,SW,231,2.2,2.2,49,0.00,,FEW075,0.00,VWS V14.01,2013-05-06 13:51:00,
2013-05-06 06:52:00,45.0,27.0,29.25,SW,231,0.0,2.2,49,0.00,,FEW075,0.00,VWS V14.01,2013-05-06 13:52:00,
2013-05-06 06:53:00,45.1,27.1,29.25,SW,231,0.0,0.0,49,0.00,,FEW075,0.00,VWS V14.01,2013-05-06 13:53:00,
2013-05-06 06:54:00,45.1,27.1,29.25,SW,231,0.0,2.2,49,0.00,,FEW075,0.00,VWS V14.01,2013-05-06 13:54:00,
2013-05-06 06:55:00,46.8,28.6,29.25,SW,231,0.0,0.0,49,0.00,,FEW200,0.00,VWS V14.01,2013-05-06 13:55:00,
2013-05-06 06:56:00,45.3,27.3,29.25,SW,231,0.0,0.0,49,0.00,,FEW075,0.00,VWS V14.01,2013-05-06 13:56:00,
2013-05-06 06:57:00,45.5,27.5,29.25,SW,231,0.0,0.0,49,0.00,,FEW075,0.00,VWS V14.01,2013-05-06 13:57:00,
2013-05-06 06:58:00,45.7,27.6,29.25,SW,231,0.0,0.0,49,0.00,,FEW075,0.00,VWS V14.01,2013-05-06 13:58:00,
2013-05-06 06:59:00,45.9,27.8,29.25,SW,231,0.0,0.0,49,0.00,,FEW075,0.00,VWS V14.01,2013-05-06 13:59:00,
2013-05-06 07:00:00,47.8,28.6,29.25,SW,231,3.1,3.1,47,0.00,,FEW200,0.00,VWS V14.01,2013-05-06 14:00:00,
2013-05-06 07:01:00,46.0,28.0,29.25,SW,231,0.0,0.0,49,0.00,,FEW075,0.00,VWS V14.01,2013-05-06 14:01:00,
2013-05-06 07:02:00,46.0,28.0,29.25,SW,231,0.0,0.0,49,0.00,,FEW075,0.00,VWS V14.01,2013-05-06 14:02:00,
2013-05-06 07:03:00,46.2,28.1,29.25,SW,231,0.0,0.0,49,0.00,,FEW075,0.00,VWS V14.01,2013-05-06 14:03:00,
2013-05-06 07:04:00,46.2,28.1,29.25,SW,231,0.0,0.0,49,0.00,,FEW075,0.00,VWS V14.01,2013-05-06 14:04:00,
2013-05-06 07:05:00,48.9,29.1,29.25,SW,231,0.0,0.0,46,0.00,,FEW200,0.00,VWS V14.01,2013-05-06 14:05:00,
2013-05-06 07:06:00,46.4,28.3,29.25,SW,231,0.0,0.0,49,0.00,,FEW075,0.00,VWS V14.01,2013-05-06 14:06:00,
2013-05-06 07:07:00,46.8,28.6,29.25,SW,231,0.0,0.0,49,0.00,,FEW075,0.00,VWS V14.01,2013-05-06 14:07:00,
2013-05-06 07:08:00,46.8,28.6,29.25,SW,231,0.0,0.0,49,0.00,,FEW075,0.00,VWS V14.01,2013-05-06 14:08:00,
2013-05-06 07:09:00,47.1,28.5,29.25,SW,231,2.7,3.1,48,0.00,,FEW075,0.00,VWS V14.01,2013-05-06 14:09:00,
2013-05-06 07:10:00,50.7,28.5,29.25,SW,231,2.7,3.6,42,0.00,,FEW200,0.00,VWS V14.01,2013-05-06 14:10:00,
2013-05-06 07:11:00,47.5,28.3,29.25,SW,231,2.7,2.7,47,0.00,,FEW075,0.00,VWS V14.01,2013-05-06 14:11:00,
2013-05-06 07:12:00,47.7,28.4,29.25,SW,231,2.7,3.6,47,0.00,,FEW075,0.00,VWS V14.01,2013-05-06 14:12:00,
2013-05-06 07:13:00,47.8,28.6,29.25,SW,231,2.7,3.1,47,0.00,,FEW075,0.00,VWS V14.01,2013-05-06 14:13:00,
2013-05-06 07:14:00,48.0,28.8,29.25,SW,231,2.7,3.1,47,0.00,,FEW075,0.00,VWS V14.01,2013-05-06 14:14:00,
2013-05-06 07:15:00,52.3,28.1,29.25,SW,231,3.1,3.1,39,0.00,,FEW200,0.00,VWS V14.01,2013-05-06 14:15:00,
2013-05-06 07:16:00,48.6,28.7,29.25,SW,231,2.2,2.7,46,0.00,,FEW075,0.00,VWS V14.01,2013-05-06 14:16:00,
2013-05-06 07:17:00,48.9,29.1,29.25,SW,231,0.0,2.2,46,0.00,,FEW075,0.00,VWS V14.01,2013-05-06 14:17:00,
2013-05-06 07:18:00,48.9,29.1,29.25,SW,231,0.0,0.0,46,0.00,,FEW075,0.00,VWS V14.01,2013-05-06 14:18:00,
2013-05-06 07:19:00,49.3,29.4,29.25,SW,231,0.0,0.0,46,0.00,,FEW075,0.00,VWS V14.01,2013-05-06 14:19:00,
2013-05-06 07:20:00,53.6,28.6,29.25,SW,231,0.0,0.0,38,0.00,,FEW200,0.00,VWS V14.01,2013-05-06 14:20:00,
2013-05-06 07:21:00,49.8,28.8,29.25,SW,231,2.2,2.7,44,0.00,,FEW075,0.00,VWS V14.01,2013-05-06 14:21:00,
2013-05-06 07:22:00,50.2,28.0,29.25,SW,231,2.7,2.7,42,0.00,,FEW075,0.00,VWS V14.01,2013-05-06 14:22:00,
2013-05-06 07:23:00,50.7,28.5,29.25,SW,231,2.7,3.6,42,0.00,,FEW075,0.00,VWS V14.01,2013-05-06 14:23:00,
2013-05-06 07:24:00,50.9,28.6,29.25,SW,231,2.7,3.1,42,0.00,,FEW075,0.00,VWS V14.01,2013-05-06 14:24:00,
2013-05-06 07:25:00,54.5,28.8,29.25,SW,230,0.0,0.0,37,0.00,,FEW200,0.00,VWS V14.01,2013-05-06 14:25:00,
2013-05-06 07:26:00,51.6,29.3,29.25,SW,231,3.1,3.1,42,0.00,,FEW075,0.00,VWS V14.01,2013-05-06 14:26:00,
2013-05-06 07:27:00,52.0,29.0,29.25,SW,231,2.7,3.1,41,0.00,,FEW075,0.00,VWS V14.01,2013-05-06 14:27:00,
2013-05-06 07:28:00,52.3,28.1,29.25,SW,231,3.1,3.1,39,0.00,,FEW075,0.00,VWS V14.01,2013-05-06 14:28:00,
2013-05-06 07:29:00,52.5,28.9,29.25,SW,231,4.0,4.0,40,0.00,,FEW075,0.00,VWS V14.01,2013-05-06 14:29:00,
2013-05-06 07:30:00,55.6,29.1,29.25,SSW,193,0.0,2.2,36,0.00,,FEW200,0.00,VWS V14.01,2013-05-06 14:30:00,
2013-05-06 07:31:00,53.1,28.8,29.25,SW,231,3.1,3.1,39,0.00,,FEW075,0.00,VWS V14.01,2013-05-06 14:31:00,
2013-05-06 07:32:00,53.2,28.9,29.25,SW,231,0.0,3.1,39,0.00,,FEW075,0.00,VWS V14.01,2013-05-06 14:32:00,
2013-05-06 07:33:00,53.6,28.6,29.25,SW,231,0.0,0.0,38,0.00,,FEW075,0.00,VWS V14.01,2013-05-06 14:33:00,
2013-05-06 07:34:00,53.8,28.8,29.25,SW,231,0.0,0.0,38,0.00,,FEW075,0.00,VWS V14.01,2013-05-06 14:34:00,
2013-05-06 07:35:00,56.1,28.9,29.25,ENE,62,2.7,4.9,35,0.00,,FEW200,0.00,VWS V14.01,2013-05-06 14:35:00,
2013-05-06 07:36:00,54.1,28.5,29.25,SW,225,2.2,4.0,37,0.00,,FEW075,0.00,VWS V14.01,2013-05-06 14:36:00,
2013-05-06 07:37:00,54.3,28.6,29.25,SW,225,0.0,2.2,37,0.00,,FEW075,0.00,VWS V14.01,2013-05-06 14:37:00,
2013-05-06 07:38:00,54.5,28.8,29.25,WNW,294,3.1,3.1,37,0.00,,FEW075,0.00,VWS V14.01,2013-05-06 14:38:00,
2013-05-06 07:39:00,54.7,28.3,29.25,SSW,198,4.0,4.0,36,0.00,,FEW075,0.00,VWS V14.01,2013-05-06 14:39:00,
2013-05-06 07:40:00,57.0,26.7,29.25,NE,56,4.9,5.8,31,0.00,,FEW200,0.00,VWS V14.01,2013-05-06 14:40:00,
2013-05-06 07:41:00,55.2,28.8,29.25,SSW,193,0.0,3.6,36,0.00,,FEW075,0.00,VWS V14.01,2013-05-06 14:41:00,
2013-05-06 07:42:00,55.4,28.9,29.25,SSW,193,2.2,2.2,36,0.00,,FEW075,0.00,VWS V14.01,2013-05-06 14:42:00,
2013-05-06 07:43:00,55.6,29.1,29.25,SSW,193,2.2,2.2,36,0.00,,FEW075,0.00,VWS V14.01,2013-05-06 14:43:00,
2013-05-06 07:44:00,55.8,29.2,29.25,SSW,193,0.0,2.2,36,0.00,,FEW075,0.00,VWS V14.01,2013-05-06 14:44:00,
2013-05-06 07:45:00,57.6,26.4,29.25,ENE,76,4.5,5.8,30,0.00,,FEW200,0.00,VWS V14.01,2013-05-06 14:45:00,
2013-05-06 07:46:00,55.9,28.7,29.25,SSW,193,0.0,0.0,35,0.00,,FEW075,0.00,VWS V14.01,2013-05-06 14:46:00,
2013-05-06 07:47:00,55.9,28.7,29.25,NE,35,3.1,3.1,35,0.00,,FEW075,0.00,VWS V14.01,2013-05-06 14:47:00,
2013-05-06 07:48:00,56.3,28.3,29.25,ENE,58,3.1,4.9,34,0.00,,FEW075,0.00,VWS V14.01,2013-05-06 14:48:00,
2013-05-06 07:49:00,56.3,27.6,29.25,ENE,71,2.2,3.6,33,0.00,,FEW075,0.00,VWS V14.01,2013-05-06 14:49:00,
2013-05-06 07:50:00,57.9,26.7,29.25,East,90,5.4,5.8,30,0.00,,FEW200,0.00,VWS V14.01,2013-05-06 14:50:00,
2013-05-06 07:51:00,56.7,27.2,29.25,ENE,73,2.2,5.8,32,0.00,,FEW075,0.00,VWS V14.01,2013-05-06 14:51:00,
2013-05-06 07:52:00,56.8,26.5,29.25,ENE,61,5.8,5.8,31,0.00,,FEW075,0.00,VWS V14.01,2013-05-06 14:52:00,
2013-05-06 07:53:00,57.0,26.7,29.25,NE,56,4.9,5.8,31,0.00,,FEW075,0.00,VWS V14.01,2013-05-06 14:53:00,
2013-05-06 07:54:00,57.2,26.1,29.25,ENE,69,5.4,5.4,30,0.00,,FEW075,0.00,VWS V14.01,2013-05-06 14:54:00,
2013-05-06 07:55:00,58.5,26.3,29.25,NE,37,4.5,4.5,29,0.00,,FEW200,0.00,VWS V14.01,2013-05-06 14:55:00,
2013-05-06 07:56:00,57.4,25.4,29.25,ENE,70,5.8,7.6,29,0.00,,FEW075,0.00,VWS V14.01,2013-05-06 14:56:00,
2013-05-06 07:57:00,57.4,26.2,29.25,ENE,58,5.8,6.3,30,0.00,,FEW075,0.00,VWS V14.01,2013-05-06 14:57:00,
2013-05-06 07:58:00,57.6,26.4,29.25,ENE,70,3.6,5.8,30,0.00,,FEW075,0.00,VWS V14.01,2013-05-06 14:58:00,
2013-05-06 07:59:00,57.6,25.6,29.25,East,92,5.4,6.3,29,0.00,,FEW075,0.00,VWS V14.01,2013-05-06 14:59:00,
2013-05-06 08:00:00,59.0,25.1,29.25,NE,34,6.3,6.3,27,0.00,,FEW200,0.00,VWS V14.01,2013-05-06 15:00:00,
2013-05-06 08:01:00,57.7,26.5,29.25,ENE,71,7.6,7.6,30,0.00,,FEW075,0.00,VWS V14.01,2013-05-06 15:01:00,
2013-05-06 08:02:00,57.9,25.9,29.25,ENE,58,5.8,7.6,29,0.00,,FEW075,0.00,VWS V14.01,2013-05-06 15:02:00,
2013-05-06 08:03:00,57.9,25.9,29.25,East,85,4.0,5.8,29,0.00,,FEW075,0.00,VWS V14.01,2013-05-06 15:03:00,
2013-05-06 08:04:00,58.1,26.0,29.25,ENE,78,5.8,6.3,29,0.00,,FEW075,0.00,VWS V14.01,2013-05-06 15:04:00,
2013-05-06 08:05:00,59.5,25.5,29.25,ENE,67,3.6,4.9,27,0.00,,CLR,0.00,VWS V14.01,2013-05-06 15:05:00,
2013-05-06 08:06:00,58.3,26.2,29.25,ENE,72,5.8,6.3,29,0.00,,FEW075,0.00,VWS V14.01,2013-05-06 15:06:00,
2013-05-06 08:07:00,58.5,26.3,29.25,ENE,69,4.0,5.8,29,0.00,,FEW075,0.00,VWS V14.01,2013-05-06 15:07:00,
2013-05-06 08:08:00,58.5,25.5,29.25,East,88,5.4,5.4,28,0.00,,FEW075,0.00,VWS V14.01,2013-05-06 15:08:00,
2013-05-06 08:09:00,58.6,25.6,29.25,ENE,73,8.3,8.3,28,0.00,,FEW075,0.00,VWS V14.01,2013-05-06 15:09:00,
2013-05-06 08:10:00,60.1,26.0,29.25,ENE,63,3.1,3.6,27,0.00,,CLR,0.00,VWS V14.01,2013-05-06 15:10:00,
2013-05-06 08:11:00,58.8,25.8,29.25,ENE,74,3.1,5.8,28,0.00,,FEW075,0.00,VWS V14.01,2013-05-06 15:11:00,
2013-05-06 08:12:00,58.8,26.7,29.25,NE,47,5.4,5.8,29,0.00,,FEW075,0.00,VWS V14.01,2013-05-06 15:12:00,
2013-05-06 08:13:00,59.0,25.1,29.25,ENE,62,3.6,6.3,27,0.00,,FEW075,0.00,VWS V14.01,2013-05-06 15:13:00,
2013-05-06 08:14:00,59.2,25.2,29.25,East,98,4.0,4.9,27,0.00,,FEW075,0.00,VWS V14.01,2013-05-06 15:14:00,
2013-05-06 08:15:00,60.4,25.4,29.25,NNE,22,5.4,5.8,26,0.00,,CLR,0.00,VWS V14.01,2013-05-06 15:15:00,
2013-05-06 08:16:00,59.4,25.4,29.25,NE,45,4.0,5.8,27,0.00,,FEW075,0.00,VWS V14.01,2013-05-06 15:16:00,
2013-05-06 08:17:00,59.4,25.4,29.25,NNE,28,4.0,4.0,27,0.00,,FEW075,0.00,VWS V14.01,2013-05-06 15:17:00,
2013-05-06 08:18:00,59.5,25.5,29.25,ENE,71,4.9,4.9,27,0.00,,FEW075,0.00,VWS V14.01,2013-05-06 15:18:00,
2013-05-06 08:19:00,59.5,25.5,29.25,East,82,3.1,7.6,27,0.00,,FEW075,0.00,VWS V14.01,2013-05-06 15:19:00,
2013-05-06 08:20:00,60.8,25.7,29.25,NE,52,2.7,3.6,26,0.00,,CLR,0.00,VWS V14.01,2013-05-06 15:20:00,
2013-05-06 08:21:00,59.7,25.7,29.25,ENE,60,2.7,4.0,27,0.00,,FEW075,0.00,VWS V14.01,2013-05-06 15:21:00,
2013-05-06 08:22:00,59.9,25.9,29.25,ENE,67,3.6,4.0,27,0.00,,FEW075,0.00,VWS V14.01,2013-05-06 15:22:00,
2013-05-06 08:23:00,60.1,26.0,29.25,NNE,15,5.4,5.4,27,0.00,,FEW075,0.00,VWS V14.01,2013-05-06 15:23:00,
2013-05-06 08:24:00,60.1,25.1,29.25,ENE,69,3.6,6.3,26,0.00,,FEW075,0.00,VWS V14.01,2013-05-06 15:24:00,
2013-05-06 08:25:00,61.3,26.2,29.25,ENE,72,5.8,5.8,26,0.00,,CLR,0.00,VWS V14.01,2013-05-06 15:25:00,
2013-05-06 08:26:00,60.3,26.2,29.25,East,83,2.2,6.3,27,0.00,,FEW075,0.00,VWS V14.01,2013-05-06 15:26:00,
2013-05-06 08:27:00,60.3,26.2,29.25,ENE,64,5.4,5.4,27,0.00,,FEW075,0.00,VWS V14.01,2013-05-06 15:27:00,
2013-05-06 08:28:00,60.4,25.4,29.25,ENE,61,4.0,5.8,26,0.00,,FEW075,0.00,VWS V14.01,2013-05-06 15:28:00,
2013-05-06 08:29:00,60.4,25.4,29.25,ENE,61,2.7,5.4,26,0.00,,FEW075,0.00,VWS V14.01,2013-05-06 15:29:00,
2013-05-06 08:30:00,61.7,26.5,29.25,ENE,62,5.4,5.8,26,0.00,,CLR,0.00,VWS V14.01,2013-05-06 15:30:00,
2013-05-06 08:31:00,60.6,25.6,29.25,East,84,6.3,7.6,26,0.00,,FEW075,0.00,VWS V14.01,2013-05-06 15:31:00,
2013-05-06 08:32:00,60.8,25.7,29.25,ENE,74,3.6,6.3,26,0.00,,FEW075,0.00,VWS V14.01,2013-05-06 15:32:00,
2013-05-06 08:33:00,61.0,25.9,29.25,ESE,108,3.1,3.6,26,0.00,,FEW075,0.00,VWS V14.01,2013-05-06 15:33:00,
2013-05-06 08:34:00,61.0,25.9,29.25,East,92,3.1,5.4,26,0.00,,FEW075,0.00,VWS V14.01,2013-05-06 15:34:00,
2013-05-06 08:35:00,62.1,25.9,29.25,ENE,65,3.6,3.6,25,0.00,,CLR,0.00,VWS V14.01,2013-05-06 15:35:00,
2013-05-06 08:36:00,61.2,26.0,29.25,NE,36,5.8,5.8,26,0.00,,FEW075,0.00,VWS V14.01,2013-05-06 15:36:00,
2013-05-06 08:37:00,61.3,25.2,29.25,East,81,4.0,5.8,25,0.00,,FEW075,0.00,VWS V14.01,2013-05-06 15:37:00,
2013-05-06 08:38:00,61.3,26.2,29.25,ENE,66,5.4,5.8,26,0.00,,FEW075,0.00,VWS V14.01,2013-05-06 15:38:00,
2013-05-06 08:39:00,61.5,25.4,29.25,East,85,6.3,6.3,25,0.00,,FEW075,0.00,VWS V14.01,2013-05-06 15:39:00,
2013-05-06 08:40:00,62.6,26.3,29.25,East,87,6.3,6.3,25,0.00,,CLR,0.00,VWS V14.01,2013-05-06 15:40:00,
2013-05-06 08:41:00,61.7,25.5,29.25,NE,46,6.3,6.3,25,0.00,,FEW075,0.00,VWS V14.01,2013-05-06 15:41:00,
2013-05-06 08:42:00,61.7,25.5,29.25,ENE,66,5.8,7.2,25,0.00,,FEW075,0.00,VWS V14.01,2013-05-06 15:42:00,
2013-05-06 08:43:00,61.7,25.5,29.25,ENE,57,3.1,5.8,25,0.00,,FEW075,0.00,VWS V14.01,2013-05-06 15:43:00,
2013-05-06 08:44:00,61.9,25.7,29.25,NE,49,5.8,5.8,25,0.00,,FEW075,0.00,VWS V14.01,2013-05-06 15:44:00,
2013-05-06 08:45:00,63.0,26.6,29.25,ENE,73,3.6,5.4,25,0.00,,CLR,0.00,VWS V14.01,2013-05-06 15:45:00,
2013-05-06 08:46:00,61.9,25.7,29.25,ENE,63,2.7,4.0,25,0.00,,FEW075,0.00,VWS V14.01,2013-05-06 15:46:00,
2013-05-06 08:47:00,62.1,25.9,29.25,ENE,68,3.1,3.6,25,0.00,,FEW075,0.00,VWS V14.01,2013-05-06 15:47:00,
2013-05-06 08:48:00,62.2,26.0,29.25,ENE,63,4.0,4.0,25,0.00,,FEW075,0.00,VWS V14.01,2013-05-06 15:48:00,
2013-05-06 08:49:00,62.2,26.0,29.25,NE,42,3.6,4.0,25,0.00,,FEW075,0.00,VWS V14.01,2013-05-06 15:49:00,
2013-05-06 08:50:00,63.0,26.6,29.25,NE,53,8.3,8.3,25,0.00,,CLR,0.00,VWS V14.01,2013-05-06 15:50:00,
2013-05-06 08:51:00,62.4,26.2,29.25,ESE,113,3.6,4.5,25,0.00,,FEW075,0.00,VWS V14.01,2013-05-06 15:51:00,
2013-05-06 08:52:00,62.6,26.3,29.25,East,86,4.0,4.9,25,0.00,,FEW075,0.00,VWS V14.01,2013-05-06 15:52:00,
2013-05-06 08:53:00,62.6,26.3,29.25,ENE,74,4.9,6.3,25,0.00,,FEW075,0.00,VWS V14.01,2013-05-06 15:53:00,
2013-05-06 08:54:00,62.8,26.5,29.25,ENE,57,3.6,4.9,25,0.00,,FEW075,0.00,VWS V14.01,2013-05-06 15:54:00,
2013-05-06 08:55:00,63.0,25.6,29.25,East,81,6.3,6.3,24,0.00,,CLR,0.00,VWS V14.01,2013-05-06 15:55:00,
2013-05-06 08:56:00,63.0,25.6,29.25,ENE,68,6.3,6.3,24,0.00,,FEW075,0.00,VWS V14.01,2013-05-06 15:56:00,
2013-05-06 08:57:00,63.0,26.6,29.25,ENE,69,5.4,6.3,25,0.00,,FEW075,0.00,VWS V14.01,2013-05-06 15:57:00,
2013-05-06 08:58:00,63.0,26.6,29.25,ENE,73,3.1,5.4,25,0.00,,FEW075,0.00,VWS V14.01,2013-05-06 15:58:00,
2013-05-06 08:59:00,63.0,26.6,29.25,ENE,76,4.0,5.4,25,0.00,,FEW075,0.00,VWS V14.01,2013-05-06 15:59:00,
2013-05-06 09:00:00,63.3,25.9,29.25,NE,55,5.8,5.8,24,0.00,,CLR,0.00,VWS V14.01,2013-05-06 16:00:00,
2013-05-06 09:01:00,63.0,25.6,29.25,ENE,75,5.8,8.3,24,0.00,,FEW075,0.00,VWS V14.01,2013-05-06 16:01:00,
2013-05-06 09:02:00,63.0,26.6,29.25,ENE,68,7.6,8.3,25,0.00,,FEW075,0.00,VWS V14.01,2013-05-06 16:02:00,
2013-05-06 09:03:00,63.0,26.6,29.25,ENE,61,6.3,8.3,25,0.00,,FEW075,0.00,VWS V14.01,2013-05-06 16:03:00,
2013-05-06 09:04:00,63.0,26.6,29.25,ENE,64,6.3,6.3,25,0.00,,FEW075,0.00,VWS V14.01,2013-05-06 16:04:00,
2013-05-06 09:05:00,63.5,27.1,29.25,ENE,78,5.4,8.1,25,0.00,,CLR,0.00,VWS V14.01,2013-05-06 16:05:00,
2013-05-06 09:06:00,63.0,26.6,29.25,ENE,69,8.1,8.1,25,0.00,,FEW075,0.00,VWS V14.01,2013-05-06 16:06:00,
2013-05-06 09:07:00,63.0,25.6,29.25,ENE,74,4.9,8.1,24,0.00,,FEW075,0.00,VWS V14.01,2013-05-06 16:07:00,
2013-05-06 09:08:00,63.0,25.6,29.25,ENE,61,5.8,6.7,24,0.00,,FEW075,0.00,VWS V14.01,2013-05-06 16:08:00,
2013-05-06 09:09:00,63.1,25.8,29.25,ENE,74,6.3,6.3,24,0.00,,FEW075,0.00,VWS V14.01,2013-05-06 16:09:00,
2013-05-06 09:10:00,63.9,26.4,29.25,East,83,4.9,4.9,24,0.00,,CLR,0.00,VWS V14.01,2013-05-06 16:10:00,
2013-05-06 09:11:00,63.1,25.8,29.25,ENE,69,5.4,8.3,24,0.00,,FEW075,0.00,VWS V14.01,2013-05-06 16:11:00,
2013-05-06 09:12:00,63.3,25.9,29.25,ENE,72,5.4,5.8,24,0.00,,FEW075,0.00,VWS V14.01,2013-05-06 16:12:00,
2013-05-06 09:13:00,63.3,25.9,29.25,ENE,77,5.8,5.8,24,0.00,,FEW075,0.00,VWS V14.01,2013-05-06 16:13:00,
2013-05-06 09:14:00,63.1,25.8,29.25,ENE,78,5.8,6.3,24,0.00,,FEW075,0.00,VWS V14.01,2013-05-06 16:14:00,
2013-05-06 09:15:00,64.4,26.9,29.25,East,82,3.6,5.4,24,0.00,,CLR,0.00,VWS V14.01,2013-05-06 16:15:00,
2013-05-06 09:16:00,63.3,26.9,29.25,East,98,2.7,5.4,25,0.00,,FEW075,0.00,VWS V14.01,2013-05-06 16:16:00,
2013-05-06 09:17:00,63.3,26.9,29.25,ENE,68,7.6,8.1,25,0.00,,FEW075,0.00,VWS V14.01,2013-05-06 16:17:00,
2013-05-06 09:18:00,63.5,26.1,29.25,ENE,73,5.4,8.1,24,0.00,,FEW075,0.00,VWS V14.01,2013-05-06 16:18:00,
2013-05-06 09:19:00,63.5,27.1,29.25,ENE,77,7.2,7.2,25,0.00,,FEW075,0.00,VWS V14.01,2013-05-06 16:19:00,
2013-05-06 09:20:00,64.8,27.2,29.25,ENE,75,5.4,7.2,24,0.00,,CLR,0.00,VWS V14.01,2013-05-06 16:20:00,
2013-05-06 09:21:00,63.9,27.4,29.25,East,82,3.6,4.5,25,0.00,,FEW075,0.00,VWS V14.01,2013-05-06 16:21:00,
2013-05-06 09:22:00,63.9,26.4,29.25,ENE,69,3.1,5.4,24,0.00,,FEW075,0.00,VWS V14.01,2013-05-06 16:22:00,
2013-05-06 09:23:00,63.9,26.4,29.25,ENE,69,3.6,4.9,24,0.00,,FEW075,0.00,VWS V14.01,2013-05-06 16:23:00,
2013-05-06 09:24:00,64.0,26.5,29.25,East,81,3.1,5.8,24,0.00,,FEW075,0.00,VWS V14.01,2013-05-06 16:24:00,
2013-05-06 09:25:00,64.9,27.3,29.25,ENE,72,8.7,8.7,24,0.00,,CLR,0.00,VWS V14.01,2013-05-06 16:25:00,
2013-05-06 09:26:00,64.2,27.7,29.25,ENE,66,4.0,5.4,25,0.00,,FEW075,0.00,VWS V14.01,2013-05-06 16:26:00,
2013-05-06 09:27:00,64.4,26.9,29.25,East,93,5.4,5.4,24,0.00,,FEW075,0.00,VWS V14.01,2013-05-06 16:27:00,
2013-05-06 09:28:00,64.6,27.0,29.25,East,101,3.6,5.4,24,0.00,,FEW075,0.00,VWS V14.01,2013-05-06 16:28:00,
2013-05-06 09:29:00,64.6,27.0,29.25,ESE,122,2.7,4.0,24,0.00,,FEW075,0.00,VWS V14.01,2013-05-06 16:29:00,
2013-05-06 09:30:00,65.1,27.5,29.25,ENE,70,6.3,7.6,24,0.00,,CLR,0.00,VWS V14.01,2013-05-06 16:30:00,
2013-05-06 09:31:00,64.8,27.2,29.25,East,100,3.6,5.4,24,0.00,,FEW075,0.00,VWS V14.01,2013-05-06 16:31:00,
2013-05-06 09:32:00,64.8,27.2,29.25,East,84,7.2,7.6,24,0.00,,FEW075,0.00,VWS V14.01,2013-05-06 16:32:00,
2013-05-06 09:33:00,64.8,27.2,29.25,ENE,63,5.4,7.2,24,0.00,,FEW075,0.00,VWS V14.01,2013-05-06 16:33:00,
2013-05-06 09:34:00,64.8,27.2,29.25,NE,54,5.4,6.3,24,0.00,,FEW075,0.00,VWS V14.01,2013-05-06 16:34:00,
2013-05-06 09:35:00,65.7,27.9,29.25,NNE,32,5.4,5.8,24,0.00,,CLR,0.00,VWS V14.01,2013-05-06 16:35:00,
2013-05-06 09:36:00,64.9,27.3,29.25,East,85,2.7,4.0,24,0.00,,FEW075,0.00,VWS V14.01,2013-05-06 16:36:00,
2013-05-06 09:37:00,64.9,27.3,29.25,ENE,57,6.3,6.3,24,0.00,,FEW075,0.00,VWS V14.01,2013-05-06 16:37:00,
2013-05-06 09:38:00,65.1,27.5,29.25,ENE,66,7.6,8.7,24,0.00,,FEW075,0.00,VWS V14.01,2013-05-06 16:38:00,
2013-05-06 09:39:00,65.1,27.5,29.25,NE,53,8.1,8.3,24,0.00,,FEW075,0.00,VWS V14.01,2013-05-06 16:39:00,
2013-05-06 09:40:00,66.0,28.2,29.22,NE,56,5.8,5.8,24,0.00,,CLR,0.00,VWS V14.01,2013-05-06 16:40:00,
2013-05-06 09:41:00,65.1,27.5,29.25,ENE,70,6.7,6.7,24,0.00,,FEW075,0.00,VWS V14.01,2013-05-06 16:41:00,
2013-05-06 09:42:00,65.1,27.5,29.25,ENE,60,4.9,6.7,24,0.00,,FEW075,0.00,VWS V14.01,2013-05-06 16:42:00,
2013-05-06 09:43:00,65.1,27.5,29.25,NNE,30,8.3,8.3,24,0.00,,FEW075,0.00,VWS V14.01,2013-05-06 16:43:00,
2013-05-06 09:44:00,65.1,27.5,29.25,NE,56,4.9,8.3,24,0.00,,FEW075,0.00,VWS V14.01,2013-05-06 16:44:00,
2013-05-06 09:45:00,66.4,27.5,29.22,ENE,78,3.6,4.5,23,0.00,,CLR,0.00,VWS V14.01,2013-05-06 16:45:00,
2013-05-06 09:46:00,65.5,27.8,29.25,ENE,71,5.4,6.3,24,0.00,,FEW075,0.00,VWS V14.01,2013-05-06 16:46:00,
2013-05-06 09:47:00,65.7,27.9,29.25,NE,37,5.8,7.6,24,0.00,,FEW075,0.00,VWS V14.01,2013-05-06 16:47:00,
2013-05-06 09:48:00,65.7,27.9,29.25,NE,47,6.3,6.3,24,0.00,,FEW075,0.00,VWS V14.01,2013-05-06 16:48:00,
2013-05-06 09:49:00,65.8,28.1,29.25,ENE,73,8.7,8.7,24,0.00,,FEW075,0.00,VWS V14.01,2013-05-06 16:49:00,
2013-05-06 09:50:00,67.1,28.1,29.22,ENE,75,3.1,3.1,23,0.00,,CLR,0.00,VWS V14.01,2013-05-06 16:50:00,
2013-05-06 09:51:00,66.0,28.2,29.22,ENE,77,6.3,8.3,24,0.00,,FEW075,0.00,VWS V14.01,2013-05-06 16:51:00,
2013-05-06 09:52:00,66.0,28.2,29.22,ENE,74,5.8,8.3,24,0.00,,FEW075,0.00,VWS V14.01,2013-05-06 16:52:00,
2013-05-06 09:53:00,66.0,28.2,29.22,ENE,71,5.8,6.3,24,0.00,,FEW075,0.00,VWS V14.01,2013-05-06 16:53:00,
2013-05-06 09:54:00,66.0,28.2,29.22,NNE,31,5.4,5.8,24,0.00,,FEW075,0.00,VWS V14.01,2013-05-06 16:54:00,
2013-05-06 09:55:00,67.5,28.4,29.25,ENE,77,2.7,4.0,23,0.00,,CLR,0.00,VWS V14.01,2013-05-06 16:55:00,
2013-05-06 09:56:00,66.2,27.3,29.22,ENE,59,5.4,7.6,23,0.00,,FEW075,0.00,VWS V14.01,2013-05-06 16:56:00,
2013-05-06 09:57:00,66.4,27.5,29.22,ENE,74,2.7,5.4,23,0.00,,FEW075,0.00,VWS V14.01,2013-05-06 16:57:00,
2013-05-06 09:58:00,66.4,27.5,29.22,ENE,63,3.6,4.5,23,0.00,,FEW075,0.00,VWS V14.01,2013-05-06 16:58:00,
2013-05-06 09:59:00,66.6,27.6,29.22,NE,46,8.1,8.1,23,0.00,,FEW075,0.00,VWS V14.01,2013-05-06 16:59:00,
2013-05-06 10:00:00,67.8,28.7,29.25,NE,56,5.8,7.6,23,0.00,,CLR,0.00,VWS V14.01,2013-05-06 17:00:00,
2013-05-06 10:01:00,66.7,27.8,29.22,ENE,67,4.9,6.7,23,0.00,,FEW075,0.00,VWS V14.01,2013-05-06 17:01:00,
2013-05-06 10:02:00,66.9,27.9,29.22,East,91,2.7,4.9,23,0.00,,FEW075,0.00,VWS V14.01,2013-05-06 17:02:00,
2013-05-06 10:03:00,67.1,28.1,29.22,East,95,3.1,5.8,23,0.00,,FEW075,0.00,VWS V14.01,2013-05-06 17:03:00,
2013-05-06 10:04:00,67.1,28.1,29.22,ENE,75,3.6,4.0,23,0.00,,FEW075,0.00,VWS V14.01,2013-05-06 17:04:00,
2013-05-06 10:05:00,68.2,29.0,29.25,East,89,2.7,4.0,23,0.00,,CLR,0.00,VWS V14.01,2013-05-06 17:05:00,
2013-05-06 10:06:00,67.3,28.2,29.25,NE,55,5.8,5.8,23,0.00,,FEW075,0.00,VWS V14.01,2013-05-06 17:06:00,
2013-05-06 10:07:00,67.5,28.4,29.25,NE,55,4.0,5.8,23,0.00,,FEW075,0.00,VWS V14.01,2013-05-06 17:07:00,
2013-05-06 10:08:00,67.6,28.5,29.25,East,82,2.2,4.0,23,0.00,,FEW075,0.00,VWS V14.01,2013-05-06 17:08:00,
2013-05-06 10:09:00,67.6,28.5,29.25,East,82,4.9,4.9,23,0.00,,FEW075,0.00,VWS V14.01,2013-05-06 17:09:00,
2013-05-06 10:10:00,68.5,29.3,29.25,ENE,65,5.8,5.8,23,0.00,,CLR,0.00,VWS V14.01,2013-05-06 17:10:00,
2013-05-06 10:11:00,67.8,28.7,29.25,East,84,4.9,4.9,23,0.00,,FEW075,0.00,VWS V14.01,2013-05-06 17:11:00,
2013-05-06 10:12:00,67.8,28.7,29.25,ENE,69,7.6,7.6,23,0.00,,FEW075,0.00,VWS V14.01,2013-05-06 17:12:00,
2013-05-06 10:13:00,67.8,28.7,29.25,ENE,69,7.6,7.6,23,0.00,,FEW075,0.00,VWS V14.01,2013-05-06 17:13:00,
2013-05-06 10:14:00,68.0,28.9,29.25,ENE,69,5.4,7.6,23,0.00,,FEW075,0.00,VWS V14.01,2013-05-06 17:14:00,
2013-05-06 10:15:00,68.7,29.5,29.25,ENE,61,3.1,3.1,23,0.00,,CLR,0.00,VWS V14.01,2013-05-06 17:15:00,
2013-05-06 10:16:00,68.0,28.9,29.25,ENE,73,4.0,4.0,23,0.00,,FEW075,0.00,VWS V14.01,2013-05-06 17:16:00,
2013-05-06 10:17:00,68.2,29.0,29.25,ENE,72,4.0,4.0,23,0.00,,FEW075,0.00,VWS V14.01,2013-05-06 17:17:00,
2013-05-06 10:18:00,68.2,29.0,29.25,ENE,78,3.1,4.0,23,0.00,,FEW075,0.00,VWS V14.01,2013-05-06 17:18:00,
2013-05-06 10:19:00,68.2,29.0,29.25,East,89,0.0,5.8,23,0.00,,FEW075,0.00,VWS V14.01,2013-05-06 17:19:00,
2013-05-06 10:20:00,69.3,29.9,29.25,ENE,65,4.0,4.0,23,0.00,,CLR,0.00,VWS V14.01,2013-05-06 17:20:00,
2013-05-06 10:21:00,68.5,29.3,29.25,ENE,68,5.4,6.3,23,0.00,,FEW075,0.00,VWS V14.01,2013-05-06 17:21:00,
2013-05-06 10:22:00,68.5,29.3,29.25,NE,50,5.4,6.3,23,0.00,,FEW075,0.00,VWS V14.01,2013-05-06 17:22:00,
2013-05-06 10:23:00,68.5,29.3,29.25,NE,56,6.3,6.3,23,0.00,,FEW075,0.00,VWS V14.01,2013-05-06 17:23:00,
2013-05-06 10:24:00,68.7,29.5,29.25,East,88,4.0,6.3,23,0.00,,FEW075,0.00,VWS V14.01,2013-05-06 17:24:00,
2013-05-06 10:25:00,69.4,30.1,29.22,NE,52,4.5,5.4,23,0.00,,CLR,0.00,VWS V14.01,2013-05-06 17:25:00,
2013-05-06 10:26:00,68.7,29.5,29.25,ENE,73,6.3,6.3,23,0.00,,FEW075,0.00,VWS V14.01,2013-05-06 17:26:00,
2013-05-06 10:27:00,68.7,29.5,29.25,East,84,3.1,6.3,23,0.00,,FEW075,0.00,VWS V14.01,2013-05-06 17:27:00,
2013-05-06 10:28:00,68.7,29.5,29.25,East,86,3.1,3.1,23,0.00,,FEW075,0.00,VWS V14.01,2013-05-06 17:28:00,
2013-05-06 10:29:00,68.9,29.6,29.25,East,91,3.6,5.4,23,0.00,,FEW075,0.00,VWS V14.01,2013-05-06 17:29:00,
2013-05-06 10:30:00,69.8,29.3,29.22,ENE,60,5.4,5.4,22,0.00,,CLR,0.00,VWS V14.01,2013-05-06 17:30:00,
2013-05-06 10:31:00,69.1,29.8,29.25,East,93,3.1,5.4,23,0.00,,FEW075,0.00,VWS V14.01,2013-05-06 17:31:00,
2013-05-06 10:32:00,69.3,29.9,29.25,East,93,2.7,4.9,23,0.00,,FEW075,0.00,VWS V14.01,2013-05-06 17:32:00,
2013-05-06 10:33:00,69.3,29.9,29.25,ESE,104,3.1,5.8,23,0.00,,FEW075,0.00,VWS V14.01,2013-05-06 17:33:00,
2013-05-06 10:34:00,69.3,29.9,29.25,ENE,76,6.3,6.3,23,0.00,,FEW075,0.00,VWS V14.01,2013-05-06 17:34:00,
2013-05-06 10:35:00,70.0,29.4,29.22,ESE,111,3.1,5.8,22,0.00,,CLR,0.00,VWS V14.01,2013-05-06 17:35:00,
2013-05-06 10:36:00,69.4,30.1,29.22,SE,124,4.0,6.7,23,0.00,,FEW075,0.00,VWS V14.01,2013-05-06 17:36:00,
2013-05-06 10:37:00,69.4,29.0,29.22,NE,56,5.4,6.3,22,0.00,,FEW075,0.00,VWS V14.01,2013-05-06 17:37:00,
2013-05-06 10:38:00,69.4,30.1,29.22,NE,44,3.6,5.4,23,0.00,,FEW075,0.00,VWS V14.01,2013-05-06 17:38:00,
2013-05-06 10:39:00,69.4,30.1,29.22,ESE,102,2.7,4.0,23,0.00,,FEW075,0.00,VWS V14.01,2013-05-06 17:39:00,
2013-05-06 10:40:00,70.2,29.6,29.22,East,87,2.7,4.0,22,0.00,,CLR,0.00,VWS V14.01,2013-05-06 17:40:00,
2013-05-06 10:41:00,69.6,30.2,29.22,ENE,60,5.8,8.1,23,0.00,,FEW075,0.00,VWS V14.01,2013-05-06 17:41:00,
2013-05-06 10:42:00,69.6,30.2,29.22,ENE,73,5.4,7.6,23,0.00,,FEW075,0.00,VWS V14.01,2013-05-06 17:42:00,
2013-05-06 10:43:00,69.8,29.3,29.22,ENE,73,5.8,5.8,22,0.00,,FEW075,0.00,VWS V14.01,2013-05-06 17:43:00,
2013-05-06 10:44:00,69.8,29.3,29.22,ENE,77,2.7,5.8,22,0.00,,FEW075,0.00,VWS V14.01,2013-05-06 17:44:00,
2013-05-06 10:45:00,70.5,29.9,29.22,East,85,5.4,6.3,22,0.00,,CLR,0.00,VWS V14.01,2013-05-06 17:45:00,
2013-05-06 10:46:00,70.0,29.4,29.22,ENE,71,4.9,4.9,22,0.00,,FEW075,0.00,VWS V14.01,2013-05-06 17:46:00,
2013-05-06 10:47:00,70.0,29.4,29.22,ENE,77,5.8,6.3,22,0.00,,FEW075,0.00,VWS V14.01,2013-05-06 17:47:00,
2013-05-06 10:48:00,70.0,29.4,29.22,ENE,58,2.7,5.8,22,0.00,,FEW075,0.00,VWS V14.01,2013-05-06 17:48:00,
2013-05-06 10:49:00,70.0,29.4,29.22,NE,52,4.0,4.0,22,0.00,,FEW075,0.00,VWS V14.01,2013-05-06 17:49:00,
2013-05-06 10:50:00,70.7,30.0,29.22,East,79,6.3,6.3,22,0.00,,CLR,0.00,VWS V14.01,2013-05-06 17:50:00,
2013-05-06 10:51:00,70.2,29.6,29.22,ESE,108,3.6,3.6,22,0.00,,FEW075,0.00,VWS V14.01,2013-05-06 17:51:00,
2013-05-06 10:52:00,70.2,29.6,29.22,East,87,4.0,4.9,22,0.00,,FEW075,0.00,VWS V14.01,2013-05-06 17:52:00,
2013-05-06 10:53:00,70.2,29.6,29.22,SE,138,3.6,4.0,22,0.00,,FEW075,0.00,VWS V14.01,2013-05-06 17:53:00,
2013-05-06 10:54:00,70.2,29.6,29.22,East,83,3.1,4.0,22,0.00,,FEW075,0.00,VWS V14.01,2013-05-06 17:54:00,
2013-05-06 10:55:00,71.2,30.5,29.22,NE,38,3.1,5.8,22,0.00,,CLR,0.00,VWS V14.01,2013-05-06 17:55:00,
2013-05-06 10:56:00,70.3,29.7,29.22,ENE,65,6.3,6.3,22,0.00,,FEW075,0.00,VWS V14.01,2013-05-06 17:56:00,
2013-05-06 10:57:00,70.5,29.9,29.22,ENE,62,6.3,6.3,22,0.00,,FEW075,0.00,VWS V14.01,2013-05-06 17:57:00,
2013-05-06 10:58:00,70.5,29.9,29.22,ENE,78,2.7,6.3,22,0.00,,FEW075,0.00,VWS V14.01,2013-05-06 17:58:00,
2013-05-06 10:59:00,70.7,30.0,29.22,ENE,63,3.1,3.6,22,0.00,,FEW075,0.00,VWS V14.01,2013-05-06 17:59:00,
2013-05-06 11:00:00,71.4,30.6,29.22,NE,53,3.1,3.1,22,0.00,,CLR,0.00,VWS V14.01,2013-05-06 18:00:00,
2013-05-06 11:01:00,70.7,30.0,29.22,East,83,3.1,6.3,22,0.00,,FEW075,0.00,VWS V14.01,2013-05-06 18:01:00,
2013-05-06 11:02:00,70.7,30.0,29.22,East,79,5.4,5.8,22,0.00,,FEW075,0.00,VWS V14.01,2013-05-06 18:02:00,
2013-05-06 11:03:00,70.7,30.0,29.22,ENE,74,4.9,6.3,22,0.00,,FEW075,0.00,VWS V14.01,2013-05-06 18:03:00,
2013-05-06 11:04:00,70.9,30.2,29.22,ENE,76,2.2,4.9,22,0.00,,FEW075,0.00,VWS V14.01,2013-05-06 18:04:00,
2013-05-06 11:05:00,71.8,30.9,29.22,ENE,60,2.7,3.1,22,0.00,,CLR,0.00,VWS V14.01,2013-05-06 18:05:00,
2013-05-06 11:06:00,71.1,30.3,29.22,NE,48,5.4,5.8,22,0.00,,FEW075,0.00,VWS V14.01,2013-05-06 18:06:00,
2013-05-06 11:07:00,71.2,30.5,29.22,ENE,61,3.6,5.4,22,0.00,,FEW075,0.00,VWS V14.01,2013-05-06 18:07:00,
2013-05-06 11:08:00,71.2,30.5,29.22,East,86,4.0,5.8,22,0.00,,FEW075,0.00,VWS V14.01,2013-05-06 18:08:00,
2013-05-06 11:09:00,71.2,30.5,29.22,NE,38,4.0,4.0,22,0.00,,FEW075,0.00,VWS V14.01,2013-05-06 18:09:00,
2013-05-06 11:10:00,72.1,31.2,29.22,NE,39,6.3,6.7,22,0.00,,CLR,0.00,VWS V14.01,2013-05-06 18:10:00,
2013-05-06 11:11:00,71.4,30.6,29.22,ENE,64,2.7,4.0,22,0.00,,FEW075,0.00,VWS V14.01,2013-05-06 18:11:00,
2013-05-06 11:12:00,71.4,30.6,29.22,East,80,2.2,4.0,22,0.00,,FEW075,0.00,VWS V14.01,2013-05-06 18:12:00,
2013-05-06 11:13:00,71.4,30.6,29.22,NE,48,3.6,3.6,22,0.00,,FEW075,0.00,VWS V14.01,2013-05-06 18:13:00,
2013-05-06 11:14:00,71.6,30.8,29.22,ESE,105,3.1,3.6,22,0.00,,FEW075,0.00,VWS V14.01,2013-05-06 18:14:00,
2013-05-06 11:15:00,72.7,31.7,29.22,East,99,5.4,5.4,22,0.00,,CLR,0.00,VWS V14.01,2013-05-06 18:15:00,
2013-05-06 11:16:00,71.6,30.8,29.22,East,80,6.3,6.3,22,0.00,,FEW075,0.00,VWS V14.01,2013-05-06 18:16:00,
2013-05-06 11:17:00,71.8,30.9,29.22,East,88,3.1,6.3,22,0.00,,FEW075,0.00,VWS V14.01,2013-05-06 18:17:00,
2013-05-06 11:18:00,71.8,30.9,29.22,East,83,4.9,4.9,22,0.00,,FEW075,0.00,VWS V14.01,2013-05-06 18:18:00,
2013-05-06 11:19:00,72.0,31.1,29.22,ENE,75,3.6,5.4,22,0.00,,FEW075,0.00,VWS V14.01,2013-05-06 18:19:00,
2013-05-06 11:20:00,73.0,32.0,29.22,ENE,61,2.7,2.7,22,0.00,,CLR,0.00,VWS V14.01,2013-05-06 18:20:00,
2013-05-06 11:21:00,72.1,31.2,29.22,NE,52,5.4,8.3,22,0.00,,FEW075,0.00,VWS V14.01,2013-05-06 18:21:00,
2013-05-06 11:22:00,72.1,31.2,29.22,NE,47,6.7,6.7,22,0.00,,FEW075,0.00,VWS V14.01,2013-05-06 18:22:00,
2013-05-06 11:23:00,72.1,31.2,29.22,East,81,3.6,6.7,22,0.00,,FEW075,0.00,VWS V14.01,2013-05-06 18:23:00,
2013-05-06 11:24:00,72.1,31.2,29.22,ENE,69,4.9,5.4,22,0.00,,FEW075,0.00,VWS V14.01,2013-05-06 18:24:00,
2013-05-06 11:25:00,73.2,32.1,29.22,ENE,57,6.3,6.3,22,0.00,,CLR,0.00,VWS V14.01,2013-05-06 18:25:00,
2013-05-06 11:26:00,72.5,31.5,29.22,ENE,64,2.7,3.1,22,0.00,,FEW075,0.00,VWS V14.01,2013-05-06 18:26:00,
2013-05-06 11:27:00,72.5,31.5,29.22,ESE,102,4.9,4.9,22,0.00,,FEW075,0.00,VWS V14.01,2013-05-06 18:27:00,
2013-05-06 11:28:00,72.9,31.8,29.22,NE,54,3.1,5.4,22,0.00,,FEW075,0.00,VWS V14.01,2013-05-06 18:28:00,
2013-05-06 11:29:00,72.9,31.8,29.22,East,85,2.7,4.0,22,0.00,,FEW075,0.00,VWS V14.01,2013-05-06 18:29:00,
2013-05-06 11:30:00,73.6,31.3,29.22,SSE,159,4.9,4.9,21,0.00,,CLR,0.00,VWS V14.01,2013-05-06 18:30:00,
2013-05-06 11:31:00,72.9,31.8,29.22,East,80,2.7,5.8,22,0.00,,FEW075,0.00,VWS V14.01,2013-05-06 18:31:00,
2013-05-06 11:32:00,73.0,32.0,29.22,SE,140,0.0,3.6,22,0.00,,FEW075,0.00,VWS V14.01,2013-05-06 18:32:00,
2013-05-06 11:33:00,73.0,32.0,29.22,ESE,117,2.7,4.0,22,0.00,,FEW075,0.00,VWS V14.01,2013-05-06 18:33:00,
2013-05-06 11:34:00,73.0,32.0,29.22,SSE,157,3.1,4.0,22,0.00,,FEW075,0.00,VWS V14.01,2013-05-06 18:34:00,
2013-05-06 11:35:00,73.9,31.6,29.22,ENE,65,3.1,4.0,21,0.00,,CLR,0.00,VWS V14.01,2013-05-06 18:35:00,
2013-05-06 11:36:00,73.2,31.0,29.22,ENE,60,5.8,6.7,21,0.00,,FEW075,0.00,VWS V14.01,2013-05-06 18:36:00,
2013-05-06 11:37:00,73.2,31.0,29.22,ENE,62,4.9,5.8,21,0.00,,FEW075,0.00,VWS V14.01,2013-05-06 18:37:00,
2013-05-06 11:38:00,73.2,31.0,29.22,NE,52,3.1,6.3,21,0.00,,FEW075,0.00,VWS V14.01,2013-05-06 18:38:00,
2013-05-06 11:39:00,73.2,32.1,29.22,ENE,67,4.9,6.3,22,0.00,,FEW075,0.00,VWS V14.01,2013-05-06 18:39:00,
2013-05-06 11:40:00,74.3,31.9,29.22,ENE,64,3.6,3.6,21,0.00,,CLR,0.00,VWS V14.01,2013-05-06 18:40:00,
2013-05-06 11:41:00,73.4,31.1,29.22,ESE,104,2.2,6.3,21,0.00,,FEW075,0.00,VWS V14.01,2013-05-06 18:41:00,
2013-05-06 11:42:00,73.4,31.1,29.22,SSE,165,2.7,5.4,21,0.00,,FEW075,0.00,VWS V14.01,2013-05-06 18:42:00,
2013-05-06 11:43:00,73.6,31.3,29.22,ESE,104,2.7,4.9,21,0.00,,FEW075,0.00,VWS V14.01,2013-05-06 18:43:00,
2013-05-06 11:44:00,73.8,31.4,29.22,ENE,57,2.7,3.6,21,0.00,,FEW075,0.00,VWS V14.01,2013-05-06 18:44:00,
2013-05-06 11:45:00,74.7,32.2,29.22,East,85,2.2,5.4,21,0.00,,CLR,0.00,VWS V14.01,2013-05-06 18:45:00,
2013-05-06 11:46:00,73.9,31.6,29.22,ENE,59,3.1,5.8,21,0.00,,FEW075,0.00,VWS V14.01,2013-05-06 18:46:00,
2013-05-06 11:47:00,73.9,31.6,29.22,East,81,4.0,4.0,21,0.00,,FEW075,0.00,VWS V14.01,2013-05-06 18:47:00,
2013-05-06 11:48:00,73.9,31.6,29.22,NE,47,6.3,6.3,21,0.00,,FEW075,0.00,VWS V14.01,2013-05-06 18:48:00,
2013-05-06 11:49:00,73.9,31.6,29.22,ENE,76,4.0,6.3,21,0.00,,FEW075,0.00,VWS V14.01,2013-05-06 18:49:00,
2013-05-06 11:50:00,75.0,32.5,29.22,ENE,73,2.7,3.1,21,0.00,,CLR,0.00,VWS V14.01,2013-05-06 18:50:00,
2013-05-06 11:51:00,74.1,31.7,29.22,East,94,2.7,4.9,21,0.00,,FEW075,0.00,VWS V14.01,2013-05-06 18:51:00,
2013-05-06 11:52:00,74.1,31.7,29.22,ENE,64,3.1,4.0,21,0.00,,FEW075,0.00,VWS V14.01,2013-05-06 18:52:00,
2013-05-06 11:53:00,74.3,31.9,29.22,ENE,75,3.6,3.6,21,0.00,,FEW075,0.00,VWS V14.01,2013-05-06 18:53:00,
2013-05-06 11:54:00,74.5,32.0,29.22,NE,54,5.8,6.3,21,0.00,,FEW075,0.00,VWS V14.01,2013-05-06 18:54:00,
2013-05-06 11:55:00,75.2,31.4,29.19,East,80,6.3,8.1,20,0.00,,CLR,0.00,VWS V14.01,2013-05-06 18:55:00,
2013-05-06 11:56:00,74.5,32.0,29.22,East,88,3.6,4.0,21,0.00,,FEW075,0.00,VWS V14.01,2013-05-06 18:56:00,
2013-05-06 11:57:00,74.7,32.2,29.22,ENE,61,5.4,5.4,21,0.00,,FEW075,0.00,VWS V14.01,2013-05-06 18:57:00,
2013-05-06 11:58:00,74.7,32.2,29.22,East,93,3.1,5.4,21,0.00,,FEW075,0.00,VWS V14.01,2013-05-06 18:58:00,
2013-05-06 11:59:00,74.8,32.3,29.22,East,82,2.7,6.3,21,0.00,,FEW075,0.00,VWS V14.01,2013-05-06 18:59:00,
2013-05-06 12:00:00,75.4,31.6,29.19,ENE,69,3.1,3.1,20,0.00,,CLR,0.00,VWS V14.01,2013-05-06 19:00:00,
2013-05-06 12:01:00,75.0,32.5,29.22,East,94,4.9,4.9,21,0.00,,FEW075,0.00,VWS V14.01,2013-05-06 19:01:00,
2013-05-06 12:02:00,75.0,32.5,29.22,East,88,3.1,4.9,21,0.00,,FEW075,0.00,VWS V14.01,2013-05-06 19:02:00,
2013-05-06 12:03:00,75.0,32.5,29.22,ENE,63,2.7,3.6,21,0.00,,FEW075,0.00,VWS V14.01,2013-05-06 19:03:00,
2013-05-06 12:04:00,75.2,32.6,29.22,ENE,72,5.8,6.3,21,0.00,,FEW075,0.00,VWS V14.01,2013-05-06 19:04:00,
2013-05-06 12:05:00,75.6,29.1,29.19,ENE,76,3.6,5.4,18,0.00,,CLR,0.00,VWS V14.01,2013-05-06 19:05:00,
2013-05-06 12:06:00,75.2,31.4,29.19,East,90,3.1,5.8,20,0.00,,FEW075,0.00,VWS V14.01,2013-05-06 19:06:00,
2013-05-06 12:07:00,75.2,31.4,29.19,East,81,8.1,8.1,20,0.00,,FEW075,0.00,VWS V14.01,2013-05-06 19:07:00,
2013-05-06 12:08:00,75.4,31.6,29.19,ESE,106,3.6,8.1,20,0.00,,FEW075,0.00,VWS V14.01,2013-05-06 19:08:00,
2013-05-06 12:09:00,75.4,31.6,29.19,ENE,68,5.4,5.4,20,0.00,,FEW075,0.00,VWS V14.01,2013-05-06 19:09:00,
2013-05-06 12:10:00,75.7,29.3,29.19,ENE,77,2.2,4.9,18,0.00,,CLR,0.00,VWS V14.01,2013-05-06 19:10:00,
2013-05-06 12:11:00,75.4,31.6,29.19,East,94,5.8,5.8,20,0.00,,FEW075,0.00,VWS V14.01,2013-05-06 19:11:00,
2013-05-06 12:12:00,75.4,31.6,29.19,East,83,3.1,5.8,20,0.00,,FEW075,0.00,VWS V14.01,2013-05-06 19:12:00,
2013-05-06 12:13:00,75.4,31.6,29.19,East,90,3.1,4.9,20,0.00,,FEW075,0.00,VWS V14.01,2013-05-06 19:13:00,
2013-05-06 12:14:00,75.4,31.6,29.19,ENE,63,5.4,5.8,20,0.00,,FEW075,0.00,VWS V14.01,2013-05-06 19:14:00,
2013-05-06 12:15:00,75.9,29.4,29.19,ENE,78,2.7,4.0,18,0.00,,CLR,0.00,VWS V14.01,2013-05-06 19:15:00,
2013-05-06 12:16:00,75.6,29.1,29.19,ENE,78,4.0,4.0,18,0.00,,FEW075,0.00,VWS V14.01,2013-05-06 19:16:00,
2013-05-06 12:17:00,75.6,29.1,29.19,ENE,71,5.4,5.4,18,0.00,,FEW075,0.00,VWS V14.01,2013-05-06 19:17:00,
2013-05-06 12:18:00,75.6,29.1,29.19,East,91,7.6,7.6,18,0.00,,FEW075,0.00,VWS V14.01,2013-05-06 19:18:00,
2013-05-06 12:19:00,76.3,29.7,29.19,ENE,61,5.4,5.8,18,0.00,,CLR,0.00,VWS V14.01,2013-05-06 19:19:00,
2013-05-06 12:20:00,75.7,29.3,29.19,NE,43,3.6,7.6,18,0.00,,FEW075,0.00,VWS V14.01,2013-05-06 19:20:00,
2013-05-06 12:21:00,75.7,29.3,29.19,ESE,105,3.6,4.0,18,0.00,,FEW075,0.00,VWS V14.01,2013-05-06 19:21:00,
2013-05-06 12:22:00,75.7,29.3,29.19,ENE,77,4.9,5.4,18,0.00,,FEW075,0.00,VWS V14.01,2013-05-06 19:22:00,
2013-05-06 12:23:00,75.7,29.3,29.19,East,98,3.1,4.9,18,0.00,,FEW075,0.00,VWS V14.01,2013-05-06 19:23:00,
2013-05-06 12:24:00,76.5,29.9,29.19,ENE,64,4.0,4.0,18,0.00,,CLR,0.00,VWS V14.01,2013-05-06 19:24:00,
2013-05-06 12:25:00,75.7,31.9,29.19,NE,54,3.1,4.9,20,0.00,,FEW075,0.00,VWS V14.01,2013-05-06 19:25:00,
2013-05-06 12:26:00,75.9,32.0,29.19,NNW,333,3.1,3.6,20,0.00,,FEW075,0.00,VWS V14.01,2013-05-06 19:26:00,
2013-05-06 12:27:00,75.9,29.4,29.19,ENE,58,4.0,4.0,18,0.00,,FEW075,0.00,VWS V14.01,2013-05-06 19:27:00,
2013-05-06 12:28:00,76.1,29.6,29.19,East,87,6.3,6.3,18,0.00,,FEW075,0.00,VWS V14.01,2013-05-06 19:28:00,
2013-05-06 12:29:00,76.5,29.9,29.19,ENE,78,4.0,4.0,18,0.00,,CLR,0.00,VWS V14.01,2013-05-06 19:29:00,
2013-05-06 12:30:00,76.1,29.6,29.19,ENE,63,3.1,7.2,18,0.00,,FEW075,0.00,VWS V14.01,2013-05-06 19:30:00,
2013-05-06 12:31:00,76.1,29.6,29.19,ENE,63,3.1,3.1,18,0.00,,FEW075,0.00,VWS V14.01,2013-05-06 19:31:00,
2013-05-06 12:32:00,76.3,29.7,29.19,ENE,59,3.1,5.4,18,0.00,,FEW075,0.00,VWS V14.01,2013-05-06 19:32:00,
2013-05-06 12:33:00,76.3,29.7,29.19,ENE,71,5.8,5.8,18,0.00,,FEW075,0.00,VWS V14.01,2013-05-06 19:33:00,
2013-05-06 12:34:00,76.6,30.0,29.19,NE,54,5.4,5.4,18,0.00,,CLR,0.00,VWS V14.01,2013-05-06 19:34:00,
2013-05-06 12:35:00,76.3,29.7,29.19,ENE,78,5.4,7.6,18,0.00,,FEW075,0.00,VWS V14.01,2013-05-06 19:35:00,
2013-05-06 12:36:00,76.3,29.7,29.19,ENE,68,5.8,5.8,18,0.00,,FEW075,0.00,VWS V14.01,2013-05-06 19:36:00,
2013-05-06 12:37:00,76.5,29.9,29.19,NE,55,6.3,6.3,18,0.00,,FEW075,0.00,VWS V14.01,2013-05-06 19:37:00,
2013-05-06 12:38:00,76.3,29.7,29.19,ENE,74,3.1,6.3,18,0.00,,FEW075,0.00,VWS V14.01,2013-05-06 19:38:00,
2013-05-06 12:39:00,76.8,30.1,29.19,NE,48,5.4,5.4,18,0.00,,CLR,0.00,VWS V14.01,2013-05-06 19:39:00,
2013-05-06 12:40:00,76.5,29.9,29.19,SSW,194,2.7,2.7,18,0.00,,FEW075,0.00,VWS V14.01,2013-05-06 19:40:00,
2013-05-06 12:41:00,76.5,29.9,29.19,SE,133,2.7,4.9,18,0.00,,FEW075,0.00,VWS V14.01,2013-05-06 19:41:00,
2013-05-06 12:42:00,76.5,29.9,29.19,NE,52,4.0,4.0,18,0.00,,FEW075,0.00,VWS V14.01,2013-05-06 19:42:00,
2013-05-06 12:43:00,76.5,29.9,29.19,East,81,4.0,4.0,18,0.00,,FEW075,0.00,VWS V14.01,2013-05-06 19:43:00,
2013-05-06 12:44:00,77.0,25.9,29.19,ENE,68,7.6,7.6,15,0.00,,CLR,0.00,VWS V14.01,2013-05-06 19:44:00,
2013-05-06 12:45:00,76.6,30.0,29.19,East,84,3.6,6.3,18,0.00,,FEW075,0.00,VWS V14.01,2013-05-06 19:45:00,
2013-05-06 12:46:00,76.6,25.6,29.19,ENE,61,4.9,5.4,15,0.00,,FEW075,0.00,VWS V14.01,2013-05-06 19:46:00,
2013-05-06 12:47:00,76.6,30.0,29.19,ENE,72,3.1,4.9,18,0.00,,FEW075,0.00,VWS V14.01,2013-05-06 19:47:00,
2013-05-06 12:48:00,76.6,30.0,29.19,NE,54,5.4,5.4,18,0.00,,FEW075,0.00,VWS V14.01,2013-05-06 19:48:00,
2013-05-06 12:49:00,77.2,26.0,29.19,ESE,110,3.6,4.0,15,0.00,,CLR,0.00,VWS V14.01,2013-05-06 19:49:00,
2013-05-06 12:50:00,76.6,30.0,29.19,ENE,59,3.6,6.3,18,0.00,,FEW075,0.00,VWS V14.01,2013-05-06 19:50:00,
2013-05-06 12:51:00,76.6,30.0,29.19,ENE,72,5.8,6.3,18,0.00,,FEW075,0.00,VWS V14.01,2013-05-06 19:51:00,
2013-05-06 12:52:00,76.6,30.0,29.19,ENE,63,5.8,5.8,18,0.00,,FEW075,0.00,VWS V14.01,2013-05-06 19:52:00,
2013-05-06 12:53:00,76.8,30.1,29.19,ENE,76,5.4,5.8,18,0.00,,FEW075,0.00,VWS V14.01,2013-05-06 19:53:00,
2013-05-06 12:54:00,77.4,30.6,29.19,East,91,2.7,3.1,18,0.00,,CLR,0.00,VWS V14.01,2013-05-06 19:54:00,
2013-05-06 12:55:00,76.8,25.7,29.19,ENE,73,4.0,4.0,15,0.00,,FEW075,0.00,VWS V14.01,2013-05-06 19:55:00,
2013-05-06 12:56:00,77.0,30.3,29.19,East,82,3.6,4.0,18,0.00,,FEW075,0.00,VWS V14.01,2013-05-06 19:56:00,
2013-05-06 12:57:00,77.0,30.3,29.19,ENE,73,4.9,4.9,18,0.00,,FEW075,0.00,VWS V14.01,2013-05-06 19:57:00,
2013-05-06 12:58:00,77.0,25.9,29.19,ENE,69,6.3,6.7,15,0.00,,FEW075,0.00,VWS V14.01,2013-05-06 19:58:00,
2013-05-06 12:59:00,77.4,26.1,29.19,East,92,4.0,7.6,15,0.00,,CLR,0.00,VWS V14.01,2013-05-06 19:59:00,
2013-05-06 13:00:00,77.0,25.9,29.19,ENE,71,3.6,4.9,15,0.00,,FEW075,0.00,VWS V14.01,2013-05-06 20:00:00,
2013-05-06 13:01:00,77.0,30.3,29.19,NE,55,5.4,5.8,18,0.00,,FEW075,0.00,VWS V14.01,2013-05-06 20:01:00,
2013-05-06 13:02:00,77.2,30.4,29.19,ENE,64,0.0,5.4,18,0.00,,FEW075,0.00,VWS V14.01,2013-05-06 20:02:00,
2013-05-06 13:03:00,77.2,26.0,29.19,ESE,106,4.0,4.0,15,0.00,,FEW075,0.00,VWS V14.01,2013-05-06 20:03:00,
2013-05-06 13:04:00,77.7,26.4,29.19,ENE,69,3.6,4.9,15,0.00,,CLR,0.00,VWS V14.01,2013-05-06 20:04:00,
2013-05-06 13:05:00,77.2,30.4,29.19,ENE,67,3.6,4.0,18,0.00,,FEW075,0.00,VWS V14.01,2013-05-06 20:05:00,
2013-05-06 13:06:00,77.2,26.0,29.19,East,90,3.6,6.7,15,0.00,,FEW075,0.00,VWS V14.01,2013-05-06 20:06:00,
2013-05-06 13:07:00,77.4,26.1,29.19,SSW,201,0.0,3.6,15,0.00,,FEW075,0.00,VWS V14.01,2013-05-06 20:07:00,
2013-05-06 13:08:00,77.4,30.6,29.19,ENE,75,3.1,3.1,18,0.00,,FEW075,0.00,VWS V14.01,2013-05-06 20:08:00,
2013-05-06 13:09:00,77.7,26.4,29.19,ENE,72,0.0,0.0,15,0.00,,CLR,0.00,VWS V14.01,2013-05-06 20:09:00,
2013-05-06 13:10:00,77.4,26.1,29.19,ENE,71,4.0,6.3,15,0.00,,FEW075,0.00,VWS V14.01,2013-05-06 20:10:00,
2013-05-06 13:11:00,77.4,26.1,29.19,ENE,70,4.9,4.9,15,0.00,,FEW075,0.00,VWS V14.01,2013-05-06 20:11:00,
2013-05-06 13:12:00,77.4,26.1,29.19,NNE,12,6.3,6.3,15,0.00,,FEW075,0.00,VWS V14.01,2013-05-06 20:12:00,
2013-05-06 13:13:00,77.4,26.1,29.19,East,92,4.0,7.6,15,0.00,,FEW075,0.00,VWS V14.01,2013-05-06 20:13:00,
2013-05-06 13:14:00,77.9,26.6,29.19,SSE,149,4.0,4.0,15,0.00,,CLR,0.00,VWS V14.01,2013-05-06 20:14:00,
2013-05-06 13:15:00,77.5,26.3,29.19,ENE,75,5.8,5.8,15,0.00,,FEW075,0.00,VWS V14.01,2013-05-06 20:15:00,
2013-05-06 13:16:00,77.5,26.3,29.19,NE,55,5.4,5.8,15,0.00,,FEW075,0.00,VWS V14.01,2013-05-06 20:16:00,
2013-05-06 13:17:00,77.7,26.4,29.19,ENE,69,4.0,5.4,15,0.00,,FEW075,0.00,VWS V14.01,2013-05-06 20:17:00,
2013-05-06 13:18:00,77.7,26.4,29.19,ENE,75,4.9,5.4,15,0.00,,FEW075,0.00,VWS V14.01,2013-05-06 20:18:00,
2013-05-06 13:19:00,77.9,26.6,29.19,ESE,108,3.1,3.1,15,0.00,,CLR,0.00,VWS V14.01,2013-05-06 20:19:00,
2013-05-06 13:20:00,77.7,26.4,29.19,ENE,67,3.6,4.0,15,0.00,,FEW075,0.00,VWS V14.01,2013-05-06 20:20:00,
2013-05-06 13:21:00,77.7,26.4,29.19,ENE,66,3.6,5.4,15,0.00,,FEW075,0.00,VWS V14.01,2013-05-06 20:21:00,
2013-05-06 13:22:00,77.7,26.4,29.19,ENE,72,4.0,4.0,15,0.00,,FEW075,0.00,VWS V14.01,2013-05-06 20:22:00,
2013-05-06 13:23:00,77.7,26.4,29.19,ENE,72,0.0,4.0,15,0.00,,FEW075,0.00,VWS V14.01,2013-05-06 20:23:00,
2013-05-06 13:24:00,78.1,31.2,29.16,East,82,0.0,3.6,18,0.00,,CLR,0.00,VWS V14.01,2013-05-06 20:24:00,
2013-05-06 13:25:00,77.7,26.4,29.19,ENE,62,2.7,3.6,15,0.00,,FEW075,0.00,VWS V14.01,2013-05-06 20:25:00,
2013-05-06 13:26:00,77.9,26.6,29.19,East,90,2.7,3.1,15,0.00,,FEW075,0.00,VWS V14.01,2013-05-06 20:26:00,
2013-05-06 13:27:00,77.9,26.6,29.19,ENE,72,3.1,4.0,15,0.00,,FEW075,0.00,VWS V14.01,2013-05-06 20:27:00,
2013-05-06 13:28:00,77.9,26.6,29.19,South,174,3.6,3.6,15,0.00,,FEW075,0.00,VWS V14.01,2013-05-06 20:28:00,
2013-05-06 13:29:00,78.3,26.9,29.16,East,82,3.1,3.6,15,0.00,,CLR,0.00,VWS V14.01,2013-05-06 20:29:00,
2013-05-06 13:30:00,77.9,26.6,29.19,ENE,75,3.6,8.1,15,0.00,,FEW075,0.00,VWS V14.01,2013-05-06 20:30:00,
2013-05-06 13:31:00,77.9,26.6,29.19,ENE,75,3.6,3.6,15,0.00,,FEW075,0.00,VWS V14.01,2013-05-06 20:31:00,
2013-05-06 13:32:00,77.9,26.6,29.19,NNE,33,4.0,5.4,15,0.00,,FEW075,0.00,VWS V14.01,2013-05-06 20:32:00,
2013-05-06 13:33:00,77.9,26.6,29.19,East,98,3.1,4.0,15,0.00,,FEW075,0.00,VWS V14.01,2013-05-06 20:33:00,
2013-05-06 13:34:00,78.4,27.0,29.16,ENE,57,3.1,3.6,15,0.00,,CLR,0.00,VWS V14.01,2013-05-06 20:34:00,
2013-05-06 13:35:00,77.9,26.6,29.16,NE,36,2.7,3.1,15,0.00,,FEW075,0.00,VWS V14.01,2013-05-06 20:35:00,
2013-05-06 13:36:00,77.9,26.6,29.16,South,181,2.7,2.7,15,0.00,,FEW075,0.00,VWS V14.01,2013-05-06 20:36:00,
2013-05-06 13:37:00,77.9,26.6,29.16,East,79,3.6,4.0,15,0.00,,FEW075,0.00,VWS V14.01,2013-05-06 20:37:00,
2013-05-06 13:38:00,78.1,31.2,29.16,East,82,0.0,3.6,18,0.00,,FEW075,0.00,VWS V14.01,2013-05-06 20:38:00,
2013-05-06 13:39:00,78.1,26.7,29.16,East,100,3.6,4.0,15,0.00,,CLR,0.00,VWS V14.01,2013-05-06 20:39:00,
2013-05-06 13:40:00,78.1,26.7,29.16,South,190,3.1,4.0,15,0.00,,FEW075,0.00,VWS V14.01,2013-05-06 20:40:00,
2013-05-06 13:41:00,78.3,26.9,29.16,ESE,109,2.7,3.6,15,0.00,,FEW075,0.00,VWS V14.01,2013-05-06 20:41:00,
2013-05-06 13:42:00,78.3,26.9,29.16,East,82,5.4,6.3,15,0.00,,FEW075,0.00,VWS V14.01,2013-05-06 20:42:00,
2013-05-06 13:43:00,78.3,26.9,29.16,East,82,3.6,5.4,15,0.00,,FEW075,0.00,VWS V14.01,2013-05-06 20:43:00,
2013-05-06 13:44:00,78.1,26.7,29.16,ENE,68,4.9,4.9,15,0.00,,CLR,0.00,VWS V14.01,2013-05-06 20:44:00,
2013-05-06 13:45:00,78.3,26.9,29.16,ENE,60,3.1,3.6,15,0.00,,FEW075,0.00,VWS V14.01,2013-05-06 20:45:00,
2013-05-06 13:46:00,78.4,27.0,29.16,ENE,57,3.1,4.0,15,0.00,,FEW075,0.00,VWS V14.01,2013-05-06 20:46:00,
2013-05-06 13:47:00,78.4,27.0,29.16,ENE,64,3.1,3.6,15,0.00,,FEW075,0.00,VWS V14.01,2013-05-06 20:47:00,
2013-05-06 13:48:00,78.4,27.0,29.16,ENE,57,3.1,3.6,15,0.00,,FEW075,0.00,VWS V14.01,2013-05-06 20:48:00,
2013-05-06 13:49:00,78.1,26.7,29.16,NNE,21,3.6,4.5,15,0.00,,CLR,0.00,VWS V14.01,2013-05-06 20:49:00,
2013-05-06 13:50:00,78.3,26.9,29.16,NE,56,2.7,2.7,15,0.00,,FEW075,0.00,VWS V14.01,2013-05-06 20:50:00,
2013-05-06 13:51:00,78.3,26.9,29.16,NE,55,0.0,4.0,15,0.00,,FEW075,0.00,VWS V14.01,2013-05-06 20:51:00,
2013-05-06 13:52:00,78.1,26.7,29.16,East,80,4.0,4.0,15,0.00,,FEW075,0.00,VWS V14.01,2013-05-06 20:52:00,
2013-05-06 13:53:00,78.1,26.7,29.16,ESE,103,4.0,4.9,15,0.00,,FEW075,0.00,VWS V14.01,2013-05-06 20:53:00,
2013-05-06 13:54:00,77.7,26.4,29.16,East,87,0.0,0.0,15,0.00,,CLR,0.00,VWS V14.01,2013-05-06 20:54:00,
2013-05-06 13:55:00,78.1,26.7,29.16,NNW,341,3.1,4.0,15,0.00,,FEW075,0.00,VWS V14.01,2013-05-06 20:55:00,
2013-05-06 13:56:00,78.1,26.7,29.16,NE,56,3.6,3.6,15,0.00,,FEW075,0.00,VWS V14.01,2013-05-06 20:56:00,
2013-05-06 13:57:00,78.1,26.7,29.16,NNE,31,2.7,4.0,15,0.00,,FEW075,0.00,VWS V14.01,2013-05-06 20:57:00,
2013-05-06 13:58:00,78.1,26.7,29.16,ENE,68,4.9,4.9,15,0.00,,FEW075,0.00,VWS V14.01,2013-05-06 20:58:00,
2013-05-06 13:59:00,76.8,25.7,29.16,NNW,346,2.7,3.1,15,0.00,,CLR,0.00,VWS V14.01,2013-05-06 20:59:00,
2013-05-06 14:00:00,78.1,26.7,29.16,ENE,73,5.4,6.3,15,0.00,,FEW075,0.00,VWS V14.01,2013-05-06 21:00:00,
2013-05-06 14:01:00,78.1,26.7,29.16,ENE,67,2.7,5.4,15,0.00,,FEW075,0.00,VWS V14.01,2013-05-06 21:01:00,
2013-05-06 14:02:00,78.1,26.7,29.16,ENE,72,4.0,5.8,15,0.00,,FEW075,0.00,VWS V14.01,2013-05-06 21:02:00,
2013-05-06 14:03:00,78.1,26.7,29.16,ENE,67,4.5,5.4,15,0.00,,FEW075,0.00,VWS V14.01,2013-05-06 21:03:00,
2013-05-06 14:04:00,76.5,25.4,29.16,WSW,246,4.0,4.0,15,0.00,,FEW042,0.00,VWS V14.01,2013-05-06 21:04:00,
2013-05-06 14:05:00,77.9,26.6,29.16,East,88,4.0,4.0,15,0.00,,FEW075,0.00,VWS V14.01,2013-05-06 21:05:00,
2013-05-06 14:06:00,77.7,26.4,29.16,ESE,107,3.1,4.0,15,0.00,,FEW075,0.00,VWS V14.01,2013-05-06 21:06:00,
2013-05-06 14:07:00,77.7,26.4,29.16,East,89,2.7,4.0,15,0.00,,FEW075,0.00,VWS V14.01,2013-05-06 21:07:00,
2013-05-06 14:08:00,77.7,26.4,29.16,East,87,0.0,2.7,15,0.00,,FEW075,0.00,VWS V14.01,2013-05-06 21:08:00,
2013-05-06 14:09:00,76.6,25.6,29.16,East,89,4.0,4.0,15,0.00,,FEW042,0.00,VWS V14.01,2013-05-06 21:09:00,
2013-05-06 14:10:00,77.4,26.1,29.16,East,87,0.0,2.2,15,0.00,,FEW075,0.00,VWS V14.01,2013-05-06 21:10:00,
2013-05-06 14:11:00,77.4,26.1,29.16,ENE,73,2.2,3.1,15,0.00,,FEW075,0.00,VWS V14.01,2013-05-06 21:11:00,
2013-05-06 14:12:00,77.0,25.9,29.16,North,353,2.7,3.1,15,0.00,,FEW075,0.00,VWS V14.01,2013-05-06 21:12:00,
2013-05-06 14:13:00,76.8,25.7,29.16,NNW,346,2.7,3.1,15,0.00,,FEW075,0.00,VWS V14.01,2013-05-06 21:13:00,
2013-05-06 14:14:00,77.0,25.9,29.16,ENE,70,2.7,4.0,15,0.00,,FEW042,0.00,VWS V14.01,2013-05-06 21:14:00,
2013-05-06 14:15:00,76.8,25.7,29.16,NNW,348,0.0,2.2,15,0.00,,FEW075,0.00,VWS V14.01,2013-05-06 21:15:00,
2013-05-06 14:16:00,76.6,25.6,29.16,ENE,65,2.2,2.7,15,0.00,,FEW075,0.00,VWS V14.01,2013-05-06 21:16:00,
2013-05-06 14:17:00,76.6,25.6,29.16,ENE,65,0.0,2.2,15,0.00,,FEW075,0.00,VWS V14.01,2013-05-06 21:17:00,
2013-05-06 14:18:00,76.5,25.4,29.16,WSW,238,3.6,3.6,15,0.00,,FEW075,0.00,VWS V14.01,2013-05-06 21:18:00,
2013-05-06 14:19:00,77.4,26.1,29.16,ENE,63,2.7,6.3,15,0.00,,FEW042,0.00,VWS V14.01,2013-05-06 21:19:00,
2013-05-06 14:20:00,76.3,25.3,29.16,NNW,341,2.2,2.7,15,0.00,,FEW075,0.00,VWS V14.01,2013-05-06 21:20:00,
2013-05-06 14:21:00,76.3,25.3,29.16,NE,37,2.7,2.7,15,0.00,,FEW075,0.00,VWS V14.01,2013-05-06 21:21:00,
2013-05-06 14:22:00,76.5,25.4,29.16,NE,54,3.6,6.3,15,0.00,,FEW075,0.00,VWS V14.01,2013-05-06 21:22:00,
2013-05-06 14:23:00,76.6,25.6,29.16,East,89,4.0,4.0,15,0.00,,FEW075,0.00,VWS V14.01,2013-05-06 21:23:00,
2013-05-06 14:24:00,77.0,25.9,29.16,NNE,32,0.0,3.1,15,0.00,,FEW042,0.00,VWS V14.01,2013-05-06 21:24:00,
2013-05-06 14:25:00,76.8,25.7,29.16,ENE,66,2.7,4.9,15,0.00,,FEW075,0.00,VWS V14.01,2013-05-06 21:25:00,
2013-05-06 14:26:00,77.0,25.9,29.16,NE,43,3.6,4.0,15,0.00,,FEW075,0.00,VWS V14.01,2013-05-06 21:26:00,
2013-05-06 14:27:00,77.0,25.9,29.16,NNE,18,4.0,4.0,15,0.00,,FEW075,0.00,VWS V14.01,2013-05-06 21:27:00,
2013-05-06 14:28:00,77.0,25.9,29.16,ENE,70,2.7,4.0,15,0.00,,FEW075,0.00,VWS V14.01,2013-05-06 21:28:00,
2013-05-06 14:29:00,76.6,25.6,29.16,NE,42,3.1,4.0,15,0.00,,FEW042,0.00,VWS V14.01,2013-05-06 21:29:00,
2013-05-06 14:30:00,77.2,26.0,29.16,ENE,72,3.6,5.4,15,0.00,,FEW075,0.00,VWS V14.01,2013-05-06 21:30:00,
2013-05-06 14:31:00,77.2,26.0,29.16,East,91,2.7,4.9,15,0.00,,FEW075,0.00,VWS V14.01,2013-05-06 21:31:00,
2013-05-06 14:32:00,77.4,26.1,29.16,NNE,29,6.3,6.7,15,0.00,,FEW075,0.00,VWS V14.01,2013-05-06 21:32:00,
2013-05-06 14:33:00,77.4,26.1,29.16,ENE,63,2.7,6.3,15,0.00,,FEW075,0.00,VWS V14.01,2013-05-06 21:33:00,
2013-05-06 14:34:00,77.2,26.0,29.16,East,93,3.1,4.0,15,0.00,,FEW042,0.00,VWS V14.01,2013-05-06 21:34:00,
2013-05-06 14:35:00,77.2,26.0,29.16,NW,326,3.6,5.8,15,0.00,,FEW075,0.00,VWS V14.01,2013-05-06 21:35:00,
2013-05-06 14:36:00,77.2,26.0,29.16,NNW,335,0.0,3.6,15,0.00,,FEW075,0.00,VWS V14.01,2013-05-06 21:36:00,
2013-05-06 14:37:00,77.2,26.0,29.16,NNE,32,3.1,4.9,15,0.00,,FEW075,0.00,VWS V14.01,2013-05-06 21:37:00,
2013-05-06 14:38:00,77.0,25.9,29.16,NNE,32,0.0,3.1,15,0.00,,FEW075,0.00,VWS V14.01,2013-05-06 21:38:00,
2013-05-06 14:39:00,76.8,25.7,29.16,NNE,33,4.0,4.0,15,0.00,,FEW042,0.00,VWS V14.01,2013-05-06 21:39:00,
2013-05-06 14:40:00,76.8,25.7,29.16,East,84,0.0,2.2,15,0.00,,FEW075,0.00,VWS V14.01,2013-05-06 21:40:00,
2013-05-06 14:41:00,76.6,25.6,29.16,ENE,69,2.7,2.7,15,0.00,,FEW075,0.00,VWS V14.01,2013-05-06 21:41:00,
2013-05-06 14:42:00,76.6,25.6,29.16,East,86,3.1,4.0,15,0.00,,FEW075,0.00,VWS V14.01,2013-05-06 21:42:00,
2013-05-06 14:43:00,76.6,25.6,29.16,NE,42,3.1,4.0,15,0.00,,FEW075,0.00,VWS V14.01,2013-05-06 21:43:00,
2013-05-06 14:44:00,76.6,25.6,29.16,NNE,32,6.3,6.3,15,0.00,,FEW042,0.00,VWS V14.01,2013-05-06 21:44:00,
2013-05-06 14:45:00,76.8,25.7,29.16,East,85,4.9,4.9,15,0.00,,FEW075,0.00,VWS V14.01,2013-05-06 21:45:00,
2013-05-06 14:46:00,77.0,25.9,29.16,NE,37,5.4,5.4,15,0.00,,FEW075,0.00,VWS V14.01,2013-05-06 21:46:00,
2013-05-06 14:47:00,77.2,26.0,29.16,NE,52,4.0,5.8,15,0.00,,FEW075,0.00,VWS V14.01,2013-05-06 21:47:00,
2013-05-06 14:48:00,77.2,26.0,29.16,East,93,3.1,4.0,15,0.00,,FEW075,0.00,VWS V14.01,2013-05-06 21:48:00,
2013-05-06 14:49:00,77.0,25.9,29.16,NE,43,0.0,3.6,15,0.00,,FEW042,0.00,VWS V14.01,2013-05-06 21:49:00,
2013-05-06 14:50:00,77.0,25.9,29.16,NE,36,2.7,4.0,15,0.00,,FEW075,0.00,VWS V14.01,2013-05-06 21:50:00,
2013-05-06 14:51:00,77.0,25.9,29.16,NE,36,0.0,2.7,15,0.00,,FEW075,0.00,VWS V14.01,2013-05-06 21:51:00,
2013-05-06 14:52:00,76.6,25.6,29.16,NE,35,2.2,2.2,15,0.00,,FEW075,0.00,VWS V14.01,2013-05-06 21:52:00,
2013-05-06 14:53:00,76.8,25.7,29.16,NNE,33,4.0,4.0,15,0.00,,FEW075,0.00,VWS V14.01,2013-05-06 21:53:00,
2013-05-06 14:54:00,76.3,25.3,29.16,NNW,341,2.7,2.7,15,0.00,,FEW042,0.00,VWS V14.01,2013-05-06 21:54:00,
2013-05-06 14:55:00,76.6,25.6,29.16,NNW,343,0.0,3.6,15,0.00,,FEW075,0.00,VWS V14.01,2013-05-06 21:55:00,
2013-05-06 14:56:00,76.6,25.6,29.16,NNW,343,0.0,2.7,15,0.00,,FEW075,0.00,VWS V14.01,2013-05-06 21:56:00,
2013-05-06 14:57:00,76.5,25.4,29.16,NW,320,3.6,4.0,15,0.00,,FEW075,0.00,VWS V14.01,2013-05-06 21:57:00,
2013-05-06 14:58:00,76.6,25.6,29.16,NNE,32,6.3,6.3,15,0.00,,FEW075,0.00,VWS V14.01,2013-05-06 21:58:00,
2013-05-06 14:59:00,75.7,24.9,29.16,West,261,0.0,3.1,15,0.00,,FEW042,0.00,VWS V14.01,2013-05-06 21:59:00,
2013-05-06 15:00:00,77.0,25.9,29.16,ENE,68,5.4,5.4,15,0.00,,FEW075,0.00,VWS V14.01,2013-05-06 22:00:00,
2013-05-06 15:01:00,77.0,25.9,29.16,East,95,4.0,6.3,15,0.00,,FEW075,0.00,VWS V14.01,2013-05-06 22:01:00,
2013-05-06 15:02:00,77.0,25.9,29.16,NE,43,3.6,4.0,15,0.00,,FEW075,0.00,VWS V14.01,2013-05-06 22:02:00,
2013-05-06 15:03:00,77.0,25.9,29.16,NE,43,0.0,3.6,15,0.00,,FEW075,0.00,VWS V14.01,2013-05-06 22:03:00,
2013-05-06 15:04:00,76.1,25.1,29.16,NNE,20,4.9,5.4,15,0.00,,FEW050,0.00,VWS V14.01,2013-05-06 22:04:00,
2013-05-06 15:05:00,76.6,25.6,29.16,NE,52,2.2,2.2,15,0.00,,FEW075,0.00,VWS V14.01,2013-05-06 22:05:00,
2013-05-06 15:06:00,76.6,25.6,29.16,NE,52,0.0,2.2,15,0.00,,FEW075,0.00,VWS V14.01,2013-05-06 22:06:00,
2013-05-06 15:07:00,76.5,25.4,29.16,NE,52,0.0,0.0,15,0.00,,FEW075,0.00,VWS V14.01,2013-05-06 22:07:00,
2013-05-06 15:08:00,76.3,25.3,29.16,NNW,341,2.7,2.7,15,0.00,,FEW075,0.00,VWS V14.01,2013-05-06 22:08:00,
2013-05-06 15:09:00,76.6,25.6,29.13,NW,325,2.7,2.7,15,0.00,,FEW050,0.00,VWS V14.01,2013-05-06 22:09:00,
2013-05-06 15:10:00,75.9,25.0,29.16,West,271,4.0,4.0,15,0.00,,FEW075,0.00,VWS V14.01,2013-05-06 22:10:00,
2013-05-06 15:11:00,75.7,24.9,29.16,West,279,5.8,5.8,15,0.00,,FEW075,0.00,VWS V14.01,2013-05-06 22:11:00,
2013-05-06 15:12:00,75.7,24.9,29.16,West,261,3.1,5.8,15,0.00,,FEW075,0.00,VWS V14.01,2013-05-06 22:12:00,
2013-05-06 15:13:00,75.7,24.9,29.16,West,261,0.0,3.1,15,0.00,,FEW075,0.00,VWS V14.01,2013-05-06 22:13:00,
2013-05-06 15:14:00,76.8,25.7,29.13,NW,323,2.7,2.7,15,0.00,,FEW050,0.00,VWS V14.01,2013-05-06 22:14:00,
2013-05-06 15:15:00,75.6,24.7,29.16,North,0,2.7,3.6,15,0.00,,FEW075,0.00,VWS V14.01,2013-05-06 22:15:00,
2013-05-06 15:16:00,75.6,24.7,29.16,NNE,15,4.0,5.8,15,0.00,,FEW075,0.00,VWS V14.01,2013-05-06 22:16:00,
2013-05-06 15:17:00,75.7,24.9,29.16,ENE,65,4.0,4.5,15,0.00,,FEW075,0.00,VWS V14.01,2013-05-06 22:17:00,
2013-05-06 15:18:00,76.1,25.1,29.16,NNE,20,4.9,5.4,15,0.00,,FEW075,0.00,VWS V14.01,2013-05-06 22:18:00,
2013-05-06 15:19:00,77.4,26.1,29.13,NE,53,3.6,3.6,15,0.00,,FEW050,0.00,VWS V14.01,2013-05-06 22:19:00,
2013-05-06 15:20:00,76.5,25.4,29.16,NW,314,4.0,4.0,15,0.00,,FEW075,0.00,VWS V14.01,2013-05-06 22:20:00,
2013-05-06 15:21:00,76.5,25.4,29.13,NW,325,3.1,4.0,15,0.00,,FEW075,0.00,VWS V14.01,2013-05-06 22:21:00,
2013-05-06 15:22:00,76.6,25.6,29.13,NW,325,2.2,3.6,15,0.00,,FEW075,0.00,VWS V14.01,2013-05-06 22:22:00,
2013-05-06 15:23:00,76.6,25.6,29.13,NW,325,2.7,2.7,15,0.00,,FEW075,0.00,VWS V14.01,2013-05-06 22:23:00,
2013-05-06 15:24:00,77.4,26.1,29.13,NNE,29,2.7,3.6,15,0.00,,FEW050,0.00,VWS V14.01,2013-05-06 22:24:00,
2013-05-06 15:25:00,76.8,25.7,29.13,NW,325,0.0,0.0,15,0.00,,FEW075,0.00,VWS V14.01,2013-05-06 22:25:00,
2013-05-06 15:26:00,76.8,25.7,29.13,NW,325,2.2,2.7,15,0.00,,FEW075,0.00,VWS V14.01,2013-05-06 22:26:00,
2013-05-06 15:27:00,76.8,25.7,29.13,NW,325,0.0,2.2,15,0.00,,FEW075,0.00,VWS V14.01,2013-05-06 22:27:00,
2013-05-06 15:28:00,76.8,25.7,29.13,NW,323,2.7,2.7,15,0.00,,FEW075,0.00,VWS V14.01,2013-05-06 22:28:00,
2013-05-06 15:29:00,77.7,26.4,29.13,NNE,29,3.6,3.6,15,0.00,,FEW050,0.00,VWS V14.01,2013-05-06 22:29:00,
2013-05-06 15:30:00,77.0,25.9,29.13,ENE,74,4.5,5.8,15,0.00,,FEW075,0.00,VWS V14.01,2013-05-06 22:30:00,
2013-05-06 15:31:00,77.2,26.0,29.13,East,82,3.1,4.5,15,0.00,,FEW075,0.00,VWS V14.01,2013-05-06 22:31:00,
2013-05-06 15:32:00,77.4,26.1,29.13,NNE,24,3.1,3.1,15,0.00,,FEW075,0.00,VWS V14.01,2013-05-06 22:32:00,
2013-05-06 15:33:00,77.4,26.1,29.13,NE,53,3.6,3.6,15,0.00,,FEW075,0.00,VWS V14.01,2013-05-06 22:33:00,
2013-05-06 15:34:00,78.3,26.9,29.13,NNE,27,4.0,4.0,15,0.00,,FEW050,0.00,VWS V14.01,2013-05-06 22:34:00,
2013-05-06 15:35:00,77.5,26.3,29.13,East,91,0.0,2.2,15,0.00,,FEW075,0.00,VWS V14.01,2013-05-06 22:35:00,
2013-05-06 15:36:00,77.4,26.1,29.13,SSE,154,3.6,3.6,15,0.00,,FEW075,0.00,VWS V14.01,2013-05-06 22:36:00,
2013-05-06 15:37:00,77.4,26.1,29.13,East,83,2.7,3.6,15,0.00,,FEW075,0.00,VWS V14.01,2013-05-06 22:37:00,
2013-05-06 15:38:00,77.4,26.1,29.13,NNE,29,2.7,3.6,15,0.00,,FEW075,0.00,VWS V14.01,2013-05-06 22:38:00,
2013-05-06 15:39:00,78.6,27.1,29.13,ENE,64,2.2,2.7,15,0.00,,FEW050,0.00,VWS V14.01,2013-05-06 22:39:00,
2013-05-06 15:40:00,77.4,26.1,29.13,NE,38,2.7,4.0,15,0.00,,FEW075,0.00,VWS V14.01,2013-05-06 22:40:00,
2013-05-06 15:41:00,77.5,26.3,29.13,East,95,4.0,4.0,15,0.00,,FEW075,0.00,VWS V14.01,2013-05-06 22:41:00,
2013-05-06 15:42:00,77.7,26.4,29.13,NNE,29,3.6,4.0,15,0.00,,FEW075,0.00,VWS V14.01,2013-05-06 22:42:00,
2013-05-06 15:43:00,77.7,26.4,29.13,NNE,29,2.7,3.6,15,0.00,,FEW075,0.00,VWS V14.01,2013-05-06 22:43:00,
2013-05-06 15:44:00,78.8,27.3,29.13,NE,49,2.7,4.9,15,0.00,,FEW050,0.00,VWS V14.01,2013-05-06 22:44:00,
2013-05-06 15:45:00,77.9,26.6,29.13,NNE,29,0.0,2.7,15,0.00,,FEW075,0.00,VWS V14.01,2013-05-06 22:45:00,
2013-05-06 15:46:00,77.9,26.6,29.13,ENE,78,3.6,4.0,15,0.00,,FEW075,0.00,VWS V14.01,2013-05-06 22:46:00,
2013-05-06 15:47:00,78.1,26.7,29.13,NE,35,4.0,4.9,15,0.00,,FEW075,0.00,VWS V14.01,2013-05-06 22:47:00,
2013-05-06 15:48:00,78.3,26.9,29.13,NNE,27,4.0,4.0,15,0.00,,FEW075,0.00,VWS V14.01,2013-05-06 22:48:00,
2013-05-06 15:49:00,79.3,27.7,29.13,East,79,4.0,4.0,15,0.00,,FEW050,0.00,VWS V14.01,2013-05-06 22:49:00,
2013-05-06 15:50:00,78.4,27.0,29.13,ENE,61,4.0,4.9,15,0.00,,FEW075,0.00,VWS V14.01,2013-05-06 22:50:00,
2013-05-06 15:51:00,78.4,27.0,29.13,NE,42,0.0,4.0,15,0.00,,FEW075,0.00,VWS V14.01,2013-05-06 22:51:00,
2013-05-06 15:52:00,78.6,27.1,29.13,ENE,63,2.7,3.1,15,0.00,,FEW075,0.00,VWS V14.01,2013-05-06 22:52:00,
2013-05-06 15:53:00,78.6,27.1,29.13,ENE,64,0.0,2.7,15,0.00,,FEW075,0.00,VWS V14.01,2013-05-06 22:53:00,
2013-05-06 15:54:00,79.7,28.0,29.13,ENE,73,0.0,0.0,15,0.00,,FEW050,0.00,VWS V14.01,2013-05-06 22:54:00,
2013-05-06 15:55:00,78.6,27.1,29.13,ENE,62,0.0,2.2,15,0.00,,FEW075,0.00,VWS V14.01,2013-05-06 22:55:00,
2013-05-06 15:56:00,78.6,27.1,29.13,ENE,62,0.0,0.0,15,0.00,,FEW075,0.00,VWS V14.01,2013-05-06 22:56:00,
2013-05-06 15:57:00,78.6,27.1,29.13,ENE,77,4.9,4.9,15,0.00,,FEW075,0.00,VWS V14.01,2013-05-06 22:57:00,
2013-05-06 15:58:00,78.8,27.3,29.13,NE,49,2.7,4.9,15,0.00,,FEW075,0.00,VWS V14.01,2013-05-06 22:58:00,
2013-05-06 15:59:00,79.9,28.1,29.13,SW,223,4.0,4.0,15,0.00,,FEW050,0.00,VWS V14.01,2013-05-06 22:59:00,
2013-05-06 16:00:00,79.0,27.4,29.13,East,82,2.2,3.6,15,0.00,,FEW075,0.00,VWS V14.01,2013-05-06 23:00:00,
2013-05-06 16:01:00,79.2,27.6,29.13,East,82,0.0,2.2,15,0.00,,FEW075,0.00,VWS V14.01,2013-05-06 23:01:00,
2013-05-06 16:02:00,79.3,27.7,29.13,East,82,0.0,0.0,15,0.00,,FEW075,0.00,VWS V14.01,2013-05-06 23:02:00,
2013-05-06 16:03:00,79.3,27.7,29.13,East,79,4.0,4.0,15,0.00,,FEW075,0.00,VWS V14.01,2013-05-06 23:03:00,
2013-05-06 16:04:00,79.9,28.1,29.13,SW,224,3.6,4.9,15,0.00,,FEW050,0.00,VWS V14.01,2013-05-06 23:04:00,
2013-05-06 16:05:00,79.5,27.9,29.13,East,99,2.7,3.1,15,0.00,,FEW075,0.00,VWS V14.01,2013-05-06 23:05:00,
2013-05-06 16:06:00,79.7,28.0,29.13,East,97,2.7,2.7,15,0.00,,FEW075,0.00,VWS V14.01,2013-05-06 23:06:00,
2013-05-06 16:07:00,79.7,28.0,29.13,ENE,73,0.0,3.6,15,0.00,,FEW075,0.00,VWS V14.01,2013-05-06 23:07:00,
2013-05-06 16:08:00,79.7,28.0,29.13,ENE,73,3.1,3.1,15,0.00,,FEW075,0.00,VWS V14.01,2013-05-06 23:08:00,
2013-05-06 16:09:00,79.7,28.0,29.13,South,171,4.0,4.0,15,0.00,,FEW050,0.00,VWS V14.01,2013-05-06 23:09:00,
2013-05-06 16:10:00,79.7,28.0,29.13,ENE,73,2.2,2.7,15,0.00,,FEW075,0.00,VWS V14.01,2013-05-06 23:10:00,
2013-05-06 16:11:00,79.9,28.1,29.13,ENE,73,0.0,2.2,15,0.00,,FEW075,0.00,VWS V14.01,2013-05-06 23:11:00,
2013-05-06 16:12:00,79.9,28.1,29.13,ENE,66,2.7,2.7,15,0.00,,FEW075,0.00,VWS V14.01,2013-05-06 23:12:00,
2013-05-06 16:13:00,79.9,28.1,29.13,SW,223,4.0,4.0,15,0.00,,FEW075,0.00,VWS V14.01,2013-05-06 23:13:00,
2013-05-06 16:14:00,79.9,28.1,29.13,SSW,197,2.2,3.1,15,0.00,,FEW050,0.00,VWS V14.01,2013-05-06 23:14:00,
2013-05-06 16:15:00,79.9,28.1,29.13,SSW,194,5.4,5.4,15,0.00,,FEW075,0.00,VWS V14.01,2013-05-06 23:15:00,
2013-05-06 16:16:00,79.9,28.1,29.13,SW,218,4.9,5.8,15,0.00,,FEW075,0.00,VWS V14.01,2013-05-06 23:16:00,
2013-05-06 16:17:00,79.9,28.1,29.13,SW,223,4.9,4.9,15,0.00,,FEW075,0.00,VWS V14.01,2013-05-06 23:17:00,
2013-05-06 16:18:00,79.9,28.1,29.13,SSW,213,4.0,4.9,15,0.00,,FEW075,0.00,VWS V14.01,2013-05-06 23:18:00,
2013-05-06 16:19:00,80.1,28.3,29.13,WSW,240,4.0,4.9,15,0.00,,FEW050,0.00,VWS V14.01,2013-05-06 23:19:00,
2013-05-06 16:20:00,79.7,28.0,29.13,SSW,213,2.7,5.8,15,0.00,,FEW075,0.00,VWS V14.01,2013-05-06 23:20:00,
2013-05-06 16:21:00,79.7,28.0,29.13,SSW,193,0.0,3.6,15,0.00,,FEW075,0.00,VWS V14.01,2013-05-06 23:21:00,
2013-05-06 16:22:00,79.7,28.0,29.13,SSW,193,0.0,0.0,15,0.00,,FEW075,0.00,VWS V14.01,2013-05-06 23:22:00,
2013-05-06 16:23:00,79.7,28.0,29.13,South,171,4.0,4.0,15,0.00,,FEW075,0.00,VWS V14.01,2013-05-06 23:23:00,
2013-05-06 16:24:00,80.4,28.6,29.13,WSW,252,3.1,4.0,15,0.00,,FEW050,0.00,VWS V14.01,2013-05-06 23:24:00,
2013-05-06 16:25:00,79.7,28.0,29.13,SW,225,3.6,3.6,15,0.00,,FEW075,0.00,VWS V14.01,2013-05-06 23:25:00,
2013-05-06 16:26:00,79.9,28.1,29.13,SW,225,2.2,3.6,15,0.00,,FEW075,0.00,VWS V14.01,2013-05-06 23:26:00,
2013-05-06 16:27:00,79.9,28.1,29.13,SW,225,0.0,2.7,15,0.00,,FEW075,0.00,VWS V14.01,2013-05-06 23:27:00,
2013-05-06 16:28:00,79.9,28.1,29.13,SSW,197,0.0,3.1,15,0.00,,FEW075,0.00,VWS V14.01,2013-05-06 23:28:00,
2013-05-06 16:29:00,81.3,27.6,29.13,WSW,252,0.0,0.0,14,0.00,,FEW050,0.00,VWS V14.01,2013-05-06 23:29:00,
2013-05-06 16:30:00,80.1,28.3,29.13,West,261,3.1,5.4,15,0.00,,FEW075,0.00,VWS V14.01,2013-05-06 23:30:00,
2013-05-06 16:31:00,80.1,28.3,29.13,SW,226,3.6,4.0,15,0.00,,FEW075,0.00,VWS V14.01,2013-05-06 23:31:00,
2013-05-06 16:32:00,80.1,28.3,29.13,WSW,244,4.0,4.0,15,0.00,,FEW075,0.00,VWS V14.01,2013-05-06 23:32:00,
2013-05-06 16:33:00,80.1,28.3,29.13,WSW,245,4.0,4.9,15,0.00,,FEW075,0.00,VWS V14.01,2013-05-06 23:33:00,
2013-05-06 16:34:00,82.4,28.5,29.13,NE,49,3.1,4.0,14,0.00,,FEW050,0.00,VWS V14.01,2013-05-06 23:34:00,
2013-05-06 16:35:00,80.2,28.4,29.13,SW,226,3.6,5.4,15,0.00,,FEW075,0.00,VWS V14.01,2013-05-06 23:35:00,
2013-05-06 16:36:00,80.2,28.4,29.13,WSW,243,4.5,4.9,15,0.00,,FEW075,0.00,VWS V14.01,2013-05-06 23:36:00,
2013-05-06 16:37:00,80.4,28.6,29.13,WSW,251,2.2,4.5,15,0.00,,FEW075,0.00,VWS V14.01,2013-05-06 23:37:00,
2013-05-06 16:38:00,80.4,28.6,29.13,WSW,252,3.1,4.0,15,0.00,,FEW075,0.00,VWS V14.01,2013-05-06 23:38:00,
2013-05-06 16:39:00,82.6,28.6,29.10,ENE,72,5.4,5.4,14,0.00,,FEW050,0.00,VWS V14.01,2013-05-06 23:39:00,
2013-05-06 16:40:00,80.8,27.2,29.13,WSW,252,0.0,0.0,14,0.00,,FEW075,0.00,VWS V14.01,2013-05-06 23:40:00,
2013-05-06 16:41:00,81.0,27.3,29.13,WSW,252,0.0,0.0,14,0.00,,FEW075,0.00,VWS V14.01,2013-05-06 23:41:00,
2013-05-06 16:42:00,81.1,27.5,29.13,WSW,252,0.0,0.0,14,0.00,,FEW075,0.00,VWS V14.01,2013-05-06 23:42:00,
2013-05-06 16:43:00,81.3,27.6,29.13,West,271,0.0,0.0,14,0.00,,FEW075,0.00,VWS V14.01,2013-05-06 23:43:00,
2013-05-06 16:44:00,83.5,29.3,29.10,SE,146,2.2,3.1,14,0.00,,FEW050,0.00,VWS V14.01,2013-05-06 23:44:00,
2013-05-06 16:45:00,81.5,27.8,29.13,NNE,25,5.4,5.4,14,0.00,,FEW075,0.00,VWS V14.01,2013-05-06 23:45:00,
2013-05-06 16:46:00,81.9,28.0,29.13,North,11,4.9,6.3,14,0.00,,FEW075,0.00,VWS V14.01,2013-05-06 23:46:00,
2013-05-06 16:47:00,82.0,28.2,29.13,NNE,23,4.0,4.9,14,0.00,,FEW075,0.00,VWS V14.01,2013-05-06 23:47:00,
2013-05-06 16:48:00,82.4,28.5,29.13,NE,49,3.1,4.0,14,0.00,,FEW075,0.00,VWS V14.01,2013-05-06 23:48:00,
2013-05-06 16:49:00,84.9,28.6,29.10,SW,217,2.7,3.1,13,0.00,,FEW050,0.00,VWS V14.01,2013-05-06 23:49:00,
2013-05-06 16:50:00,82.4,28.5,29.13,NNE,25,4.0,4.0,14,0.00,,FEW075,0.00,VWS V14.01,2013-05-06 23:50:00,
2013-05-06 16:51:00,82.6,28.6,29.10,NE,46,2.2,4.0,14,0.00,,FEW075,0.00,VWS V14.01,2013-05-06 23:51:00,
2013-05-06 16:52:00,82.6,28.6,29.10,East,84,3.1,4.0,14,0.00,,FEW075,0.00,VWS V14.01,2013-05-06 23:52:00,
2013-05-06 16:53:00,82.6,28.6,29.10,East,83,5.4,5.4,14,0.00,,FEW075,0.00,VWS V14.01,2013-05-06 23:53:00,
2013-05-06 16:54:00,85.6,29.2,29.10,WNW,300,0.0,0.0,13,0.00,,FEW050,0.00,VWS V14.01,2013-05-06 23:54:00,
2013-05-06 16:55:00,82.6,28.6,29.10,ENE,62,3.6,3.6,14,0.00,,FEW075,0.00,VWS V14.01,2013-05-06 23:55:00,
2013-05-06 16:56:00,82.8,28.8,29.10,ESE,104,3.1,3.6,14,0.00,,FEW075,0.00,VWS V14.01,2013-05-06 23:56:00,
2013-05-06 16:57:00,83.1,29.0,29.10,SE,146,3.1,3.1,14,0.00,,FEW075,0.00,VWS V14.01,2013-05-06 23:57:00,
2013-05-06 16:58:00,83.5,29.3,29.10,SE,146,2.7,3.1,14,0.00,,FEW075,0.00,VWS V14.01,2013-05-06 23:58:00,
2013-05-06 16:59:00,85.8,29.4,29.10,WNW,303,3.1,4.0,13,0.00,,FEW050,0.00,VWS V14.01,2013-05-06 23:59:00,
2013-05-06 17:00:00,84.4,28.2,29.10,SSW,201,3.6,3.6,13,0.00,,FEW075,0.00,VWS V14.01,2013-05-07 00:00:00,
2013-05-06 17:01:00,84.7,28.5,29.10,SW,219,3.1,3.6,13,0.00,,FEW075,0.00,VWS V14.01,2013-05-07 00:01:00,
2013-05-06 17:02:00,84.7,28.5,29.10,SSW,205,3.1,4.0,13,0.00,,FEW075,0.00,VWS V14.01,2013-05-07 00:02:00,
2013-05-06 17:03:00,84.9,28.6,29.10,SW,217,2.2,3.1,13,0.00,,FEW075,0.00,VWS V14.01,2013-05-07 00:03:00,
2013-05-06 17:04:00,85.1,28.8,29.10,WNW,284,2.7,2.7,13,0.00,,FEW055,0.00,VWS V14.01,2013-05-07 00:04:00,
2013-05-06 17:05:00,84.7,28.5,29.10,West,261,4.0,4.0,13,0.00,,FEW075,0.00,VWS V14.01,2013-05-07 00:05:00,
2013-05-06 17:06:00,85.3,28.9,29.10,West,259,4.0,4.0,13,0.00,,FEW075,0.00,VWS V14.01,2013-05-07 00:06:00,
2013-05-06 17:07:00,85.5,29.1,29.10,WNW,300,0.0,4.0,13,0.00,,FEW075,0.00,VWS V14.01,2013-05-07 00:07:00,
2013-05-06 17:08:00,85.6,29.2,29.10,WNW,300,0.0,0.0,13,0.00,,FEW075,0.00,VWS V14.01,2013-05-07 00:08:00,
2013-05-06 17:09:00,83.7,29.5,29.10,West,267,2.7,3.6,14,0.00,,FEW055,0.00,VWS V14.01,2013-05-07 00:09:00,
2013-05-06 17:10:00,86.2,29.6,29.10,West,279,2.7,4.0,13,0.00,,FEW075,0.00,VWS V14.01,2013-05-07 00:10:00,
2013-05-06 17:11:00,85.8,29.4,29.10,West,279,2.2,2.7,13,0.00,,FEW075,0.00,VWS V14.01,2013-05-07 00:11:00,
2013-05-06 17:12:00,85.8,29.4,29.10,West,279,3.6,3.6,13,0.00,,FEW075,0.00,VWS V14.01,2013-05-07 00:12:00,
2013-05-06 17:13:00,85.8,29.4,29.10,WNW,303,3.1,4.0,13,0.00,,FEW075,0.00,VWS V14.01,2013-05-07 00:13:00,
2013-05-06 17:14:00,83.7,29.5,29.10,NW,323,0.0,2.7,14,0.00,,FEW055,0.00,VWS V14.01,2013-05-07 00:14:00,
2013-05-06 17:15:00,85.3,28.9,29.10,WNW,294,0.0,3.6,13,0.00,,FEW075,0.00,VWS V14.01,2013-05-07 00:15:00,
2013-05-06 17:16:00,85.5,29.1,29.10,WNW,294,0.0,0.0,13,0.00,,FEW075,0.00,VWS V14.01,2013-05-07 00:16:00,
2013-05-06 17:17:00,85.3,28.9,29.10,WNW,284,2.2,3.1,13,0.00,,FEW075,0.00,VWS V14.01,2013-05-07 00:17:00,
2013-05-06 17:18:00,84.7,28.5,29.10,WNW,284,2.7,2.7,13,0.00,,FEW075,0.00,VWS V14.01,2013-05-07 00:18:00,
2013-05-06 17:19:00,84.4,28.2,29.10,NW,304,0.0,0.0,13,0.00,,FEW055,0.00,VWS V14.01,2013-05-07 00:19:00,
2013-05-06 17:20:00,84.2,28.1,29.10,WNW,283,2.7,2.7,13,0.00,,FEW075,0.00,VWS V14.01,2013-05-07 00:20:00,
2013-05-06 17:21:00,84.0,29.8,29.10,West,267,2.7,3.1,14,0.00,,FEW075,0.00,VWS V14.01,2013-05-07 00:21:00,
2013-05-06 17:22:00,83.8,29.6,29.10,West,267,3.6,4.0,14,0.00,,FEW075,0.00,VWS V14.01,2013-05-07 00:22:00,
2013-05-06 17:23:00,83.8,29.6,29.10,West,267,2.7,3.6,14,0.00,,FEW075,0.00,VWS V14.01,2013-05-07 00:23:00,
2013-05-06 17:24:00,83.5,29.3,29.10,North,353,0.0,0.0,14,0.00,,FEW055,0.00,VWS V14.01,2013-05-07 00:24:00,
2013-05-06 17:25:00,83.5,29.3,29.10,NW,320,3.1,3.6,14,0.00,,FEW075,0.00,VWS V14.01,2013-05-07 00:25:00,
2013-05-06 17:26:00,83.3,29.2,29.10,NW,323,2.7,4.0,14,0.00,,FEW075,0.00,VWS V14.01,2013-05-07 00:26:00,
2013-05-06 17:27:00,83.5,29.3,29.10,NW,323,2.7,2.7,14,0.00,,FEW075,0.00,VWS V14.01,2013-05-07 00:27:00,
2013-05-06 17:28:00,83.8,29.6,29.10,NW,323,0.0,2.7,14,0.00,,FEW075,0.00,VWS V14.01,2013-05-07 00:28:00,
2013-05-06 17:29:00,82.6,28.6,29.10,North,353,0.0,2.2,14,0.00,,FEW055,0.00,VWS V14.01,2013-05-07 00:29:00,
2013-05-06 17:30:00,84.0,29.8,29.10,NW,322,0.0,0.0,14,0.00,,FEW075,0.00,VWS V14.01,2013-05-07 00:30:00,
2013-05-06 17:31:00,84.4,28.2,29.10,NW,322,0.0,0.0,13,0.00,,FEW075,0.00,VWS V14.01,2013-05-07 00:31:00,
2013-05-06 17:32:00,84.4,28.2,29.10,NW,322,0.0,2.2,13,0.00,,FEW075,0.00,VWS V14.01,2013-05-07 00:32:00,
2013-05-06 17:33:00,84.4,28.2,29.10,WNW,300,2.2,2.2,13,0.00,,FEW075,0.00,VWS V14.01,2013-05-07 00:33:00,
2013-05-06 17:34:00,83.1,29.0,29.10,North,353,0.0,0.0,14,0.00,,FEW055,0.00,VWS V14.01,2013-05-07 00:34:00,
2013-05-06 17:35:00,84.0,29.8,29.10,North,350,2.7,3.1,14,0.00,,FEW075,0.00,VWS V14.01,2013-05-07 00:35:00,
2013-05-06 17:36:00,84.0,29.8,29.10,North,353,3.6,3.6,14,0.00,,FEW075,0.00,VWS V14.01,2013-05-07 00:36:00,
2013-05-06 17:37:00,83.8,29.6,29.10,North,353,0.0,3.6,14,0.00,,FEW075,0.00,VWS V14.01,2013-05-07 00:37:00,
2013-05-06 17:38:00,83.5,29.3,29.10,North,353,0.0,0.0,14,0.00,,FEW075,0.00,VWS V14.01,2013-05-07 00:38:00,
2013-05-06 17:39:00,83.1,29.0,29.10,North,353,2.7,3.1,14,0.00,,FEW075,0.00,VWS V14.01,2013-05-07 00:39:00,
2013-05-06 17:40:00,82.8,28.8,29.10,North,357,3.6,3.6,14,0.00,,FEW055,0.00,VWS V14.01,2013-05-07 00:40:00,
2013-05-06 17:41:00,82.9,28.9,29.10,North,353,0.0,2.2,14,0.00,,FEW075,0.00,VWS V14.01,2013-05-07 00:41:00,
2013-05-06 17:42:00,82.8,28.8,29.10,North,353,2.2,2.7,14,0.00,,FEW075,0.00,VWS V14.01,2013-05-07 00:42:00,
2013-05-06 17:43:00,82.6,28.6,29.10,North,353,0.0,2.2,14,0.00,,FEW075,0.00,VWS V14.01,2013-05-07 00:43:00,
2013-05-06 17:44:00,82.6,28.6,29.10,North,353,0.0,2.7,14,0.00,,FEW075,0.00,VWS V14.01,2013-05-07 00:44:00,
2013-05-06 17:45:00,81.5,27.8,29.10,ENE,66,0.0,3.1,14,0.00,,FEW055,0.00,VWS V14.01,2013-05-07 00:45:00,
2013-05-06 17:46:00,82.8,28.8,29.10,North,353,2.2,2.2,14,0.00,,FEW075,0.00,VWS V14.01,2013-05-07 00:46:00,
2013-05-06 17:47:00,82.9,28.9,29.10,North,353,0.0,2.2,14,0.00,,FEW075,0.00,VWS V14.01,2013-05-07 00:47:00,
2013-05-06 17:48:00,83.1,29.0,29.10,North,353,0.0,0.0,14,0.00,,FEW075,0.00,VWS V14.01,2013-05-07 00:48:00,
2013-05-06 17:49:00,83.3,29.2,29.10,North,353,0.0,0.0,14,0.00,,FEW075,0.00,VWS V14.01,2013-05-07 00:49:00,
2013-05-06 17:50:00,81.0,27.3,29.10,ENE,65,2.2,3.1,14,0.00,,FEW055,0.00,VWS V14.01,2013-05-07 00:50:00,
2013-05-06 17:51:00,83.3,29.2,29.10,North,353,0.0,3.1,14,0.00,,FEW075,0.00,VWS V14.01,2013-05-07 00:51:00,
2013-05-06 17:52:00,83.1,29.0,29.10,North,353,3.1,3.1,14,0.00,,FEW075,0.00,VWS V14.01,2013-05-07 00:52:00,
2013-05-06 17:53:00,82.9,28.9,29.10,North,0,2.7,3.1,14,0.00,,FEW075,0.00,VWS V14.01,2013-05-07 00:53:00,
2013-05-06 17:54:00,82.8,28.8,29.10,North,357,3.6,3.6,14,0.00,,FEW075,0.00,VWS V14.01,2013-05-07 00:54:00,
2013-05-06 17:55:00,82.4,28.5,29.10,ENE,68,2.7,4.0,14,0.00,,FEW075,0.00,VWS V14.01,2013-05-07 00:55:00,
2013-05-06 17:56:00,82.2,28.3,29.10,ENE,76,4.0,4.5,14,0.00,,FEW075,0.00,VWS V14.01,2013-05-07 00:56:00,
2013-05-06 17:57:00,81.7,27.9,29.10,SSW,200,4.0,4.0,14,0.00,,FEW055,0.00,VWS V14.01,2013-05-07 00:57:00,
2013-05-06 17:58:00,81.9,28.0,29.10,ENE,65,3.1,7.2,14,0.00,,FEW075,0.00,VWS V14.01,2013-05-07 00:58:00,
2013-05-06 17:59:00,81.5,27.8,29.10,ENE,65,0.0,3.1,14,0.00,,FEW075,0.00,VWS V14.01,2013-05-07 00:59:00,
2013-05-06 18:00:00,81.3,27.6,29.10,ENE,65,2.2,2.7,14,0.00,,FEW075,0.00,VWS V14.01,2013-05-07 01:00:00,
2013-05-06 18:01:00,81.1,27.5,29.10,ENE,65,4.0,4.0,14,0.00,,FEW075,0.00,VWS V14.01,2013-05-07 01:01:00,
2013-05-06 18:02:00,82.9,28.9,29.10,WSW,243,3.6,5.4,14,0.00,,FEW200,0.00,VWS V14.01,2013-05-07 01:02:00,
2013-05-06 18:03:00,81.0,27.3,29.10,ENE,65,3.1,3.1,14,0.00,,FEW075,0.00,VWS V14.01,2013-05-07 01:03:00,
2013-05-06 18:04:00,81.0,27.3,29.10,ENE,65,2.7,3.1,14,0.00,,FEW075,0.00,VWS V14.01,2013-05-07 01:04:00,
2013-05-06 18:05:00,81.0,27.3,29.10,WSW,253,4.0,5.4,14,0.00,,FEW075,0.00,VWS V14.01,2013-05-07 01:05:00,
2013-05-06 18:06:00,83.1,29.0,29.10,SW,235,6.3,7.2,14,0.00,,FEW200,0.00,VWS V14.01,2013-05-07 01:06:00,
2013-05-06 18:07:00,82.9,28.9,29.10,SW,233,4.9,7.2,14,0.00,,FEW075,0.00,VWS V14.01,2013-05-07 01:07:00,
2013-05-06 18:08:00,82.8,28.8,29.10,SW,235,5.8,5.8,14,0.00,,FEW075,0.00,VWS V14.01,2013-05-07 01:08:00,
2013-05-06 18:09:00,82.2,28.3,29.10,SW,234,2.7,6.3,14,0.00,,FEW075,0.00,VWS V14.01,2013-05-07 01:09:00,
2013-05-06 18:10:00,82.0,28.2,29.10,WSW,253,3.6,3.6,14,0.00,,FEW075,0.00,VWS V14.01,2013-05-07 01:10:00,
2013-05-06 18:11:00,81.5,27.8,29.10,WSW,253,3.1,3.1,14,0.00,,FEW200,0.00,VWS V14.01,2013-05-07 01:11:00,
2013-05-06 18:12:00,81.1,27.5,29.10,WSW,253,2.7,3.1,14,0.00,,FEW075,0.00,VWS V14.01,2013-05-07 01:12:00,
2013-05-06 18:13:00,81.0,27.3,29.10,WSW,253,3.1,3.1,14,0.00,,FEW075,0.00,VWS V14.01,2013-05-07 01:13:00,
2013-05-06 18:14:00,80.8,27.2,29.10,WSW,253,2.7,3.1,14,0.00,,FEW075,0.00,VWS V14.01,2013-05-07 01:14:00,
2013-05-06 18:15:00,80.6,27.0,29.10,WSW,244,4.9,4.9,14,0.00,,FEW075,0.00,VWS V14.01,2013-05-07 01:15:00,
2013-05-06 18:16:00,80.6,27.0,29.10,SW,224,3.6,4.0,14,0.00,,FEW200,0.00,VWS V14.01,2013-05-07 01:16:00,
2013-05-06 18:17:00,80.6,27.0,29.10,SW,224,3.6,4.0,14,0.00,,FEW075,0.00,VWS V14.01,2013-05-07 01:17:00,
2013-05-06 18:18:00,80.6,27.0,29.10,SW,222,4.0,4.0,14,0.00,,FEW075,0.00,VWS V14.01,2013-05-07 01:18:00,
2013-05-06 18:19:00,80.4,28.6,29.10,SW,230,4.0,4.0,15,0.00,,FEW075,0.00,VWS V14.01,2013-05-07 01:19:00,
2013-05-06 18:20:00,80.4,28.6,29.10,SW,229,2.7,4.0,15,0.00,,FEW075,0.00,VWS V14.01,2013-05-07 01:20:00,
2013-05-06 18:21:00,80.6,27.0,29.10,SW,230,4.0,5.4,14,0.00,,FEW200,0.00,VWS V14.01,2013-05-07 01:21:00,
2013-05-06 18:22:00,80.6,27.0,29.10,SW,232,4.0,5.4,14,0.00,,FEW075,0.00,VWS V14.01,2013-05-07 01:22:00,
2013-05-06 18:23:00,80.8,27.2,29.10,SW,233,3.1,4.0,14,0.00,,FEW075,0.00,VWS V14.01,2013-05-07 01:23:00,
2013-05-06 18:24:00,80.8,27.2,29.10,SW,231,3.6,4.0,14,0.00,,FEW075,0.00,VWS V14.01,2013-05-07 01:24:00,
2013-05-06 18:25:00,80.8,27.2,29.10,SW,227,3.1,3.6,14,0.00,,FEW075,0.00,VWS V14.01,2013-05-07 01:25:00,
2013-05-06 18:26:00,80.6,27.0,29.10,SW,227,2.7,3.1,14,0.00,,FEW200,0.00,VWS V14.01,2013-05-07 01:26:00,
2013-05-06 18:27:00,80.6,27.0,29.10,SW,227,2.7,3.1,14,0.00,,FEW075,0.00,VWS V14.01,2013-05-07 01:27:00,
2013-05-06 18:28:00,80.6,27.0,29.10,WSW,240,3.6,4.0,14,0.00,,FEW075,0.00,VWS V14.01,2013-05-07 01:28:00,
2013-05-06 18:29:00,80.6,27.0,29.10,SW,223,4.9,5.8,14,0.00,,FEW075,0.00,VWS V14.01,2013-05-07 01:29:00,
2013-05-06 18:30:00,80.4,28.6,29.10,SW,228,4.9,4.9,15,0.00,,FEW075,0.00,VWS V14.01,2013-05-07 01:30:00,
2013-05-06 18:31:00,80.1,28.3,29.10,SW,232,4.0,4.9,15,0.00,,FEW200,0.00,VWS V14.01,2013-05-07 01:31:00,
2013-05-06 18:32:00,80.1,28.3,29.10,SW,230,4.0,4.9,15,0.00,,FEW075,0.00,VWS V14.01,2013-05-07 01:32:00,
2013-05-06 18:33:00,79.9,28.1,29.10,SW,226,3.6,4.9,15,0.00,,FEW075,0.00,VWS V14.01,2013-05-07 01:33:00,
2013-05-06 18:34:00,79.7,28.0,29.10,SW,229,4.0,4.9,15,0.00,,FEW075,0.00,VWS V14.01,2013-05-07 01:34:00,
2013-05-06 18:35:00,79.5,27.9,29.10,SW,218,4.9,5.4,15,0.00,,FEW075,0.00,VWS V14.01,2013-05-07 01:35:00,
2013-05-06 18:36:00,79.0,27.4,29.10,SW,225,3.1,3.6,15,0.00,,FEW200,0.00,VWS V14.01,2013-05-07 01:36:00,
2013-05-06 18:37:00,79.0,27.4,29.10,SW,225,3.6,3.6,15,0.00,,FEW075,0.00,VWS V14.01,2013-05-07 01:37:00,
2013-05-06 18:38:00,78.6,27.1,29.10,SW,225,3.1,3.6,15,0.00,,FEW075,0.00,VWS V14.01,2013-05-07 01:38:00,
2013-05-06 18:39:00,78.6,27.1,29.10,SW,225,2.7,3.1,15,0.00,,FEW075,0.00,VWS V14.01,2013-05-07 01:39:00,
2013-05-06 18:40:00,78.4,27.0,29.10,SW,225,0.0,2.7,15,0.00,,FEW075,0.00,VWS V14.01,2013-05-07 01:40:00,
2013-05-06 18:41:00,78.3,26.9,29.10,SW,225,0.0,0.0,15,0.00,,FEW200,0.00,VWS V14.01,2013-05-07 01:41:00,
2013-05-06 18:42:00,78.3,26.9,29.10,SW,225,0.0,0.0,15,0.00,,FEW075,0.00,VWS V14.01,2013-05-07 01:42:00,
2013-05-06 18:43:00,78.1,26.7,29.10,SW,225,0.0,0.0,15,0.00,,FEW075,0.00,VWS V14.01,2013-05-07 01:43:00,
2013-05-06 18:44:00,78.1,26.7,29.10,SW,225,0.0,0.0,15,0.00,,FEW075,0.00,VWS V14.01,2013-05-07 01:44:00,
2013-05-06 18:45:00,78.1,26.7,29.10,SW,225,0.0,0.0,15,0.00,,FEW075,0.00,VWS V14.01,2013-05-07 01:45:00,
2013-05-06 18:46:00,78.3,26.9,29.10,SW,225,0.0,0.0,15,0.00,,FEW200,0.00,VWS V14.01,2013-05-07 01:46:00,
2013-05-06 18:47:00,78.3,26.9,29.10,SW,225,0.0,0.0,15,0.00,,FEW075,0.00,VWS V14.01,2013-05-07 01:47:00,
2013-05-06 18:48:00,78.3,26.9,29.10,SW,225,0.0,0.0,15,0.00,,FEW075,0.00,VWS V14.01,2013-05-07 01:48:00,
2013-05-06 18:49:00,78.3,26.9,29.10,SW,225,0.0,0.0,15,0.00,,FEW075,0.00,VWS V14.01,2013-05-07 01:49:00,
2013-05-06 18:50:00,78.1,26.7,29.10,SW,225,0.0,0.0,15,0.00,,FEW075,0.00,VWS V14.01,2013-05-07 01:50:00,
2013-05-06 18:51:00,78.1,26.7,29.10,SW,225,0.0,0.0,15,0.00,,FEW200,0.00,VWS V14.01,2013-05-07 01:51:00,
2013-05-06 18:52:00,78.1,26.7,29.10,SW,225,0.0,0.0,15,0.00,,FEW075,0.00,VWS V14.01,2013-05-07 01:52:00,
2013-05-06 18:53:00,78.1,26.7,29.10,SW,225,0.0,0.0,15,0.00,,FEW075,0.00,VWS V14.01,2013-05-07 01:53:00,
2013-05-06 18:54:00,77.9,26.6,29.10,SW,226,2.7,3.1,15,0.00,,FEW075,0.00,VWS V14.01,2013-05-07 01:54:00,
2013-05-06 18:55:00,77.9,26.6,29.10,WNW,286,3.6,3.6,15,0.00,,FEW075,0.00,VWS V14.01,2013-05-07 01:55:00,
2013-05-06 18:56:00,78.1,26.7,29.10,WNW,286,0.0,0.0,15,0.00,,FEW200,0.00,VWS V14.01,2013-05-07 01:56:00,
2013-05-06 18:57:00,78.1,26.7,29.10,WNW,286,0.0,0.0,15,0.00,,FEW075,0.00,VWS V14.01,2013-05-07 01:57:00,
2013-05-06 18:58:00,78.1,26.7,29.10,WNW,286,0.0,0.0,15,0.00,,FEW075,0.00,VWS V14.01,2013-05-07 01:58:00,
2013-05-06 18:59:00,77.9,26.6,29.10,NW,311,2.7,2.7,15,0.00,,FEW075,0.00,VWS V14.01,2013-05-07 01:59:00,
2013-05-06 19:00:00,78.1,26.7,29.10,NW,311,0.0,3.6,15,0.00,,FEW075,0.00,VWS V14.01,2013-05-07 02:00:00,
2013-05-06 19:01:00,78.3,26.9,29.10,NW,311,0.0,0.0,15,0.00,,FEW040,0.00,VWS V14.01,2013-05-07 02:01:00,
2013-05-06 19:02:00,78.4,27.0,29.10,NW,311,0.0,0.0,15,0.00,,FEW075,0.00,VWS V14.01,2013-05-07 02:02:00,
2013-05-06 19:03:00,78.6,27.1,29.10,NW,311,0.0,0.0,15,0.00,,FEW075,0.00,VWS V14.01,2013-05-07 02:03:00,
2013-05-06 19:04:00,79.0,27.4,29.10,NW,311,0.0,0.0,15,0.00,,FEW075,0.00,VWS V14.01,2013-05-07 02:04:00,
2013-05-06 19:05:00,79.2,27.6,29.10,NW,311,0.0,0.0,15,0.00,,FEW075,0.00,VWS V14.01,2013-05-07 02:05:00,
2013-05-06 19:06:00,79.2,27.6,29.10,NNW,345,3.1,3.1,15,0.00,,FEW040,0.00,VWS V14.01,2013-05-07 02:06:00,
2013-05-06 19:07:00,79.2,27.6,29.07,NNW,345,0.0,3.1,15,0.00,,FEW075,0.00,VWS V14.01,2013-05-07 02:07:00,
2013-05-06 19:08:00,79.2,27.6,29.07,NE,36,4.0,4.0,15,0.00,,FEW075,0.00,VWS V14.01,2013-05-07 02:08:00,
2013-05-06 19:09:00,79.0,27.4,29.07,NE,35,2.7,4.0,15,0.00,,FEW075,0.00,VWS V14.01,2013-05-07 02:09:00,
2013-05-06 19:10:00,78.8,27.3,29.07,NE,41,2.7,3.1,15,0.00,,FEW120,0.00,VWS V14.01,2013-05-07 02:10:00,
2013-05-06 19:11:00,78.4,27.0,29.07,NNE,26,3.6,3.6,15,0.00,,FEW040,0.00,VWS V14.01,2013-05-07 02:11:00,
2013-05-06 19:12:00,78.4,27.0,29.07,NNE,26,2.7,3.6,15,0.00,,FEW075,0.00,VWS V14.01,2013-05-07 02:12:00,
2013-05-06 19:13:00,78.4,27.0,29.07,NNE,27,3.6,3.6,15,0.00,,FEW075,0.00,VWS V14.01,2013-05-07 02:13:00,
2013-05-06 19:14:00,78.3,26.9,29.07,NNE,32,2.7,3.6,15,0.00,,FEW075,0.00,VWS V14.01,2013-05-07 02:14:00,
2013-05-06 19:15:00,78.1,26.7,29.07,NE,37,2.7,3.1,15,0.00,,FEW075,0.00,VWS V14.01,2013-05-07 02:15:00,
2013-05-06 19:16:00,77.9,26.6,29.07,NE,36,2.7,2.7,15,0.00,,FEW040,0.00,VWS V14.01,2013-05-07 02:16:00,
2013-05-06 19:17:00,77.9,26.6,29.07,NE,36,2.7,2.7,15,0.00,,FEW075,0.00,VWS V14.01,2013-05-07 02:17:00,
2013-05-06 19:18:00,77.7,26.4,29.07,NE,36,0.0,2.7,15,0.00,,FEW075,0.00,VWS V14.01,2013-05-07 02:18:00,
2013-05-06 19:19:00,77.7,26.4,29.07,NE,36,0.0,0.0,15,0.00,,FEW075,0.00,VWS V14.01,2013-05-07 02:19:00,
2013-05-06 19:20:00,77.5,26.3,29.07,NE,36,0.0,0.0,15,0.00,,FEW075,0.00,VWS V14.01,2013-05-07 02:20:00,
2013-05-06 19:21:00,77.2,26.0,29.07,NE,36,2.7,2.7,15,0.00,,FEW040,0.00,VWS V14.01,2013-05-07 02:21:00,
2013-05-06 19:22:00,77.2,26.0,29.07,NE,36,2.2,2.7,15,0.00,,FEW075,0.00,VWS V14.01,2013-05-07 02:22:00,
2013-05-06 19:23:00,76.8,25.7,29.07,NE,36,0.0,2.2,15,0.00,,FEW075,0.00,VWS V14.01,2013-05-07 02:23:00,
2013-05-06 19:24:00,76.6,25.6,29.07,NE,36,0.0,0.0,15,0.00,,FEW075,0.00,VWS V14.01,2013-05-07 02:24:00,
2013-05-06 19:25:00,76.6,25.6,29.07,NE,36,2.2,2.2,15,0.00,,FEW075,0.00,VWS V14.01,2013-05-07 02:25:00,
2013-05-06 19:26:00,76.5,25.4,29.07,NE,34,2.2,3.1,15,0.00,,FEW040,0.00,VWS V14.01,2013-05-07 02:26:00,
2013-05-06 19:27:00,76.5,25.4,29.07,NE,34,2.2,3.1,15,0.00,,FEW075,0.00,VWS V14.01,2013-05-07 02:27:00,
2013-05-06 19:28:00,76.3,25.3,29.07,NE,34,0.0,2.2,15,0.00,,FEW075,0.00,VWS V14.01,2013-05-07 02:28:00,
2013-05-06 19:29:00,75.7,24.9,29.07,NE,34,0.0,0.0,15,0.00,,FEW075,0.00,VWS V14.01,2013-05-07 02:29:00,
2013-05-06 19:30:00,75.7,24.9,29.07,NE,34,0.0,0.0,15,0.00,,FEW075,0.00,VWS V14.01,2013-05-07 02:30:00,
2013-05-06 19:31:00,75.9,25.0,29.07,NE,34,0.0,0.0,15,0.00,,FEW040,0.00,VWS V14.01,2013-05-07 02:31:00,
2013-05-06 19:36:00,76.6,25.6,29.07,NE,34,0.0,0.0,15,0.00,,FEW040,0.00,VWS V14.01,2013-05-07 02:36:00,
2013-05-06 19:41:00,76.5,25.4,29.10,NE,34,0.0,0.0,15,0.00,,FEW040,0.00,VWS V14.01,2013-05-07 02:41:00,
2013-05-06 19:43:00,75.7,24.9,29.07,NE,34,0.0,0.0,15,0.00,,FEW075,0.00,VWS V14.01,2013-05-07 02:43:00,
2013-05-06 19:44:00,75.7,24.9,29.07,NE,34,0.0,0.0,15,0.00,,FEW075,0.00,VWS V14.01,2013-05-07 02:44:00,
2013-05-06 19:45:00,76.1,25.1,29.07,NE,34,0.0,0.0,15,0.00,,FEW075,0.00,VWS V14.01,2013-05-07 02:45:00,
2013-05-06 19:46:00,75.6,24.7,29.10,NE,34,0.0,0.0,15,0.00,,FEW040,0.00,VWS V14.01,2013-05-07 02:46:00,
2013-05-06 19:47:00,76.5,25.4,29.07,NE,34,0.0,0.0,15,0.00,,FEW075,0.00,VWS V14.01,2013-05-07 02:47:00,
2013-05-06 19:48:00,76.6,25.6,29.07,NE,34,0.0,0.0,15,0.00,,FEW075,0.00,VWS V14.01,2013-05-07 02:48:00,
2013-05-06 19:49:00,76.6,25.6,29.07,NE,34,0.0,0.0,15,0.00,,FEW075,0.00,VWS V14.01,2013-05-07 02:49:00,
2013-05-06 19:50:00,76.6,25.6,29.07,NE,34,0.0,0.0,15,0.00,,FEW075,0.00,VWS V14.01,2013-05-07 02:50:00,
2013-05-06 19:51:00,74.1,25.1,29.10,NE,34,0.0,0.0,16,0.00,,FEW040,0.00,VWS V14.01,2013-05-07 02:51:00,
2013-05-06 19:52:00,76.6,25.6,29.10,NE,34,0.0,0.0,15,0.00,,FEW075,0.00,VWS V14.01,2013-05-07 02:52:00,
2013-05-06 19:53:00,76.6,25.6,29.10,NE,34,0.0,0.0,15,0.00,,FEW075,0.00,VWS V14.01,2013-05-07 02:53:00,
2013-05-06 19:54:00,76.6,25.6,29.10,NE,34,0.0,0.0,15,0.00,,FEW075,0.00,VWS V14.01,2013-05-07 02:54:00,
2013-05-06 19:55:00,76.5,25.4,29.10,NE,34,0.0,0.0,15,0.00,,FEW075,0.00,VWS V14.01,2013-05-07 02:55:00,
2013-05-06 19:56:00,72.3,23.6,29.07,NE,34,0.0,0.0,16,0.00,,FEW040,0.00,VWS V14.01,2013-05-07 02:56:00,
2013-05-06 19:57:00,76.1,25.1,29.10,NE,34,0.0,0.0,15,0.00,,FEW075,0.00,VWS V14.01,2013-05-07 02:57:00,
2013-05-06 19:58:00,75.9,25.0,29.10,NE,34,0.0,0.0,15,0.00,,FEW075,0.00,VWS V14.01,2013-05-07 02:58:00,
2013-05-06 19:59:00,75.7,24.9,29.10,NE,34,0.0,0.0,15,0.00,,FEW075,0.00,VWS V14.01,2013-05-07 02:59:00,
2013-05-06 20:00:00,75.4,24.6,29.10,NE,34,0.0,0.0,15,0.00,,FEW075,0.00,VWS V14.01,2013-05-07 03:00:00,
2013-05-06 20:01:00,70.9,23.9,29.07,NE,34,0.0,0.0,17,0.00,,FEW040,0.00,VWS V14.01,2013-05-07 03:01:00,
2013-05-06 20:02:00,74.8,25.7,29.10,NE,34,0.0,0.0,16,0.00,,FEW075,0.00,VWS V14.01,2013-05-07 03:02:00,
2013-05-06 20:03:00,74.5,25.4,29.10,NE,34,0.0,0.0,16,0.00,,FEW075,0.00,VWS V14.01,2013-05-07 03:03:00,
2013-05-06 20:04:00,74.3,25.2,29.10,NE,34,0.0,0.0,16,0.00,,FEW075,0.00,VWS V14.01,2013-05-07 03:04:00,
2013-05-06 20:05:00,73.9,25.0,29.07,NE,34,0.0,0.0,16,0.00,,FEW075,0.00,VWS V14.01,2013-05-07 03:05:00,
2013-05-06 20:06:00,69.1,26.4,29.07,NE,34,0.0,0.0,20,0.00,,FEW045,0.00,VWS V14.01,2013-05-07 03:06:00,
2013-05-06 20:07:00,73.2,24.4,29.07,NE,34,0.0,0.0,16,0.00,,FEW075,0.00,VWS V14.01,2013-05-07 03:07:00,
2013-05-06 20:08:00,72.9,24.1,29.07,NE,34,0.0,0.0,16,0.00,,FEW075,0.00,VWS V14.01,2013-05-07 03:08:00,
2013-05-06 20:09:00,72.5,23.8,29.07,NE,34,0.0,0.0,16,0.00,,FEW075,0.00,VWS V14.01,2013-05-07 03:09:00,
2013-05-06 20:10:00,72.3,23.6,29.07,NE,34,0.0,0.0,16,0.00,,FEW075,0.00,VWS V14.01,2013-05-07 03:10:00,
2013-05-06 20:11:00,67.5,27.3,29.07,NE,34,2.7,2.7,22,0.00,,FEW045,0.00,VWS V14.01,2013-05-07 03:11:00,
2013-05-06 20:12:00,71.8,23.2,29.07,NE,34,0.0,0.0,16,0.00,,FEW075,0.00,VWS V14.01,2013-05-07 03:12:00,
2013-05-06 20:13:00,71.4,24.4,29.07,NE,34,0.0,0.0,17,0.00,,FEW075,0.00,VWS V14.01,2013-05-07 03:13:00,
2013-05-06 20:14:00,71.1,24.1,29.07,NE,34,0.0,0.0,17,0.00,,FEW075,0.00,VWS V14.01,2013-05-07 03:14:00,
2013-05-06 20:15:00,70.9,23.9,29.07,NE,34,0.0,0.0,17,0.00,,FEW075,0.00,VWS V14.01,2013-05-07 03:15:00,
2013-05-06 20:16:00,66.6,24.3,29.07,NE,34,0.0,2.2,20,0.00,,FEW045,0.00,VWS V14.01,2013-05-07 03:16:00,
2013-05-06 20:17:00,70.2,23.4,29.07,NE,34,0.0,0.0,17,0.00,,FEW075,0.00,VWS V14.01,2013-05-07 03:17:00,
2013-05-06 20:18:00,69.6,22.9,29.07,NE,34,0.0,0.0,17,0.00,,FEW075,0.00,VWS V14.01,2013-05-07 03:18:00,
2013-05-06 20:19:00,69.3,26.5,29.07,NE,34,0.0,0.0,20,0.00,,FEW075,0.00,VWS V14.01,2013-05-07 03:19:00,
2013-05-06 20:20:00,69.1,26.4,29.07,NE,34,0.0,0.0,20,0.00,,FEW075,0.00,VWS V14.01,2013-05-07 03:20:00,
2013-05-06 20:21:00,65.8,23.7,29.07,NE,34,0.0,0.0,20,0.00,,FEW045,0.00,VWS V14.01,2013-05-07 03:21:00,
2013-05-06 20:22:00,68.2,25.6,29.07,NE,34,0.0,0.0,20,0.00,,FEW075,0.00,VWS V14.01,2013-05-07 03:22:00,
2013-05-06 20:23:00,68.0,25.5,29.07,NE,34,0.0,0.0,20,0.00,,FEW075,0.00,VWS V14.01,2013-05-07 03:23:00,
2013-05-06 20:24:00,67.6,27.5,29.07,NE,34,0.0,0.0,22,0.00,,FEW075,0.00,VWS V14.01,2013-05-07 03:24:00,
2013-05-06 20:25:00,67.5,27.3,29.07,NE,34,3.1,3.1,22,0.00,,FEW075,0.00,VWS V14.01,2013-05-07 03:25:00,
2013-05-06 20:26:00,65.1,23.1,29.10,NE,34,0.0,0.0,20,0.00,,FEW045,0.00,VWS V14.01,2013-05-07 03:26:00,
2013-05-06 20:27:00,67.1,24.7,29.07,NE,34,2.7,2.7,20,0.00,,FEW075,0.00,VWS V14.01,2013-05-07 03:27:00,
2013-05-06 20:28:00,66.9,24.6,29.07,NE,34,0.0,2.7,20,0.00,,FEW075,0.00,VWS V14.01,2013-05-07 03:28:00,
2013-05-06 20:29:00,66.7,24.4,29.07,NE,34,2.2,2.2,20,0.00,,FEW075,0.00,VWS V14.01,2013-05-07 03:29:00,
2013-05-06 20:30:00,66.6,26.6,29.07,NE,34,0.0,2.2,22,0.00,,FEW075,0.00,VWS V14.01,2013-05-07 03:30:00,
2013-05-06 20:31:00,64.2,25.7,29.10,NE,34,0.0,0.0,23,0.00,,FEW045,0.00,VWS V14.01,2013-05-07 03:31:00,
2013-05-06 20:32:00,66.2,26.3,29.07,NE,34,0.0,0.0,22,0.00,,FEW075,0.00,VWS V14.01,2013-05-07 03:32:00,
2013-05-06 20:33:00,66.0,27.2,29.07,NE,34,0.0,0.0,23,0.00,,FEW075,0.00,VWS V14.01,2013-05-07 03:33:00,
2013-05-06 20:34:00,66.0,27.2,29.07,NE,34,0.0,0.0,23,0.00,,FEW075,0.00,VWS V14.01,2013-05-07 03:34:00,
2013-05-06 20:35:00,65.8,23.7,29.10,NE,34,0.0,0.0,20,0.00,,FEW075,0.00,VWS V14.01,2013-05-07 03:35:00,
2013-05-06 20:36:00,63.9,25.4,29.10,NE,34,0.0,0.0,23,0.00,,FEW045,0.00,VWS V14.01,2013-05-07 03:36:00,
2013-05-06 20:37:00,65.5,23.4,29.10,NE,34,0.0,0.0,20,0.00,,FEW075,0.00,VWS V14.01,2013-05-07 03:37:00,
2013-05-06 20:38:00,65.5,23.4,29.10,NE,34,0.0,0.0,20,0.00,,FEW075,0.00,VWS V14.01,2013-05-07 03:38:00,
2013-05-06 20:39:00,65.3,23.2,29.10,NE,34,0.0,0.0,20,0.00,,FEW075,0.00,VWS V14.01,2013-05-07 03:39:00,
2013-05-06 20:40:00,64.9,22.9,29.10,NE,34,0.0,0.0,20,0.00,,FEW075,0.00,VWS V14.01,2013-05-07 03:40:00,
2013-05-06 20:41:00,63.3,24.9,29.10,NE,34,0.0,0.0,23,0.00,,FEW045,0.00,VWS V14.01,2013-05-07 03:41:00,
2013-05-06 20:42:00,64.4,22.5,29.10,NE,34,0.0,0.0,20,0.00,,FEW075,0.00,VWS V14.01,2013-05-07 03:42:00,
2013-05-06 20:43:00,64.2,25.7,29.10,NE,34,0.0,0.0,23,0.00,,FEW075,0.00,VWS V14.01,2013-05-07 03:43:00,
2013-05-06 20:44:00,64.2,25.7,29.10,NE,34,0.0,0.0,23,0.00,,FEW075,0.00,VWS V14.01,2013-05-07 03:44:00,
2013-05-06 20:45:00,64.0,25.5,29.10,NE,34,0.0,0.0,23,0.00,,FEW075,0.00,VWS V14.01,2013-05-07 03:45:00,
2013-05-06 20:46:00,62.6,25.3,29.10,NE,34,0.0,0.0,24,0.00,,FEW045,0.00,VWS V14.01,2013-05-07 03:46:00,
2013-05-06 20:47:00,64.0,25.5,29.10,NE,34,0.0,0.0,23,0.00,,FEW075,0.00,VWS V14.01,2013-05-07 03:47:00,
2013-05-06 20:48:00,63.9,25.4,29.10,NE,34,0.0,0.0,23,0.00,,FEW075,0.00,VWS V14.01,2013-05-07 03:48:00,
2013-05-06 20:49:00,63.9,25.4,29.10,NE,34,0.0,0.0,23,0.00,,FEW075,0.00,VWS V14.01,2013-05-07 03:49:00,
2013-05-06 20:50:00,63.9,25.4,29.10,NE,34,0.0,0.0,23,0.00,,FEW075,0.00,VWS V14.01,2013-05-07 03:50:00,
2013-05-06 20:51:00,61.2,24.1,29.10,NE,34,0.0,0.0,24,0.00,,FEW045,0.00,VWS V14.01,2013-05-07 03:51:00,
2013-05-06 20:52:00,63.7,25.2,29.10,NE,34,0.0,0.0,23,0.00,,FEW075,0.00,VWS V14.01,2013-05-07 03:52:00,
2013-05-06 20:53:00,63.5,25.1,29.10,NE,34,0.0,0.0,23,0.00,,FEW075,0.00,VWS V14.01,2013-05-07 03:53:00,
2013-05-06 20:54:00,63.3,24.9,29.10,NE,34,0.0,0.0,23,0.00,,FEW075,0.00,VWS V14.01,2013-05-07 03:54:00,
2013-05-06 20:55:00,63.3,24.9,29.10,NE,34,0.0,0.0,23,0.00,,FEW075,0.00,VWS V14.01,2013-05-07 03:55:00,
2013-05-06 20:56:00,60.4,24.5,29.10,NE,34,0.0,0.0,25,0.00,,FEW045,0.00,VWS V14.01,2013-05-07 03:56:00,
2013-05-06 20:57:00,63.0,24.6,29.10,NE,34,0.0,0.0,23,0.00,,FEW075,0.00,VWS V14.01,2013-05-07 03:57:00,
2013-05-06 20:58:00,63.0,24.6,29.10,NE,34,0.0,0.0,23,0.00,,FEW075,0.00,VWS V14.01,2013-05-07 03:58:00,
2013-05-06 20:59:00,62.8,25.5,29.10,NE,34,0.0,0.0,24,0.00,,FEW075,0.00,VWS V14.01,2013-05-07 03:59:00,
2013-05-06 21:00:00,62.4,25.2,29.10,NE,34,0.0,0.0,24,0.00,,FEW075,0.00,VWS V14.01,2013-05-07 04:00:00,
2013-05-06 21:01:00,60.1,25.1,29.10,NE,34,0.0,0.0,26,0.00,,FEW045,0.00,VWS V14.01,2013-05-07 04:01:00,
2013-05-06 21:02:00,62.1,24.9,29.10,NE,34,0.0,0.0,24,0.00,,FEW075,0.00,VWS V14.01,2013-05-07 04:02:00,
2013-05-06 21:03:00,61.7,24.6,29.10,NE,34,0.0,0.0,24,0.00,,FEW075,0.00,VWS V14.01,2013-05-07 04:03:00,
2013-05-06 21:04:00,61.3,24.3,29.10,NE,34,0.0,0.0,24,0.00,,FEW075,0.00,VWS V14.01,2013-05-07 04:04:00,
2013-05-06 21:05:00,61.2,24.1,29.10,NE,34,0.0,0.0,24,0.00,,FEW075,0.00,VWS V14.01,2013-05-07 04:05:00,
2013-05-06 21:06:00,59.7,25.7,29.10,NE,34,0.0,0.0,27,0.00,,SCT200,0.00,VWS V14.01,2013-05-07 04:06:00,
2013-05-06 21:07:00,60.6,24.6,29.10,NE,34,0.0,0.0,25,0.00,,FEW075,0.00,VWS V14.01,2013-05-07 04:07:00,
2013-05-06 21:08:00,60.6,24.6,29.10,NE,34,0.0,0.0,25,0.00,,FEW075,0.00,VWS V14.01,2013-05-07 04:08:00,
2013-05-06 21:09:00,60.4,24.5,29.10,NE,34,0.0,0.0,25,0.00,,FEW075,0.00,VWS V14.01,2013-05-07 04:09:00,
2013-05-06 21:10:00,60.4,24.5,29.10,NE,34,0.0,0.0,25,0.00,,FEW075,0.00,VWS V14.01,2013-05-07 04:10:00,
2013-05-06 21:11:00,59.0,25.1,29.10,NE,34,0.0,0.0,27,0.00,,SCT200,0.00,VWS V14.01,2013-05-07 04:11:00,
2013-05-06 21:12:00,60.3,24.3,29.10,NE,34,0.0,0.0,25,0.00,,FEW075,0.00,VWS V14.01,2013-05-07 04:12:00,
2013-05-06 21:13:00,60.3,25.3,29.10,NE,34,0.0,0.0,26,0.00,,FEW075,0.00,VWS V14.01,2013-05-07 04:13:00,
2013-05-06 21:14:00,60.1,25.1,29.10,NE,34,0.0,0.0,26,0.00,,FEW075,0.00,VWS V14.01,2013-05-07 04:14:00,
2013-05-06 21:15:00,60.1,25.1,29.10,NE,34,0.0,0.0,26,0.00,,FEW075,0.00,VWS V14.01,2013-05-07 04:15:00,
2013-05-06 21:16:00,58.1,26.0,29.10,NE,34,3.1,3.1,29,0.00,,SCT200,0.00,VWS V14.01,2013-05-07 04:16:00,
2013-05-06 21:17:00,59.9,25.9,29.10,NE,34,0.0,0.0,27,0.00,,FEW075,0.00,VWS V14.01,2013-05-07 04:17:00,
2013-05-06 21:18:00,59.7,25.7,29.10,NE,34,0.0,0.0,27,0.00,,FEW075,0.00,VWS V14.01,2013-05-07 04:18:00,
2013-05-06 21:19:00,59.7,25.7,29.10,NE,34,0.0,0.0,27,0.00,,FEW075,0.00,VWS V14.01,2013-05-07 04:19:00,
2013-05-06 21:20:00,59.7,25.7,29.10,NE,34,0.0,0.0,27,0.00,,FEW075,0.00,VWS V14.01,2013-05-07 04:20:00,
2013-05-06 21:21:00,59.4,26.3,29.10,NE,34,0.0,0.0,28,0.00,,SCT200,0.00,VWS V14.01,2013-05-07 04:21:00,
2013-05-06 21:22:00,59.4,25.4,29.10,NE,34,0.0,0.0,27,0.00,,FEW075,0.00,VWS V14.01,2013-05-07 04:22:00,
2013-05-06 21:23:00,59.2,25.2,29.10,NE,34,0.0,0.0,27,0.00,,FEW075,0.00,VWS V14.01,2013-05-07 04:23:00,
2013-05-06 21:24:00,59.0,25.1,29.10,NE,34,0.0,0.0,27,0.00,,FEW075,0.00,VWS V14.01,2013-05-07 04:24:00,
2013-05-06 21:25:00,58.8,25.8,29.10,NE,34,0.0,0.0,28,0.00,,FEW075,0.00,VWS V14.01,2013-05-07 04:25:00,
2013-05-06 21:26:00,60.4,27.2,29.10,NE,55,0.0,0.0,28,0.00,,SCT200,0.00,VWS V14.01,2013-05-07 04:26:00,
2013-05-06 21:27:00,58.3,25.3,29.10,NE,34,0.0,0.0,28,0.00,,FEW075,0.00,VWS V14.01,2013-05-07 04:27:00,
2013-05-06 21:28:00,58.1,26.0,29.10,NE,34,0.0,0.0,29,0.00,,FEW075,0.00,VWS V14.01,2013-05-07 04:28:00,
2013-05-06 21:29:00,58.1,26.0,29.10,NE,34,3.1,3.1,29,0.00,,FEW075,0.00,VWS V14.01,2013-05-07 04:29:00,
2013-05-06 21:30:00,58.1,26.9,29.10,NE,34,2.2,3.1,30,0.00,,FEW075,0.00,VWS V14.01,2013-05-07 04:30:00,
2013-05-06 21:31:00,60.3,27.0,29.10,NE,55,0.0,0.0,28,0.00,,SCT200,0.00,VWS V14.01,2013-05-07 04:31:00,
2013-05-06 21:32:00,58.5,27.2,29.10,NE,34,0.0,0.0,30,0.00,,FEW075,0.00,VWS V14.01,2013-05-07 04:32:00,
2013-05-06 21:33:00,58.8,26.7,29.10,NE,34,0.0,0.0,29,0.00,,FEW075,0.00,VWS V14.01,2013-05-07 04:33:00,
2013-05-06 21:34:00,59.2,27.0,29.10,NE,34,0.0,0.0,29,0.00,,FEW075,0.00,VWS V14.01,2013-05-07 04:34:00,
2013-05-06 21:35:00,59.4,26.3,29.10,NE,34,0.0,0.0,28,0.00,,FEW075,0.00,VWS V14.01,2013-05-07 04:35:00,
2013-05-06 21:36:00,59.5,26.4,29.10,NE,55,0.0,0.0,28,0.00,,SCT200,0.00,VWS V14.01,2013-05-07 04:36:00,
2013-05-06 21:37:00,59.9,26.7,29.10,NE,43,2.7,2.7,28,0.00,,FEW075,0.00,VWS V14.01,2013-05-07 04:37:00,
2013-05-06 21:38:00,60.3,27.0,29.10,NE,55,0.0,3.1,28,0.00,,FEW075,0.00,VWS V14.01,2013-05-07 04:38:00,
2013-05-06 21:39:00,60.4,27.2,29.10,NE,55,0.0,0.0,28,0.00,,FEW075,0.00,VWS V14.01,2013-05-07 04:39:00,
2013-05-06 21:40:00,60.4,27.2,29.10,NE,55,0.0,0.0,28,0.00,,FEW075,0.00,VWS V14.01,2013-05-07 04:40:00,
2013-05-06 21:41:00,58.5,26.3,29.10,NE,55,0.0,0.0,29,0.00,,SCT200,0.00,VWS V14.01,2013-05-07 04:41:00,
2013-05-06 21:42:00,60.4,27.2,29.10,NE,55,0.0,0.0,28,0.00,,FEW075,0.00,VWS V14.01,2013-05-07 04:42:00,
2013-05-06 21:43:00,60.4,27.2,29.10,NE,55,0.0,0.0,28,0.00,,FEW075,0.00,VWS V14.01,2013-05-07 04:43:00,
2013-05-06 21:44:00,60.3,27.0,29.10,NE,55,0.0,0.0,28,0.00,,FEW075,0.00,VWS V14.01,2013-05-07 04:44:00,
2013-05-06 21:45:00,60.1,26.9,29.10,NE,55,0.0,0.0,28,0.00,,FEW075,0.00,VWS V14.01,2013-05-07 04:45:00,
2013-05-06 21:46:00,57.4,25.4,29.10,NE,55,0.0,0.0,29,0.00,,SCT200,0.00,VWS V14.01,2013-05-07 04:46:00,
2013-05-06 21:47:00,59.9,26.7,29.10,NE,55,0.0,0.0,28,0.00,,FEW075,0.00,VWS V14.01,2013-05-07 04:47:00,
2013-05-06 21:48:00,59.7,26.6,29.10,NE,55,0.0,0.0,28,0.00,,FEW075,0.00,VWS V14.01,2013-05-07 04:48:00,
2013-05-06 21:49:00,59.5,26.4,29.10,NE,55,0.0,0.0,28,0.00,,FEW075,0.00,VWS V14.01,2013-05-07 04:49:00,
2013-05-06 21:50:00,59.5,26.4,29.10,NE,55,0.0,0.0,28,0.00,,FEW075,0.00,VWS V14.01,2013-05-07 04:50:00,
2013-05-06 21:51:00,56.8,25.8,29.10,NE,55,0.0,0.0,30,0.00,,SCT200,0.00,VWS V14.01,2013-05-07 04:51:00,
2013-05-06 21:52:00,59.0,26.0,29.10,NE,55,0.0,0.0,28,0.00,,FEW075,0.00,VWS V14.01,2013-05-07 04:52:00,
2013-05-06 21:53:00,58.8,25.8,29.10,NE,54,0.0,0.0,28,0.00,,FEW075,0.00,VWS V14.01,2013-05-07 04:53:00,
2013-05-06 21:54:00,58.5,26.3,29.10,NE,55,0.0,0.0,29,0.00,,FEW075,0.00,VWS V14.01,2013-05-07 04:54:00,
2013-05-06 21:55:00,58.1,26.0,29.10,NE,55,0.0,0.0,29,0.00,,FEW075,0.00,VWS V14.01,2013-05-07 04:55:00,
2013-05-06 21:56:00,56.8,27.3,29.10,NE,55,0.0,0.0,32,0.00,,SCT200,0.00,VWS V14.01,2013-05-07 04:56:00,
2013-05-06 21:57:00,57.7,25.7,29.10,NE,55,0.0,0.0,29,0.00,,FEW075,0.00,VWS V14.01,2013-05-07 04:57:00,
2013-05-06 21:58:00,57.6,25.6,29.10,NE,55,0.0,0.0,29,0.00,,FEW075,0.00,VWS V14.01,2013-05-07 04:58:00,
2013-05-06 21:59:00,57.4,25.4,29.10,NE,55,0.0,0.0,29,0.00,,FEW075,0.00,VWS V14.01,2013-05-07 04:59:00,
2013-05-06 22:00:00,57.2,25.2,29.10,NE,55,0.0,0.0,29,0.00,,FEW075,0.00,VWS V14.01,2013-05-07 05:00:00,
2013-05-06 22:01:00,56.3,26.8,29.10,NE,55,0.0,0.0,32,0.00,,SCT200,0.00,VWS V14.01,2013-05-07 05:01:00,
2013-05-06 22:02:00,56.8,26.5,29.10,NE,55,0.0,0.0,31,0.00,,FEW075,0.00,VWS V14.01,2013-05-07 05:02:00,
2013-05-06 22:03:00,56.8,25.8,29.10,NE,55,0.0,0.0,30,0.00,,FEW075,0.00,VWS V14.01,2013-05-07 05:03:00,
2013-05-06 22:04:00,56.8,25.8,29.10,NE,55,0.0,0.0,30,0.00,,FEW075,0.00,VWS V14.01,2013-05-07 05:04:00,
2013-05-06 22:05:00,56.8,25.8,29.10,NE,55,0.0,0.0,30,0.00,,FEW075,0.00,VWS V14.01,2013-05-07 05:05:00,
2013-05-06 22:06:00,55.9,25.8,29.10,NE,55,0.0,0.0,31,0.00,,FEW050,0.00,VWS V14.01,2013-05-07 05:06:00,
2013-05-06 22:07:00,56.8,25.8,29.10,NE,55,0.0,0.0,30,0.00,,FEW075,0.00,VWS V14.01,2013-05-07 05:07:00,
2013-05-06 22:08:00,56.8,27.3,29.10,NE,55,0.0,0.0,32,0.00,,FEW075,0.00,VWS V14.01,2013-05-07 05:08:00,
2013-05-06 22:09:00,56.8,27.3,29.10,NE,55,0.0,0.0,32,0.00,,FEW075,0.00,VWS V14.01,2013-05-07 05:09:00,
2013-05-06 22:10:00,56.7,27.2,29.10,NE,55,0.0,0.0,32,0.00,,FEW075,0.00,VWS V14.01,2013-05-07 05:10:00,
2013-05-06 22:11:00,55.9,26.5,29.10,NE,55,0.0,0.0,32,0.00,,FEW050,0.00,VWS V14.01,2013-05-07 05:11:00,
2013-05-06 22:12:00,56.5,26.2,29.10,NE,55,0.0,0.0,31,0.00,,FEW075,0.00,VWS V14.01,2013-05-07 05:12:00,
2013-05-06 22:13:00,56.5,27.0,29.10,NE,55,0.0,0.0,32,0.00,,FEW075,0.00,VWS V14.01,2013-05-07 05:13:00,
2013-05-06 22:14:00,56.3,26.8,29.10,NE,55,0.0,0.0,32,0.00,,FEW075,0.00,VWS V14.01,2013-05-07 05:14:00,
2013-05-06 22:15:00,56.3,26.8,29.10,NE,55,0.0,0.0,32,0.00,,FEW075,0.00,VWS V14.01,2013-05-07 05:15:00,
2013-05-06 22:16:00,55.2,25.9,29.10,NE,55,0.0,0.0,32,0.00,,FEW050,0.00,VWS V14.01,2013-05-07 05:16:00,
2013-05-06 22:17:00,56.1,25.9,29.10,NE,55,0.0,0.0,31,0.00,,FEW075,0.00,VWS V14.01,2013-05-07 05:17:00,
2013-05-06 22:18:00,56.1,25.9,29.10,NE,55,0.0,0.0,31,0.00,,FEW075,0.00,VWS V14.01,2013-05-07 05:18:00,
2013-05-06 22:19:00,55.9,25.8,29.10,NE,55,0.0,0.0,31,0.00,,FEW075,0.00,VWS V14.01,2013-05-07 05:19:00,
2013-05-06 22:20:00,55.9,25.8,29.10,NE,55,0.0,0.0,31,0.00,,FEW075,0.00,VWS V14.01,2013-05-07 05:20:00,
2013-05-06 22:21:00,54.7,26.2,29.10,NE,55,2.2,2.7,33,0.00,,FEW050,0.00,VWS V14.01,2013-05-07 05:21:00,
2013-05-06 22:22:00,55.9,25.8,29.10,NE,54,0.0,0.0,31,0.00,,FEW075,0.00,VWS V14.01,2013-05-07 05:22:00,
2013-05-06 22:23:00,55.9,26.5,29.10,NE,55,0.0,0.0,32,0.00,,FEW075,0.00,VWS V14.01,2013-05-07 05:23:00,
2013-05-06 22:24:00,55.9,26.5,29.10,NE,55,0.0,0.0,32,0.00,,FEW075,0.00,VWS V14.01,2013-05-07 05:24:00,
2013-05-06 22:25:00,55.8,26.4,29.10,NE,55,0.0,0.0,32,0.00,,FEW075,0.00,VWS V14.01,2013-05-07 05:25:00,
2013-05-06 22:26:00,53.8,25.4,29.13,NE,55,0.0,0.0,33,0.00,,FEW050,0.00,VWS V14.01,2013-05-07 05:26:00,
2013-05-06 22:27:00,55.4,25.3,29.10,NE,54,0.0,0.0,31,0.00,,FEW075,0.00,VWS V14.01,2013-05-07 05:27:00,
2013-05-06 22:28:00,55.2,25.9,29.10,NE,55,0.0,0.0,32,0.00,,FEW075,0.00,VWS V14.01,2013-05-07 05:28:00,
2013-05-06 22:29:00,55.2,25.9,29.10,NE,55,0.0,0.0,32,0.00,,FEW075,0.00,VWS V14.01,2013-05-07 05:29:00,
2013-05-06 22:30:00,55.0,25.7,29.10,NE,55,0.0,0.0,32,0.00,,FEW075,0.00,VWS V14.01,2013-05-07 05:30:00,
2013-05-06 22:31:00,53.6,27.3,29.13,NE,55,0.0,0.0,36,0.00,,FEW050,0.00,VWS V14.01,2013-05-07 05:31:00,
2013-05-06 22:32:00,54.9,27.0,29.10,NE,54,2.7,2.7,34,0.00,,FEW075,0.00,VWS V14.01,2013-05-07 05:32:00,
2013-05-06 22:33:00,54.9,26.3,29.10,NE,55,2.2,2.7,33,0.00,,FEW075,0.00,VWS V14.01,2013-05-07 05:33:00,
2013-05-06 22:34:00,54.7,26.2,29.10,NE,55,2.2,2.7,33,0.00,,FEW075,0.00,VWS V14.01,2013-05-07 05:34:00,
2013-05-06 22:35:00,54.5,26.0,29.13,NE,54,0.0,2.2,33,0.00,,FEW075,0.00,VWS V14.01,2013-05-07 05:35:00,
2013-05-06 22:36:00,53.4,27.8,29.13,NE,55,0.0,0.0,37,0.00,,FEW050,0.00,VWS V14.01,2013-05-07 05:36:00,
2013-05-06 22:37:00,54.0,25.5,29.13,NE,55,0.0,0.0,33,0.00,,FEW075,0.00,VWS V14.01,2013-05-07 05:37:00,
2013-05-06 22:38:00,53.8,25.4,29.13,NE,55,0.0,0.0,33,0.00,,FEW075,0.00,VWS V14.01,2013-05-07 05:38:00,
2013-05-06 22:39:00,53.8,25.4,29.13,NE,54,0.0,0.0,33,0.00,,FEW075,0.00,VWS V14.01,2013-05-07 05:39:00,
2013-05-06 22:40:00,53.6,25.9,29.13,NE,55,0.0,0.0,34,0.00,,FEW075,0.00,VWS V14.01,2013-05-07 05:40:00,
2013-05-06 22:41:00,53.2,27.0,29.13,NE,55,0.0,0.0,36,0.00,,FEW050,0.00,VWS V14.01,2013-05-07 05:41:00,
2013-05-06 22:42:00,53.6,27.3,29.13,NE,55,0.0,0.0,36,0.00,,FEW075,0.00,VWS V14.01,2013-05-07 05:42:00,
2013-05-06 22:43:00,53.6,27.3,29.13,NE,55,0.0,0.0,36,0.00,,FEW075,0.00,VWS V14.01,2013-05-07 05:43:00,
2013-05-06 22:44:00,53.6,27.3,29.13,NE,55,0.0,0.0,36,0.00,,FEW075,0.00,VWS V14.01,2013-05-07 05:44:00,
2013-05-06 22:45:00,53.4,27.1,29.13,NE,55,0.0,0.0,36,0.00,,FEW075,0.00,VWS V14.01,2013-05-07 05:45:00,
2013-05-06 22:46:00,53.4,27.8,29.13,NE,55,0.0,0.0,37,0.00,,FEW050,0.00,VWS V14.01,2013-05-07 05:46:00,
2013-05-06 22:47:00,53.4,27.8,29.13,NE,55,0.0,0.0,37,0.00,,FEW075,0.00,VWS V14.01,2013-05-07 05:47:00,
2013-05-06 22:48:00,53.4,27.8,29.13,NE,55,0.0,0.0,37,0.00,,FEW075,0.00,VWS V14.01,2013-05-07 05:48:00,
2013-05-06 22:49:00,53.4,27.8,29.13,NE,54,0.0,0.0,37,0.00,,FEW075,0.00,VWS V14.01,2013-05-07 05:49:00,
2013-05-06 22:50:00,53.2,27.7,29.13,NE,55,0.0,0.0,37,0.00,,FEW075,0.00,VWS V14.01,2013-05-07 05:50:00,
2013-05-06 22:51:00,53.4,27.8,29.13,NE,55,0.0,0.0,37,0.00,,FEW050,0.00,VWS V14.01,2013-05-07 05:51:00,
2013-05-06 22:52:00,53.2,27.0,29.13,NE,55,0.0,0.0,36,0.00,,FEW075,0.00,VWS V14.01,2013-05-07 05:52:00,
2013-05-06 22:53:00,53.2,27.0,29.13,NE,54,0.0,0.0,36,0.00,,FEW075,0.00,VWS V14.01,2013-05-07 05:53:00,
2013-05-06 22:54:00,53.2,27.0,29.13,NE,55,0.0,0.0,36,0.00,,FEW075,0.00,VWS V14.01,2013-05-07 05:54:00,
2013-05-06 22:55:00,53.2,27.7,29.13,NE,55,0.0,0.0,37,0.00,,FEW075,0.00,VWS V14.01,2013-05-07 05:55:00,
2013-05-06 22:56:00,53.1,27.5,29.10,NE,55,0.0,0.0,37,0.00,,FEW050,0.00,VWS V14.01,2013-05-07 05:56:00,
2013-05-06 22:57:00,53.2,27.7,29.13,NE,54,0.0,0.0,37,0.00,,FEW075,0.00,VWS V14.01,2013-05-07 05:57:00,
2013-05-06 22:58:00,53.4,27.8,29.13,NE,55,0.0,0.0,37,0.00,,FEW075,0.00,VWS V14.01,2013-05-07 05:58:00,
2013-05-06 22:59:00,53.4,27.8,29.13,NE,55,0.0,0.0,37,0.00,,FEW075,0.00,VWS V14.01,2013-05-07 05:59:00,
2013-05-06 23:00:00,53.4,27.8,29.13,NE,55,0.0,0.0,37,0.00,,FEW075,0.00,VWS V14.01,2013-05-07 06:00:00,
2013-05-06 23:01:00,52.5,27.0,29.10,NE,55,0.0,0.0,37,0.00,,CLR,0.00,VWS V14.01,2013-05-07 06:01:00,
2013-05-06 23:02:00,53.4,27.8,29.13,NE,55,0.0,0.0,37,0.00,,FEW075,0.00,VWS V14.01,2013-05-07 06:02:00,
2013-05-06 23:03:00,53.4,27.8,29.13,NE,55,0.0,0.0,37,0.00,,FEW075,0.00,VWS V14.01,2013-05-07 06:03:00,
2013-05-06 23:04:00,53.4,27.8,29.13,NE,55,0.0,0.0,37,0.00,,FEW075,0.00,VWS V14.01,2013-05-07 06:04:00,
2013-05-06 23:05:00,53.2,27.7,29.10,NE,55,0.0,0.0,37,0.00,,FEW075,0.00,VWS V14.01,2013-05-07 06:05:00,
2013-05-06 23:06:00,51.4,26.0,29.10,NE,54,0.0,0.0,37,0.00,,CLR,0.00,VWS V14.01,2013-05-07 06:06:00,
2013-05-06 23:07:00,53.1,27.5,29.10,NE,55,0.0,0.0,37,0.00,,FEW075,0.00,VWS V14.01,2013-05-07 06:07:00,
2013-05-06 23:08:00,53.1,27.5,29.10,NE,54,0.0,0.0,37,0.00,,FEW075,0.00,VWS V14.01,2013-05-07 06:08:00,
2013-05-06 23:09:00,53.1,27.5,29.10,NE,55,0.0,0.0,37,0.00,,FEW075,0.00,VWS V14.01,2013-05-07 06:09:00,
2013-05-06 23:10:00,52.9,27.3,29.10,NE,55,0.0,0.0,37,0.00,,FEW075,0.00,VWS V14.01,2013-05-07 06:10:00,
2013-05-06 23:11:00,50.9,26.2,29.13,NE,55,0.0,0.0,38,0.00,,CLR,0.00,VWS V14.01,2013-05-07 06:11:00,
2013-05-06 23:12:00,52.7,27.2,29.10,NE,54,0.0,0.0,37,0.00,,FEW075,0.00,VWS V14.01,2013-05-07 06:12:00,
2013-05-06 23:13:00,52.5,27.0,29.10,NE,55,0.0,0.0,37,0.00,,FEW075,0.00,VWS V14.01,2013-05-07 06:13:00,
2013-05-06 23:14:00,52.3,26.9,29.10,NE,55,0.0,0.0,37,0.00,,FEW075,0.00,VWS V14.01,2013-05-07 06:14:00,
2013-05-06 23:15:00,52.2,26.7,29.10,NE,54,0.0,0.0,37,0.00,,FEW075,0.00,VWS V14.01,2013-05-07 06:15:00,
2013-05-06 23:16:00,51.1,26.4,29.13,NE,55,0.0,0.0,38,0.00,,CLR,0.00,VWS V14.01,2013-05-07 06:16:00,
2013-05-06 23:17:00,51.8,26.4,29.10,NE,55,0.0,0.0,37,0.00,,FEW075,0.00,VWS V14.01,2013-05-07 06:17:00,
2013-05-06 23:18:00,51.6,26.2,29.10,NE,55,0.0,0.0,37,0.00,,FEW075,0.00,VWS V14.01,2013-05-07 06:18:00,
2013-05-06 23:19:00,51.4,26.1,29.10,NE,55,0.0,0.0,37,0.00,,FEW075,0.00,VWS V14.01,2013-05-07 06:19:00,
2013-05-06 23:20:00,51.3,25.9,29.13,NE,55,0.0,0.0,37,0.00,,FEW075,0.00,VWS V14.01,2013-05-07 06:20:00,
2013-05-06 23:21:00,51.6,26.9,29.13,NE,55,0.0,0.0,38,0.00,,CLR,0.00,VWS V14.01,2013-05-07 06:21:00,
2013-05-06 23:22:00,50.9,26.2,29.13,NE,54,0.0,0.0,38,0.00,,FEW075,0.00,VWS V14.01,2013-05-07 06:22:00,
2013-05-06 23:23:00,50.9,26.2,29.13,NE,55,0.0,0.0,38,0.00,,FEW075,0.00,VWS V14.01,2013-05-07 06:23:00,
2013-05-06 23:24:00,50.9,26.2,29.13,NE,55,0.0,0.0,38,0.00,,FEW075,0.00,VWS V14.01,2013-05-07 06:24:00,
2013-05-06 23:25:00,50.9,26.2,29.13,NE,55,0.0,0.0,38,0.00,,FEW075,0.00,VWS V14.01,2013-05-07 06:25:00,
2013-05-06 23:26:00,51.6,26.9,29.13,NE,55,0.0,0.0,38,0.00,,CLR,0.00,VWS V14.01,2013-05-07 06:26:00,
2013-05-06 23:27:00,51.1,26.4,29.13,NE,55,0.0,0.0,38,0.00,,FEW075,0.00,VWS V14.01,2013-05-07 06:27:00,
2013-05-06 23:28:00,51.1,26.4,29.13,NE,55,0.0,0.0,38,0.00,,FEW075,0.00,VWS V14.01,2013-05-07 06:28:00,
2013-05-06 23:29:00,51.1,26.4,29.13,NE,54,0.0,0.0,38,0.00,,FEW075,0.00,VWS V14.01,2013-05-07 06:29:00,
2013-05-06 23:30:00,51.3,26.5,29.13,NE,54,0.0,0.0,38,0.00,,FEW075,0.00,VWS V14.01,2013-05-07 06:30:00,
2013-05-06 23:31:00,51.3,27.2,29.13,NE,55,2.7,3.1,39,0.00,,CLR,0.00,VWS V14.01,2013-05-07 06:31:00,
2013-05-06 23:32:00,51.4,26.7,29.13,NE,55,0.0,0.0,38,0.00,,FEW075,0.00,VWS V14.01,2013-05-07 06:32:00,
2013-05-06 23:33:00,51.6,26.9,29.13,NE,55,0.0,0.0,38,0.00,,FEW075,0.00,VWS V14.01,2013-05-07 06:33:00,
2013-05-06 23:34:00,51.6,26.9,29.13,NE,55,0.0,0.0,38,0.00,,FEW075,0.00,VWS V14.01,2013-05-07 06:34:00,
2013-05-06 23:35:00,51.6,26.9,29.13,NE,55,0.0,0.0,38,0.00,,FEW075,0.00,VWS V14.01,2013-05-07 06:35:00,
2013-05-06 23:36:00,50.7,26.7,29.13,NE,55,0.0,0.0,39,0.00,,CLR,0.00,VWS V14.01,2013-05-07 06:36:00,
2013-05-06 23:37:00,51.6,26.9,29.13,NE,55,0.0,0.0,38,0.00,,FEW075,0.00,VWS V14.01,2013-05-07 06:37:00,
2013-05-06 23:38:00,51.6,26.9,29.13,NE,54,0.0,0.0,38,0.00,,FEW075,0.00,VWS V14.01,2013-05-07 06:38:00,
2013-05-06 23:39:00,51.6,26.9,29.13,NE,55,0.0,0.0,38,0.00,,FEW075,0.00,VWS V14.01,2013-05-07 06:39:00,
2013-05-06 23:40:00,51.6,26.9,29.13,NE,55,0.0,0.0,38,0.00,,FEW075,0.00,VWS V14.01,2013-05-07 06:40:00,
2013-05-06 23:41:00,50.2,26.8,29.13,NE,55,0.0,0.0,40,0.00,,CLR,0.00,VWS V14.01,2013-05-07 06:41:00,
2013-05-06 23:42:00,51.4,26.7,29.13,NE,55,0.0,0.0,38,0.00,,FEW075,0.00,VWS V14.01,2013-05-07 06:42:00,
2013-05-06 23:43:00,51.3,26.5,29.13,NE,55,3.1,3.1,38,0.00,,FEW075,0.00,VWS V14.01,2013-05-07 06:43:00,
2013-05-06 23:44:00,51.3,27.2,29.13,NE,54,0.0,3.1,39,0.00,,FEW075,0.00,VWS V14.01,2013-05-07 06:44:00,
2013-05-06 23:45:00,51.1,27.0,29.13,NE,55,0.0,0.0,39,0.00,,FEW075,0.00,VWS V14.01,2013-05-07 06:45:00,
2013-05-06 23:46:00,49.8,27.1,29.13,NE,55,0.0,0.0,41,0.00,,CLR,0.00,VWS V14.01,2013-05-07 06:46:00,
2013-05-06 23:47:00,50.9,26.8,29.13,NE,55,0.0,0.0,39,0.00,,FEW075,0.00,VWS V14.01,2013-05-07 06:47:00,
2013-05-06 23:48:00,50.7,26.7,29.13,NE,55,0.0,0.0,39,0.00,,FEW075,0.00,VWS V14.01,2013-05-07 06:48:00,
2013-05-06 23:49:00,50.5,26.5,29.13,NE,55,0.0,0.0,39,0.00,,FEW075,0.00,VWS V14.01,2013-05-07 06:49:00,
2013-05-06 23:50:00,50.4,27.0,29.13,NE,55,0.0,0.0,40,0.00,,FEW075,0.00,VWS V14.01,2013-05-07 06:50:00,
2013-05-06 23:51:00,49.3,26.0,29.13,NE,55,0.0,0.0,40,0.00,,CLR,0.00,VWS V14.01,2013-05-07 06:51:00,
2013-05-06 23:52:00,50.2,26.8,29.13,NE,55,0.0,0.0,40,0.00,,FEW075,0.00,VWS V14.01,2013-05-07 06:52:00,
2013-05-06 23:53:00,50.2,26.8,29.13,NE,55,0.0,0.0,40,0.00,,FEW075,0.00,VWS V14.01,2013-05-07 06:53:00,
2013-05-06 23:54:00,50.2,26.8,29.13,NE,55,0.0,0.0,40,0.00,,FEW075,0.00,VWS V14.01,2013-05-07 06:54:00,
2013-05-06 23:55:00,50.0,26.6,29.13,NE,55,0.0,0.0,40,0.00,,FEW075,0.00,VWS V14.01,2013-05-07 06:55:00,
2013-05-06 23:56:00,49.1,27.0,29.13,NE,54,0.0,0.0,42,0.00,,CLR,0.00,VWS V14.01,2013-05-07 06:56:00,
2013-05-06 23:57:00,49.8,27.1,29.13,NE,55,0.0,0.0,41,0.00,,FEW075,0.00,VWS V14.01,2013-05-07 06:57:00,
2013-05-06 23:58:00,49.8,27.1,29.13,NE,55,0.0,0.0,41,0.00,,FEW075,0.00,VWS V14.01,2013-05-07 06:58:00,
2013-05-06 23:59:00,49.8,27.1,29.13,NE,55,0.0,0.0,41,0.00,,FEW075,0.00,VWS V14.01,2013-05-07 06:59:00,